<?xml version="1.0" encoding="UTF-8" standalone="no" ?>
<gpx xmlns="http://www.topografix.com/GPX/1/1" xmlns:xsi="http://www.w3.org/2001/XMLSchema-instance" xsi:schemaLocation="http://www.topografix.com/GPX/1/1 http://www.topografix.com/GPX/1/1/gpx.xsd" version="1.1" creator="VisuGPX - https://www.visugpx.com">
  <metadata>
    <name>Sortie Couserans 20 06 2020</name>
    <desc><![CDATA[Avec le saraillet pour finir]]></desc>
  </metadata>
  <trk>
    <name><![CDATA[11404298-Sortie Couserans 20 06]]></name>
    <trkseg>
      <trkpt lat="42.98745" lon="1.13979">
        <ele>392</ele>
        <time>2020-06-19T19:24:33Z</time>
      </trkpt>
      <trkpt lat="42.98745" lon="1.13979">
        <ele>392</ele>
        <time>2020-06-19T19:24:33Z</time>
      </trkpt>
      <trkpt lat="42.9868" lon="1.14002">
        <ele>392</ele>
        <time>2020-06-19T19:24:45Z</time>
      </trkpt>
      <trkpt lat="42.98676" lon="1.14007">
        <ele>392</ele>
        <time>2020-06-19T19:24:46Z</time>
      </trkpt>
      <trkpt lat="42.98674" lon="1.14015">
        <ele>392</ele>
        <time>2020-06-19T19:24:47Z</time>
      </trkpt>
      <trkpt lat="42.98657" lon="1.14018">
        <ele>391</ele>
        <time>2020-06-19T19:24:50Z</time>
      </trkpt>
      <trkpt lat="42.98618" lon="1.14014">
        <ele>390</ele>
        <time>2020-06-19T19:24:57Z</time>
      </trkpt>
      <trkpt lat="42.98614" lon="1.14011">
        <ele>390</ele>
        <time>2020-06-19T19:24:58Z</time>
      </trkpt>
      <trkpt lat="42.98609" lon="1.14011">
        <ele>390</ele>
        <time>2020-06-19T19:24:59Z</time>
      </trkpt>
      <trkpt lat="42.98602" lon="1.14016">
        <ele>390</ele>
        <time>2020-06-19T19:25:00Z</time>
      </trkpt>
      <trkpt lat="42.98599" lon="1.14023">
        <ele>390</ele>
        <time>2020-06-19T19:25:01Z</time>
      </trkpt>
      <trkpt lat="42.98599" lon="1.1403">
        <ele>390</ele>
        <time>2020-06-19T19:25:02Z</time>
      </trkpt>
      <trkpt lat="42.98599" lon="1.14044">
        <ele>390</ele>
        <time>2020-06-19T19:25:04Z</time>
      </trkpt>
      <trkpt lat="42.98598" lon="1.14059">
        <ele>390</ele>
        <time>2020-06-19T19:25:06Z</time>
      </trkpt>
      <trkpt lat="42.98598" lon="1.14063">
        <ele>390</ele>
        <time>2020-06-19T19:25:06Z</time>
      </trkpt>
      <trkpt lat="42.98569" lon="1.1409">
        <ele>391</ele>
        <time>2020-06-19T19:25:13Z</time>
      </trkpt>
      <trkpt lat="42.98555" lon="1.14105">
        <ele>392</ele>
        <time>2020-06-19T19:25:16Z</time>
      </trkpt>
      <trkpt lat="42.98546" lon="1.14115">
        <ele>392</ele>
        <time>2020-06-19T19:25:18Z</time>
      </trkpt>
      <trkpt lat="42.98541" lon="1.14129">
        <ele>393</ele>
        <time>2020-06-19T19:25:20Z</time>
      </trkpt>
      <trkpt lat="42.98532" lon="1.14133">
        <ele>393</ele>
        <time>2020-06-19T19:25:22Z</time>
      </trkpt>
      <trkpt lat="42.9852" lon="1.1414">
        <ele>394</ele>
        <time>2020-06-19T19:25:24Z</time>
      </trkpt>
      <trkpt lat="42.98516" lon="1.14144">
        <ele>394</ele>
        <time>2020-06-19T19:25:25Z</time>
      </trkpt>
      <trkpt lat="42.98509" lon="1.14151">
        <ele>394</ele>
        <time>2020-06-19T19:25:26Z</time>
      </trkpt>
      <trkpt lat="42.98463" lon="1.14201">
        <ele>395</ele>
        <time>2020-06-19T19:25:37Z</time>
      </trkpt>
      <trkpt lat="42.98415" lon="1.1425">
        <ele>394</ele>
        <time>2020-06-19T19:25:47Z</time>
      </trkpt>
      <trkpt lat="42.98413" lon="1.14252">
        <ele>394</ele>
        <time>2020-06-19T19:25:48Z</time>
      </trkpt>
      <trkpt lat="42.98403" lon="1.14261">
        <ele>394</ele>
        <time>2020-06-19T19:25:50Z</time>
      </trkpt>
      <trkpt lat="42.98387" lon="1.14273">
        <ele>394</ele>
        <time>2020-06-19T19:25:53Z</time>
      </trkpt>
      <trkpt lat="42.98386" lon="1.14273">
        <ele>394</ele>
        <time>2020-06-19T19:25:53Z</time>
      </trkpt>
      <trkpt lat="42.98373" lon="1.14285">
        <ele>394</ele>
        <time>2020-06-19T19:25:56Z</time>
      </trkpt>
      <trkpt lat="42.98363" lon="1.14294">
        <ele>394</ele>
        <time>2020-06-19T19:25:58Z</time>
      </trkpt>
      <trkpt lat="42.9836" lon="1.14296">
        <ele>395</ele>
        <time>2020-06-19T19:25:59Z</time>
      </trkpt>
      <trkpt lat="42.9835" lon="1.14306">
        <ele>395</ele>
        <time>2020-06-19T19:26:01Z</time>
      </trkpt>
      <trkpt lat="42.98346" lon="1.14309">
        <ele>395</ele>
        <time>2020-06-19T19:26:02Z</time>
      </trkpt>
      <trkpt lat="42.98337" lon="1.14317">
        <ele>395</ele>
        <time>2020-06-19T19:26:04Z</time>
      </trkpt>
      <trkpt lat="42.9833" lon="1.14322">
        <ele>395</ele>
        <time>2020-06-19T19:26:05Z</time>
      </trkpt>
      <trkpt lat="42.98299" lon="1.14326">
        <ele>395</ele>
        <time>2020-06-19T19:26:11Z</time>
      </trkpt>
      <trkpt lat="42.98255" lon="1.14337">
        <ele>396</ele>
        <time>2020-06-19T19:26:19Z</time>
      </trkpt>
      <trkpt lat="42.98226" lon="1.14345">
        <ele>396</ele>
        <time>2020-06-19T19:26:24Z</time>
      </trkpt>
      <trkpt lat="42.98181" lon="1.14358">
        <ele>396</ele>
        <time>2020-06-19T19:26:32Z</time>
      </trkpt>
      <trkpt lat="42.9817" lon="1.14362">
        <ele>396</ele>
        <time>2020-06-19T19:26:34Z</time>
      </trkpt>
      <trkpt lat="42.98052" lon="1.14395">
        <ele>397</ele>
        <time>2020-06-19T19:26:56Z</time>
      </trkpt>
      <trkpt lat="42.98051" lon="1.14396">
        <ele>397</ele>
        <time>2020-06-19T19:26:56Z</time>
      </trkpt>
      <trkpt lat="42.98041" lon="1.14394">
        <ele>398</ele>
        <time>2020-06-19T19:26:58Z</time>
      </trkpt>
      <trkpt lat="42.98039" lon="1.14393">
        <ele>398</ele>
        <time>2020-06-19T19:26:58Z</time>
      </trkpt>
      <trkpt lat="42.98034" lon="1.14393">
        <ele>399</ele>
        <time>2020-06-19T19:26:59Z</time>
      </trkpt>
      <trkpt lat="42.98027" lon="1.14391">
        <ele>399</ele>
        <time>2020-06-19T19:27:00Z</time>
      </trkpt>
      <trkpt lat="42.98024" lon="1.14393">
        <ele>399</ele>
        <time>2020-06-19T19:27:01Z</time>
      </trkpt>
      <trkpt lat="42.9802" lon="1.14401">
        <ele>399</ele>
        <time>2020-06-19T19:27:02Z</time>
      </trkpt>
      <trkpt lat="42.98023" lon="1.1441">
        <ele>398</ele>
        <time>2020-06-19T19:27:03Z</time>
      </trkpt>
      <trkpt lat="42.9803" lon="1.14414">
        <ele>397</ele>
        <time>2020-06-19T19:27:05Z</time>
      </trkpt>
      <trkpt lat="42.98035" lon="1.1441">
        <ele>397</ele>
        <time>2020-06-19T19:27:06Z</time>
      </trkpt>
      <trkpt lat="42.98036" lon="1.14407">
        <ele>397</ele>
        <time>2020-06-19T19:27:06Z</time>
      </trkpt>
      <trkpt lat="42.98037" lon="1.144">
        <ele>398</ele>
        <time>2020-06-19T19:27:07Z</time>
      </trkpt>
      <trkpt lat="42.98035" lon="1.14395">
        <ele>398</ele>
        <time>2020-06-19T19:27:08Z</time>
      </trkpt>
      <trkpt lat="42.98031" lon="1.14391">
        <ele>399</ele>
        <time>2020-06-19T19:27:09Z</time>
      </trkpt>
      <trkpt lat="42.98027" lon="1.14391">
        <ele>399</ele>
        <time>2020-06-19T19:27:09Z</time>
      </trkpt>
      <trkpt lat="42.98021" lon="1.14397">
        <ele>399</ele>
        <time>2020-06-19T19:27:11Z</time>
      </trkpt>
      <trkpt lat="42.98018" lon="1.144">
        <ele>399</ele>
        <time>2020-06-19T19:27:11Z</time>
      </trkpt>
      <trkpt lat="42.98012" lon="1.14405">
        <ele>399</ele>
        <time>2020-06-19T19:27:13Z</time>
      </trkpt>
      <trkpt lat="42.98003" lon="1.14409">
        <ele>399</ele>
        <time>2020-06-19T19:27:14Z</time>
      </trkpt>
      <trkpt lat="42.97997" lon="1.14412">
        <ele>399</ele>
        <time>2020-06-19T19:27:16Z</time>
      </trkpt>
      <trkpt lat="42.97975" lon="1.14419">
        <ele>401</ele>
        <time>2020-06-19T19:27:20Z</time>
      </trkpt>
      <trkpt lat="42.9797" lon="1.14421">
        <ele>401</ele>
        <time>2020-06-19T19:27:20Z</time>
      </trkpt>
      <trkpt lat="42.97948" lon="1.14435">
        <ele>403</ele>
        <time>2020-06-19T19:27:25Z</time>
      </trkpt>
      <trkpt lat="42.97934" lon="1.14445">
        <ele>404</ele>
        <time>2020-06-19T19:27:28Z</time>
      </trkpt>
      <trkpt lat="42.97929" lon="1.14449">
        <ele>404</ele>
        <time>2020-06-19T19:27:29Z</time>
      </trkpt>
      <trkpt lat="42.97923" lon="1.14456">
        <ele>404</ele>
        <time>2020-06-19T19:27:30Z</time>
      </trkpt>
      <trkpt lat="42.97913" lon="1.14469">
        <ele>404</ele>
        <time>2020-06-19T19:27:32Z</time>
      </trkpt>
      <trkpt lat="42.97906" lon="1.1448">
        <ele>404</ele>
        <time>2020-06-19T19:27:34Z</time>
      </trkpt>
      <trkpt lat="42.97886" lon="1.14514">
        <ele>404</ele>
        <time>2020-06-19T19:27:40Z</time>
      </trkpt>
      <trkpt lat="42.97879" lon="1.14527">
        <ele>405</ele>
        <time>2020-06-19T19:27:42Z</time>
      </trkpt>
      <trkpt lat="42.97873" lon="1.14538">
        <ele>405</ele>
        <time>2020-06-19T19:27:44Z</time>
      </trkpt>
      <trkpt lat="42.97853" lon="1.14576">
        <ele>406</ele>
        <time>2020-06-19T19:27:50Z</time>
      </trkpt>
      <trkpt lat="42.97844" lon="1.14592">
        <ele>406</ele>
        <time>2020-06-19T19:27:53Z</time>
      </trkpt>
      <trkpt lat="42.97835" lon="1.14604">
        <ele>406</ele>
        <time>2020-06-19T19:27:55Z</time>
      </trkpt>
      <trkpt lat="42.97791" lon="1.14686">
        <ele>410</ele>
        <time>2020-06-19T19:28:08Z</time>
      </trkpt>
      <trkpt lat="42.97777" lon="1.14713">
        <ele>410</ele>
        <time>2020-06-19T19:28:12Z</time>
      </trkpt>
      <trkpt lat="42.97755" lon="1.14764">
        <ele>408</ele>
        <time>2020-06-19T19:28:20Z</time>
      </trkpt>
      <trkpt lat="42.97746" lon="1.14782">
        <ele>406</ele>
        <time>2020-06-19T19:28:23Z</time>
      </trkpt>
      <trkpt lat="42.97736" lon="1.14796">
        <ele>404</ele>
        <time>2020-06-19T19:28:26Z</time>
      </trkpt>
      <trkpt lat="42.97727" lon="1.14804">
        <ele>403</ele>
        <time>2020-06-19T19:28:27Z</time>
      </trkpt>
      <trkpt lat="42.97707" lon="1.14814">
        <ele>404</ele>
        <time>2020-06-19T19:28:31Z</time>
      </trkpt>
      <trkpt lat="42.97696" lon="1.1482">
        <ele>404</ele>
        <time>2020-06-19T19:28:33Z</time>
      </trkpt>
      <trkpt lat="42.9768" lon="1.14828">
        <ele>404</ele>
        <time>2020-06-19T19:28:36Z</time>
      </trkpt>
      <trkpt lat="42.97617" lon="1.14865">
        <ele>406</ele>
        <time>2020-06-19T19:28:49Z</time>
      </trkpt>
      <trkpt lat="42.97613" lon="1.14868">
        <ele>406</ele>
        <time>2020-06-19T19:28:49Z</time>
      </trkpt>
      <trkpt lat="42.97595" lon="1.14882">
        <ele>405</ele>
        <time>2020-06-19T19:28:53Z</time>
      </trkpt>
      <trkpt lat="42.9755" lon="1.1492">
        <ele>404</ele>
        <time>2020-06-19T19:29:02Z</time>
      </trkpt>
      <trkpt lat="42.97536" lon="1.14935">
        <ele>403</ele>
        <time>2020-06-19T19:29:06Z</time>
      </trkpt>
      <trkpt lat="42.97528" lon="1.14947">
        <ele>403</ele>
        <time>2020-06-19T19:29:08Z</time>
      </trkpt>
      <trkpt lat="42.97471" lon="1.15063">
        <ele>398</ele>
        <time>2020-06-19T19:29:26Z</time>
      </trkpt>
      <trkpt lat="42.974" lon="1.15216">
        <ele>399</ele>
        <time>2020-06-19T19:29:50Z</time>
      </trkpt>
      <trkpt lat="42.97382" lon="1.15249">
        <ele>399</ele>
        <time>2020-06-19T19:29:55Z</time>
      </trkpt>
      <trkpt lat="42.97373" lon="1.15267">
        <ele>400</ele>
        <time>2020-06-19T19:29:58Z</time>
      </trkpt>
      <trkpt lat="42.97371" lon="1.15271">
        <ele>400</ele>
        <time>2020-06-19T19:29:58Z</time>
      </trkpt>
      <trkpt lat="42.97368" lon="1.15275">
        <ele>400</ele>
        <time>2020-06-19T19:29:59Z</time>
      </trkpt>
      <trkpt lat="42.97363" lon="1.1528">
        <ele>400</ele>
        <time>2020-06-19T19:30:00Z</time>
      </trkpt>
      <trkpt lat="42.9736" lon="1.15284">
        <ele>401</ele>
        <time>2020-06-19T19:30:01Z</time>
      </trkpt>
      <trkpt lat="42.97357" lon="1.15287">
        <ele>401</ele>
        <time>2020-06-19T19:30:02Z</time>
      </trkpt>
      <trkpt lat="42.97353" lon="1.15296">
        <ele>401</ele>
        <time>2020-06-19T19:30:03Z</time>
      </trkpt>
      <trkpt lat="42.97353" lon="1.15297">
        <ele>401</ele>
        <time>2020-06-19T19:30:03Z</time>
      </trkpt>
      <trkpt lat="42.9735" lon="1.15309">
        <ele>401</ele>
        <time>2020-06-19T19:30:05Z</time>
      </trkpt>
      <trkpt lat="42.97344" lon="1.15329">
        <ele>402</ele>
        <time>2020-06-19T19:30:08Z</time>
      </trkpt>
      <trkpt lat="42.97343" lon="1.15332">
        <ele>402</ele>
        <time>2020-06-19T19:30:08Z</time>
      </trkpt>
      <trkpt lat="42.97305" lon="1.15419">
        <ele>402</ele>
        <time>2020-06-19T19:30:21Z</time>
      </trkpt>
      <trkpt lat="42.973" lon="1.15433">
        <ele>403</ele>
        <time>2020-06-19T19:30:23Z</time>
      </trkpt>
      <trkpt lat="42.97282" lon="1.15471">
        <ele>404</ele>
        <time>2020-06-19T19:30:29Z</time>
      </trkpt>
      <trkpt lat="42.97257" lon="1.15519">
        <ele>404</ele>
        <time>2020-06-19T19:30:37Z</time>
      </trkpt>
      <trkpt lat="42.97226" lon="1.15584">
        <ele>404</ele>
        <time>2020-06-19T19:30:47Z</time>
      </trkpt>
      <trkpt lat="42.97215" lon="1.15608">
        <ele>404</ele>
        <time>2020-06-19T19:30:51Z</time>
      </trkpt>
      <trkpt lat="42.97191" lon="1.15658">
        <ele>404</ele>
        <time>2020-06-19T19:30:58Z</time>
      </trkpt>
      <trkpt lat="42.97173" lon="1.157">
        <ele>405</ele>
        <time>2020-06-19T19:31:05Z</time>
      </trkpt>
      <trkpt lat="42.97163" lon="1.15721">
        <ele>405</ele>
        <time>2020-06-19T19:31:08Z</time>
      </trkpt>
      <trkpt lat="42.97155" lon="1.1574">
        <ele>405</ele>
        <time>2020-06-19T19:31:11Z</time>
      </trkpt>
      <trkpt lat="42.97147" lon="1.15757">
        <ele>405</ele>
        <time>2020-06-19T19:31:13Z</time>
      </trkpt>
      <trkpt lat="42.9713" lon="1.15792">
        <ele>405</ele>
        <time>2020-06-19T19:31:19Z</time>
      </trkpt>
      <trkpt lat="42.97066" lon="1.15927">
        <ele>405</ele>
        <time>2020-06-19T19:31:40Z</time>
      </trkpt>
      <trkpt lat="42.97039" lon="1.15984">
        <ele>406</ele>
        <time>2020-06-19T19:31:49Z</time>
      </trkpt>
      <trkpt lat="42.97003" lon="1.1606">
        <ele>406</ele>
        <time>2020-06-19T19:32:01Z</time>
      </trkpt>
      <trkpt lat="42.96946" lon="1.16179">
        <ele>408</ele>
        <time>2020-06-19T19:32:19Z</time>
      </trkpt>
      <trkpt lat="42.96945" lon="1.16182">
        <ele>408</ele>
        <time>2020-06-19T19:32:19Z</time>
      </trkpt>
      <trkpt lat="42.96942" lon="1.16189">
        <ele>408</ele>
        <time>2020-06-19T19:32:21Z</time>
      </trkpt>
      <trkpt lat="42.96938" lon="1.16197">
        <ele>408</ele>
        <time>2020-06-19T19:32:22Z</time>
      </trkpt>
      <trkpt lat="42.96936" lon="1.16201">
        <ele>408</ele>
        <time>2020-06-19T19:32:22Z</time>
      </trkpt>
      <trkpt lat="42.96935" lon="1.16202">
        <ele>408</ele>
        <time>2020-06-19T19:32:23Z</time>
      </trkpt>
      <trkpt lat="42.96911" lon="1.16249">
        <ele>408</ele>
        <time>2020-06-19T19:32:30Z</time>
      </trkpt>
      <trkpt lat="42.96878" lon="1.16317">
        <ele>409</ele>
        <time>2020-06-19T19:32:41Z</time>
      </trkpt>
      <trkpt lat="42.9687" lon="1.16334">
        <ele>409</ele>
        <time>2020-06-19T19:32:43Z</time>
      </trkpt>
      <trkpt lat="42.96867" lon="1.16333">
        <ele>409</ele>
        <time>2020-06-19T19:32:44Z</time>
      </trkpt>
      <trkpt lat="42.9687" lon="1.16334">
        <ele>409</ele>
        <time>2020-06-19T19:32:44Z</time>
      </trkpt>
      <trkpt lat="42.96862" lon="1.16351">
        <ele>409</ele>
        <time>2020-06-19T19:32:47Z</time>
      </trkpt>
      <trkpt lat="42.96858" lon="1.16359">
        <ele>409</ele>
        <time>2020-06-19T19:32:48Z</time>
      </trkpt>
      <trkpt lat="42.96849" lon="1.16379">
        <ele>410</ele>
        <time>2020-06-19T19:32:51Z</time>
      </trkpt>
      <trkpt lat="42.96817" lon="1.16446">
        <ele>409</ele>
        <time>2020-06-19T19:33:02Z</time>
      </trkpt>
      <trkpt lat="42.968" lon="1.16479">
        <ele>409</ele>
        <time>2020-06-19T19:33:07Z</time>
      </trkpt>
      <trkpt lat="42.96793" lon="1.16494">
        <ele>409</ele>
        <time>2020-06-19T19:33:09Z</time>
      </trkpt>
      <trkpt lat="42.96784" lon="1.16513">
        <ele>408</ele>
        <time>2020-06-19T19:33:12Z</time>
      </trkpt>
      <trkpt lat="42.96755" lon="1.16574">
        <ele>408</ele>
        <time>2020-06-19T19:33:22Z</time>
      </trkpt>
      <trkpt lat="42.96643" lon="1.1681">
        <ele>410</ele>
        <time>2020-06-19T19:33:58Z</time>
      </trkpt>
      <trkpt lat="42.96613" lon="1.16874">
        <ele>409</ele>
        <time>2020-06-19T19:34:08Z</time>
      </trkpt>
      <trkpt lat="42.96604" lon="1.16889">
        <ele>409</ele>
        <time>2020-06-19T19:34:11Z</time>
      </trkpt>
      <trkpt lat="42.96589" lon="1.16907">
        <ele>408</ele>
        <time>2020-06-19T19:34:14Z</time>
      </trkpt>
      <trkpt lat="42.96566" lon="1.16935">
        <ele>412</ele>
        <time>2020-06-19T19:34:20Z</time>
      </trkpt>
      <trkpt lat="42.96552" lon="1.16951">
        <ele>414</ele>
        <time>2020-06-19T19:34:23Z</time>
      </trkpt>
      <trkpt lat="42.96459" lon="1.1701">
        <ele>414</ele>
        <time>2020-06-19T19:34:41Z</time>
      </trkpt>
      <trkpt lat="42.96381" lon="1.17087">
        <ele>414</ele>
        <time>2020-06-19T19:34:58Z</time>
      </trkpt>
      <trkpt lat="42.96302" lon="1.17166">
        <ele>416</ele>
        <time>2020-06-19T19:35:16Z</time>
      </trkpt>
      <trkpt lat="42.96238" lon="1.1723">
        <ele>417</ele>
        <time>2020-06-19T19:35:30Z</time>
      </trkpt>
      <trkpt lat="42.96072" lon="1.17397">
        <ele>421</ele>
        <time>2020-06-19T19:36:07Z</time>
      </trkpt>
      <trkpt lat="42.96032" lon="1.17442">
        <ele>422</ele>
        <time>2020-06-19T19:36:16Z</time>
      </trkpt>
      <trkpt lat="42.95983" lon="1.17459">
        <ele>421</ele>
        <time>2020-06-19T19:36:25Z</time>
      </trkpt>
      <trkpt lat="42.95812" lon="1.17536">
        <ele>422</ele>
        <time>2020-06-19T19:36:57Z</time>
      </trkpt>
      <trkpt lat="42.95753" lon="1.17561">
        <ele>426</ele>
        <time>2020-06-19T19:37:08Z</time>
      </trkpt>
      <trkpt lat="42.95734" lon="1.17565">
        <ele>425</ele>
        <time>2020-06-19T19:37:11Z</time>
      </trkpt>
      <trkpt lat="42.957" lon="1.17569">
        <ele>423</ele>
        <time>2020-06-19T19:37:17Z</time>
      </trkpt>
      <trkpt lat="42.95673" lon="1.17577">
        <ele>420</ele>
        <time>2020-06-19T19:37:22Z</time>
      </trkpt>
      <trkpt lat="42.95458" lon="1.17649">
        <ele>426</ele>
        <time>2020-06-19T19:38:02Z</time>
      </trkpt>
      <trkpt lat="42.95431" lon="1.17655">
        <ele>427</ele>
        <time>2020-06-19T19:38:07Z</time>
      </trkpt>
      <trkpt lat="42.95413" lon="1.17656">
        <ele>428</ele>
        <time>2020-06-19T19:38:10Z</time>
      </trkpt>
      <trkpt lat="42.95395" lon="1.17652">
        <ele>427</ele>
        <time>2020-06-19T19:38:13Z</time>
      </trkpt>
      <trkpt lat="42.95367" lon="1.17633">
        <ele>428</ele>
        <time>2020-06-19T19:38:19Z</time>
      </trkpt>
      <trkpt lat="42.95059" lon="1.17351">
        <ele>427</ele>
        <time>2020-06-19T19:39:25Z</time>
      </trkpt>
      <trkpt lat="42.95049" lon="1.17326">
        <ele>428</ele>
        <time>2020-06-19T19:39:28Z</time>
      </trkpt>
      <trkpt lat="42.95026" lon="1.17251">
        <ele>423</ele>
        <time>2020-06-19T19:39:39Z</time>
      </trkpt>
      <trkpt lat="42.95002" lon="1.17191">
        <ele>419</ele>
        <time>2020-06-19T19:39:48Z</time>
      </trkpt>
      <trkpt lat="42.94977" lon="1.17143">
        <ele>419</ele>
        <time>2020-06-19T19:39:55Z</time>
      </trkpt>
      <trkpt lat="42.94944" lon="1.171">
        <ele>419</ele>
        <time>2020-06-19T19:40:04Z</time>
      </trkpt>
      <trkpt lat="42.94881" lon="1.17045">
        <ele>420</ele>
        <time>2020-06-19T19:40:17Z</time>
      </trkpt>
      <trkpt lat="42.94824" lon="1.1701">
        <ele>420</ele>
        <time>2020-06-19T19:40:28Z</time>
      </trkpt>
      <trkpt lat="42.94726" lon="1.16969">
        <ele>436</ele>
        <time>2020-06-19T19:40:46Z</time>
      </trkpt>
      <trkpt lat="42.94708" lon="1.16964">
        <ele>440</ele>
        <time>2020-06-19T19:40:49Z</time>
      </trkpt>
      <trkpt lat="42.94669" lon="1.16959">
        <ele>445</ele>
        <time>2020-06-19T19:40:56Z</time>
      </trkpt>
      <trkpt lat="42.94623" lon="1.16958">
        <ele>447</ele>
        <time>2020-06-19T19:41:05Z</time>
      </trkpt>
      <trkpt lat="42.94578" lon="1.16986">
        <ele>438</ele>
        <time>2020-06-19T19:41:13Z</time>
      </trkpt>
      <trkpt lat="42.94559" lon="1.17">
        <ele>437</ele>
        <time>2020-06-19T19:41:17Z</time>
      </trkpt>
      <trkpt lat="42.9454" lon="1.17018">
        <ele>439</ele>
        <time>2020-06-19T19:41:21Z</time>
      </trkpt>
      <trkpt lat="42.94497" lon="1.17081">
        <ele>435</ele>
        <time>2020-06-19T19:41:33Z</time>
      </trkpt>
      <trkpt lat="42.94451" lon="1.17152">
        <ele>435</ele>
        <time>2020-06-19T19:41:45Z</time>
      </trkpt>
      <trkpt lat="42.94403" lon="1.1724">
        <ele>431</ele>
        <time>2020-06-19T19:41:59Z</time>
      </trkpt>
      <trkpt lat="42.9437" lon="1.17292">
        <ele>432</ele>
        <time>2020-06-19T19:42:08Z</time>
      </trkpt>
      <trkpt lat="42.94317" lon="1.17346">
        <ele>432</ele>
        <time>2020-06-19T19:42:20Z</time>
      </trkpt>
      <trkpt lat="42.9428" lon="1.1746">
        <ele>436</ele>
        <time>2020-06-19T19:42:36Z</time>
      </trkpt>
      <trkpt lat="42.94264" lon="1.17488">
        <ele>436</ele>
        <time>2020-06-19T19:42:41Z</time>
      </trkpt>
      <trkpt lat="42.94196" lon="1.17559">
        <ele>447</ele>
        <time>2020-06-19T19:42:56Z</time>
      </trkpt>
      <trkpt lat="42.94155" lon="1.17611">
        <ele>444</ele>
        <time>2020-06-19T19:43:06Z</time>
      </trkpt>
      <trkpt lat="42.94109" lon="1.17657">
        <ele>440</ele>
        <time>2020-06-19T19:43:16Z</time>
      </trkpt>
      <trkpt lat="42.94091" lon="1.17672">
        <ele>439</ele>
        <time>2020-06-19T19:43:20Z</time>
      </trkpt>
      <trkpt lat="42.9407" lon="1.17682">
        <ele>438</ele>
        <time>2020-06-19T19:43:24Z</time>
      </trkpt>
      <trkpt lat="42.94048" lon="1.17684">
        <ele>437</ele>
        <time>2020-06-19T19:43:28Z</time>
      </trkpt>
      <trkpt lat="42.9403" lon="1.17679">
        <ele>436</ele>
        <time>2020-06-19T19:43:31Z</time>
      </trkpt>
      <trkpt lat="42.93988" lon="1.17648">
        <ele>442</ele>
        <time>2020-06-19T19:43:40Z</time>
      </trkpt>
      <trkpt lat="42.93929" lon="1.17594">
        <ele>447</ele>
        <time>2020-06-19T19:43:52Z</time>
      </trkpt>
      <trkpt lat="42.93886" lon="1.17562">
        <ele>452</ele>
        <time>2020-06-19T19:44:01Z</time>
      </trkpt>
      <trkpt lat="42.93853" lon="1.17555">
        <ele>452</ele>
        <time>2020-06-19T19:44:07Z</time>
      </trkpt>
      <trkpt lat="42.93829" lon="1.17562">
        <ele>448</ele>
        <time>2020-06-19T19:44:11Z</time>
      </trkpt>
      <trkpt lat="42.93809" lon="1.17575">
        <ele>449</ele>
        <time>2020-06-19T19:44:15Z</time>
      </trkpt>
      <trkpt lat="42.93786" lon="1.17597">
        <ele>450</ele>
        <time>2020-06-19T19:44:20Z</time>
      </trkpt>
      <trkpt lat="42.93777" lon="1.17606">
        <ele>451</ele>
        <time>2020-06-19T19:44:22Z</time>
      </trkpt>
      <trkpt lat="42.93738" lon="1.17643">
        <ele>449</ele>
        <time>2020-06-19T19:44:31Z</time>
      </trkpt>
      <trkpt lat="42.93669" lon="1.1769">
        <ele>450</ele>
        <time>2020-06-19T19:44:44Z</time>
      </trkpt>
      <trkpt lat="42.93642" lon="1.17703">
        <ele>448</ele>
        <time>2020-06-19T19:44:49Z</time>
      </trkpt>
      <trkpt lat="42.93605" lon="1.17712">
        <ele>448</ele>
        <time>2020-06-19T19:44:56Z</time>
      </trkpt>
      <trkpt lat="42.93569" lon="1.17715">
        <ele>450</ele>
        <time>2020-06-19T19:45:03Z</time>
      </trkpt>
      <trkpt lat="42.93425" lon="1.17703">
        <ele>457</ele>
        <time>2020-06-19T19:45:28Z</time>
      </trkpt>
      <trkpt lat="42.93391" lon="1.17702">
        <ele>458</ele>
        <time>2020-06-19T19:45:34Z</time>
      </trkpt>
      <trkpt lat="42.93363" lon="1.17709">
        <ele>455</ele>
        <time>2020-06-19T19:45:39Z</time>
      </trkpt>
      <trkpt lat="42.93275" lon="1.17737">
        <ele>455</ele>
        <time>2020-06-19T19:45:55Z</time>
      </trkpt>
      <trkpt lat="42.93204" lon="1.1781">
        <ele>453</ele>
        <time>2020-06-19T19:46:11Z</time>
      </trkpt>
      <trkpt lat="42.93152" lon="1.17881">
        <ele>449</ele>
        <time>2020-06-19T19:46:24Z</time>
      </trkpt>
      <trkpt lat="42.931" lon="1.17966">
        <ele>444</ele>
        <time>2020-06-19T19:46:39Z</time>
      </trkpt>
      <trkpt lat="42.93063" lon="1.17997">
        <ele>441</ele>
        <time>2020-06-19T19:46:46Z</time>
      </trkpt>
      <trkpt lat="42.93048" lon="1.18013">
        <ele>441</ele>
        <time>2020-06-19T19:46:50Z</time>
      </trkpt>
      <trkpt lat="42.9304" lon="1.18021">
        <ele>442</ele>
        <time>2020-06-19T19:46:52Z</time>
      </trkpt>
      <trkpt lat="42.93023" lon="1.18052">
        <ele>443</ele>
        <time>2020-06-19T19:46:57Z</time>
      </trkpt>
      <trkpt lat="42.93004" lon="1.18093">
        <ele>445</ele>
        <time>2020-06-19T19:47:03Z</time>
      </trkpt>
      <trkpt lat="42.92965" lon="1.18231">
        <ele>453</ele>
        <time>2020-06-19T19:47:22Z</time>
      </trkpt>
      <trkpt lat="42.92945" lon="1.18278">
        <ele>453</ele>
        <time>2020-06-19T19:47:29Z</time>
      </trkpt>
      <trkpt lat="42.9292" lon="1.18311">
        <ele>450</ele>
        <time>2020-06-19T19:47:35Z</time>
      </trkpt>
      <trkpt lat="42.92875" lon="1.18346">
        <ele>450</ele>
        <time>2020-06-19T19:47:45Z</time>
      </trkpt>
      <trkpt lat="42.92837" lon="1.18366">
        <ele>452</ele>
        <time>2020-06-19T19:47:52Z</time>
      </trkpt>
      <trkpt lat="42.9277" lon="1.1839">
        <ele>453</ele>
        <time>2020-06-19T19:48:04Z</time>
      </trkpt>
      <trkpt lat="42.92695" lon="1.18399">
        <ele>459</ele>
        <time>2020-06-19T19:48:18Z</time>
      </trkpt>
      <trkpt lat="42.92661" lon="1.18398">
        <ele>462</ele>
        <time>2020-06-19T19:48:24Z</time>
      </trkpt>
      <trkpt lat="42.92623" lon="1.18385">
        <ele>462</ele>
        <time>2020-06-19T19:48:31Z</time>
      </trkpt>
      <trkpt lat="42.92544" lon="1.18339">
        <ele>462</ele>
        <time>2020-06-19T19:48:46Z</time>
      </trkpt>
      <trkpt lat="42.92476" lon="1.18308">
        <ele>473</ele>
        <time>2020-06-19T19:48:59Z</time>
      </trkpt>
      <trkpt lat="42.92437" lon="1.18311">
        <ele>472</ele>
        <time>2020-06-19T19:49:06Z</time>
      </trkpt>
      <trkpt lat="42.92411" lon="1.18322">
        <ele>469</ele>
        <time>2020-06-19T19:49:11Z</time>
      </trkpt>
      <trkpt lat="42.92398" lon="1.18333">
        <ele>470</ele>
        <time>2020-06-19T19:49:13Z</time>
      </trkpt>
      <trkpt lat="42.92379" lon="1.18363">
        <ele>474</ele>
        <time>2020-06-19T19:49:18Z</time>
      </trkpt>
      <trkpt lat="42.92366" lon="1.18427">
        <ele>469</ele>
        <time>2020-06-19T19:49:27Z</time>
      </trkpt>
      <trkpt lat="42.9236" lon="1.1851">
        <ele>467</ele>
        <time>2020-06-19T19:49:38Z</time>
      </trkpt>
      <trkpt lat="42.92345" lon="1.18591">
        <ele>459</ele>
        <time>2020-06-19T19:49:49Z</time>
      </trkpt>
      <trkpt lat="42.92319" lon="1.18647">
        <ele>462</ele>
        <time>2020-06-19T19:49:57Z</time>
      </trkpt>
      <trkpt lat="42.92282" lon="1.18697">
        <ele>467</ele>
        <time>2020-06-19T19:50:07Z</time>
      </trkpt>
      <trkpt lat="42.92221" lon="1.18745">
        <ele>460</ele>
        <time>2020-06-19T19:50:19Z</time>
      </trkpt>
      <trkpt lat="42.92111" lon="1.18837">
        <ele>459</ele>
        <time>2020-06-19T19:50:42Z</time>
      </trkpt>
      <trkpt lat="42.92086" lon="1.18852">
        <ele>460</ele>
        <time>2020-06-19T19:50:47Z</time>
      </trkpt>
      <trkpt lat="42.92021" lon="1.18879">
        <ele>464</ele>
        <time>2020-06-19T19:50:59Z</time>
      </trkpt>
      <trkpt lat="42.91939" lon="1.18887">
        <ele>474</ele>
        <time>2020-06-19T19:51:14Z</time>
      </trkpt>
      <trkpt lat="42.91898" lon="1.18909">
        <ele>477</ele>
        <time>2020-06-19T19:51:22Z</time>
      </trkpt>
      <trkpt lat="42.91865" lon="1.18946">
        <ele>479</ele>
        <time>2020-06-19T19:51:29Z</time>
      </trkpt>
      <trkpt lat="42.91842" lon="1.1898">
        <ele>475</ele>
        <time>2020-06-19T19:51:35Z</time>
      </trkpt>
      <trkpt lat="42.91822" lon="1.19051">
        <ele>466</ele>
        <time>2020-06-19T19:51:45Z</time>
      </trkpt>
      <trkpt lat="42.91809" lon="1.19133">
        <ele>462</ele>
        <time>2020-06-19T19:51:56Z</time>
      </trkpt>
      <trkpt lat="42.91788" lon="1.19182">
        <ele>464</ele>
        <time>2020-06-19T19:52:03Z</time>
      </trkpt>
      <trkpt lat="42.91764" lon="1.19213">
        <ele>463</ele>
        <time>2020-06-19T19:52:09Z</time>
      </trkpt>
      <trkpt lat="42.91735" lon="1.19231">
        <ele>460</ele>
        <time>2020-06-19T19:52:15Z</time>
      </trkpt>
      <trkpt lat="42.91702" lon="1.19229">
        <ele>461</ele>
        <time>2020-06-19T19:52:21Z</time>
      </trkpt>
      <trkpt lat="42.91574" lon="1.19148">
        <ele>472</ele>
        <time>2020-06-19T19:52:46Z</time>
      </trkpt>
      <trkpt lat="42.91519" lon="1.19131">
        <ele>472</ele>
        <time>2020-06-19T19:52:56Z</time>
      </trkpt>
      <trkpt lat="42.9147" lon="1.19129">
        <ele>473</ele>
        <time>2020-06-19T19:53:05Z</time>
      </trkpt>
      <trkpt lat="42.91434" lon="1.19153">
        <ele>474</ele>
        <time>2020-06-19T19:53:12Z</time>
      </trkpt>
      <trkpt lat="42.91405" lon="1.19187">
        <ele>478</ele>
        <time>2020-06-19T19:53:19Z</time>
      </trkpt>
      <trkpt lat="42.91377" lon="1.19228">
        <ele>484</ele>
        <time>2020-06-19T19:53:26Z</time>
      </trkpt>
      <trkpt lat="42.91352" lon="1.19279">
        <ele>484</ele>
        <time>2020-06-19T19:53:34Z</time>
      </trkpt>
      <trkpt lat="42.91328" lon="1.19365">
        <ele>476</ele>
        <time>2020-06-19T19:53:46Z</time>
      </trkpt>
      <trkpt lat="42.91319" lon="1.1949">
        <ele>474</ele>
        <time>2020-06-19T19:54:02Z</time>
      </trkpt>
      <trkpt lat="42.91318" lon="1.1962">
        <ele>473</ele>
        <time>2020-06-19T19:54:19Z</time>
      </trkpt>
      <trkpt lat="42.91325" lon="1.19716">
        <ele>473</ele>
        <time>2020-06-19T19:54:32Z</time>
      </trkpt>
      <trkpt lat="42.91346" lon="1.19801">
        <ele>477</ele>
        <time>2020-06-19T19:54:44Z</time>
      </trkpt>
      <trkpt lat="42.91373" lon="1.19868">
        <ele>478</ele>
        <time>2020-06-19T19:54:54Z</time>
      </trkpt>
      <trkpt lat="42.91396" lon="1.19915">
        <ele>475</ele>
        <time>2020-06-19T19:55:01Z</time>
      </trkpt>
      <trkpt lat="42.91446" lon="1.20006">
        <ele>484</ele>
        <time>2020-06-19T19:55:16Z</time>
      </trkpt>
      <trkpt lat="42.91515" lon="1.2011">
        <ele>479</ele>
        <time>2020-06-19T19:55:34Z</time>
      </trkpt>
      <trkpt lat="42.91528" lon="1.20149">
        <ele>482</ele>
        <time>2020-06-19T19:55:40Z</time>
      </trkpt>
      <trkpt lat="42.91534" lon="1.2023">
        <ele>483</ele>
        <time>2020-06-19T19:55:50Z</time>
      </trkpt>
      <trkpt lat="42.91533" lon="1.20287">
        <ele>480</ele>
        <time>2020-06-19T19:55:58Z</time>
      </trkpt>
      <trkpt lat="42.91513" lon="1.20339">
        <ele>478</ele>
        <time>2020-06-19T19:56:05Z</time>
      </trkpt>
      <trkpt lat="42.9148" lon="1.20381">
        <ele>479</ele>
        <time>2020-06-19T19:56:13Z</time>
      </trkpt>
      <trkpt lat="42.91441" lon="1.20416">
        <ele>479</ele>
        <time>2020-06-19T19:56:22Z</time>
      </trkpt>
      <trkpt lat="42.9135" lon="1.20464">
        <ele>492</ele>
        <time>2020-06-19T19:56:39Z</time>
      </trkpt>
      <trkpt lat="42.91292" lon="1.20518">
        <ele>488</ele>
        <time>2020-06-19T19:56:51Z</time>
      </trkpt>
      <trkpt lat="42.91252" lon="1.20578">
        <ele>479</ele>
        <time>2020-06-19T19:57:02Z</time>
      </trkpt>
      <trkpt lat="42.91231" lon="1.20616">
        <ele>481</ele>
        <time>2020-06-19T19:57:08Z</time>
      </trkpt>
      <trkpt lat="42.91217" lon="1.20648">
        <ele>483</ele>
        <time>2020-06-19T19:57:13Z</time>
      </trkpt>
      <trkpt lat="42.91199" lon="1.20709">
        <ele>483</ele>
        <time>2020-06-19T19:57:22Z</time>
      </trkpt>
      <trkpt lat="42.9118" lon="1.20761">
        <ele>478</ele>
        <time>2020-06-19T19:57:29Z</time>
      </trkpt>
      <trkpt lat="42.91137" lon="1.20852">
        <ele>482</ele>
        <time>2020-06-19T19:57:43Z</time>
      </trkpt>
      <trkpt lat="42.91097" lon="1.20921">
        <ele>482</ele>
        <time>2020-06-19T19:57:55Z</time>
      </trkpt>
      <trkpt lat="42.91076" lon="1.20972">
        <ele>477</ele>
        <time>2020-06-19T19:58:02Z</time>
      </trkpt>
      <trkpt lat="42.91053" lon="1.21081">
        <ele>484</ele>
        <time>2020-06-19T19:58:17Z</time>
      </trkpt>
      <trkpt lat="42.91032" lon="1.21196">
        <ele>483</ele>
        <time>2020-06-19T19:58:33Z</time>
      </trkpt>
      <trkpt lat="42.91024" lon="1.21259">
        <ele>480</ele>
        <time>2020-06-19T19:58:41Z</time>
      </trkpt>
      <trkpt lat="42.91002" lon="1.21316">
        <ele>473</ele>
        <time>2020-06-19T19:58:49Z</time>
      </trkpt>
      <trkpt lat="42.9098" lon="1.21355">
        <ele>472</ele>
        <time>2020-06-19T19:58:56Z</time>
      </trkpt>
      <trkpt lat="42.90955" lon="1.21374">
        <ele>472</ele>
        <time>2020-06-19T19:59:01Z</time>
      </trkpt>
      <trkpt lat="42.90949" lon="1.21381">
        <ele>472</ele>
        <time>2020-06-19T19:59:02Z</time>
      </trkpt>
      <trkpt lat="42.90926" lon="1.21426">
        <ele>470</ele>
        <time>2020-06-19T19:59:09Z</time>
      </trkpt>
      <trkpt lat="42.90917" lon="1.21433">
        <ele>469</ele>
        <time>2020-06-19T19:59:11Z</time>
      </trkpt>
      <trkpt lat="42.90912" lon="1.21436">
        <ele>470</ele>
        <time>2020-06-19T19:59:12Z</time>
      </trkpt>
      <trkpt lat="42.90906" lon="1.21439">
        <ele>472</ele>
        <time>2020-06-19T19:59:13Z</time>
      </trkpt>
      <trkpt lat="42.90901" lon="1.21438">
        <ele>473</ele>
        <time>2020-06-19T19:59:14Z</time>
      </trkpt>
      <trkpt lat="42.90901" lon="1.21438">
        <ele>473</ele>
        <time>2020-06-19T19:59:14Z</time>
      </trkpt>
      <trkpt lat="42.90897" lon="1.21436">
        <ele>473</ele>
        <time>2020-06-19T19:59:15Z</time>
      </trkpt>
      <trkpt lat="42.90895" lon="1.21436">
        <ele>474</ele>
        <time>2020-06-19T19:59:15Z</time>
      </trkpt>
      <trkpt lat="42.90879" lon="1.21411">
        <ele>475</ele>
        <time>2020-06-19T19:59:20Z</time>
      </trkpt>
      <trkpt lat="42.9087" lon="1.21397">
        <ele>476</ele>
        <time>2020-06-19T19:59:22Z</time>
      </trkpt>
      <trkpt lat="42.90847" lon="1.21378">
        <ele>476</ele>
        <time>2020-06-19T19:59:27Z</time>
      </trkpt>
      <trkpt lat="42.90823" lon="1.21368">
        <ele>476</ele>
        <time>2020-06-19T19:59:31Z</time>
      </trkpt>
      <trkpt lat="42.90809" lon="1.21366">
        <ele>476</ele>
        <time>2020-06-19T19:59:34Z</time>
      </trkpt>
      <trkpt lat="42.90791" lon="1.21368">
        <ele>477</ele>
        <time>2020-06-19T19:59:37Z</time>
      </trkpt>
      <trkpt lat="42.90754" lon="1.21383">
        <ele>482</ele>
        <time>2020-06-19T19:59:44Z</time>
      </trkpt>
      <trkpt lat="42.90736" lon="1.21386">
        <ele>484</ele>
        <time>2020-06-19T19:59:47Z</time>
      </trkpt>
      <trkpt lat="42.90721" lon="1.21384">
        <ele>485</ele>
        <time>2020-06-19T19:59:50Z</time>
      </trkpt>
      <trkpt lat="42.90702" lon="1.21373">
        <ele>484</ele>
        <time>2020-06-19T19:59:54Z</time>
      </trkpt>
      <trkpt lat="42.90685" lon="1.2136">
        <ele>482</ele>
        <time>2020-06-19T19:59:57Z</time>
      </trkpt>
      <trkpt lat="42.90672" lon="1.21344">
        <ele>479.8</ele>
      </trkpt>
      <trkpt lat="42.90648" lon="1.21316">
        <ele>485</ele>
        <time>2020-06-19T20:00:06Z</time>
      </trkpt>
      <trkpt lat="42.90574" lon="1.21198">
        <ele>486</ele>
        <time>2020-06-19T20:00:26Z</time>
      </trkpt>
      <trkpt lat="42.90534" lon="1.21153">
        <ele>488</ele>
        <time>2020-06-19T20:00:35Z</time>
      </trkpt>
      <trkpt lat="42.90487" lon="1.21121">
        <ele>490</ele>
        <time>2020-06-19T20:00:45Z</time>
      </trkpt>
      <trkpt lat="42.9043" lon="1.2111">
        <ele>490</ele>
        <time>2020-06-19T20:00:55Z</time>
      </trkpt>
      <trkpt lat="42.90376" lon="1.21112">
        <ele>487</ele>
        <time>2020-06-19T20:01:04Z</time>
      </trkpt>
      <trkpt lat="42.90334" lon="1.21126">
        <ele>484</ele>
        <time>2020-06-19T20:01:12Z</time>
      </trkpt>
      <trkpt lat="42.90292" lon="1.21151">
        <ele>480</ele>
        <time>2020-06-19T20:01:20Z</time>
      </trkpt>
      <trkpt lat="42.90263" lon="1.21179">
        <ele>476</ele>
        <time>2020-06-19T20:01:27Z</time>
      </trkpt>
      <trkpt lat="42.9019" lon="1.21268">
        <ele>474</ele>
        <time>2020-06-19T20:01:44Z</time>
      </trkpt>
      <trkpt lat="42.90168" lon="1.21289">
        <ele>472</ele>
        <time>2020-06-19T20:01:49Z</time>
      </trkpt>
      <trkpt lat="42.90088" lon="1.21362">
        <ele>472</ele>
        <time>2020-06-19T20:02:06Z</time>
      </trkpt>
      <trkpt lat="42.90028" lon="1.21405">
        <ele>474</ele>
        <time>2020-06-19T20:02:18Z</time>
      </trkpt>
      <trkpt lat="42.89969" lon="1.2143">
        <ele>477</ele>
        <time>2020-06-19T20:02:29Z</time>
      </trkpt>
      <trkpt lat="42.89952" lon="1.21434">
        <ele>478</ele>
        <time>2020-06-19T20:02:32Z</time>
      </trkpt>
      <trkpt lat="42.89934" lon="1.21438">
        <ele>479</ele>
        <time>2020-06-19T20:02:35Z</time>
      </trkpt>
      <trkpt lat="42.89827" lon="1.21459">
        <ele>481</ele>
        <time>2020-06-19T20:02:55Z</time>
      </trkpt>
      <trkpt lat="42.89612" lon="1.21501">
        <ele>483</ele>
        <time>2020-06-19T20:03:33Z</time>
      </trkpt>
      <trkpt lat="42.89397" lon="1.2154">
        <ele>488</ele>
        <time>2020-06-19T20:04:12Z</time>
      </trkpt>
      <trkpt lat="42.89366" lon="1.21544">
        <ele>487</ele>
        <time>2020-06-19T20:04:17Z</time>
      </trkpt>
      <trkpt lat="42.89333" lon="1.21544">
        <ele>485</ele>
        <time>2020-06-19T20:04:23Z</time>
      </trkpt>
      <trkpt lat="42.89303" lon="1.21539">
        <ele>488</ele>
        <time>2020-06-19T20:04:29Z</time>
      </trkpt>
      <trkpt lat="42.89272" lon="1.21527">
        <ele>490</ele>
        <time>2020-06-19T20:04:34Z</time>
      </trkpt>
      <trkpt lat="42.89176" lon="1.21483">
        <ele>488</ele>
        <time>2020-06-19T20:04:52Z</time>
      </trkpt>
      <trkpt lat="42.89149" lon="1.21474">
        <ele>486</ele>
        <time>2020-06-19T20:04:57Z</time>
      </trkpt>
      <trkpt lat="42.89056" lon="1.21475">
        <ele>483</ele>
        <time>2020-06-19T20:05:14Z</time>
      </trkpt>
      <trkpt lat="42.88939" lon="1.21481">
        <ele>485</ele>
        <time>2020-06-19T20:05:35Z</time>
      </trkpt>
      <trkpt lat="42.88729" lon="1.21491">
        <ele>491</ele>
        <time>2020-06-19T20:06:12Z</time>
      </trkpt>
      <trkpt lat="42.88623" lon="1.21497">
        <ele>490</ele>
        <time>2020-06-19T20:06:31Z</time>
      </trkpt>
      <trkpt lat="42.88517" lon="1.21504">
        <ele>491</ele>
        <time>2020-06-19T20:06:50Z</time>
      </trkpt>
      <trkpt lat="42.88479" lon="1.21509">
        <ele>492</ele>
        <time>2020-06-19T20:06:57Z</time>
      </trkpt>
      <trkpt lat="42.88233" lon="1.21571">
        <ele>500</ele>
        <time>2020-06-19T20:07:41Z</time>
      </trkpt>
      <trkpt lat="42.88154" lon="1.21587">
        <ele>500</ele>
        <time>2020-06-19T20:07:55Z</time>
      </trkpt>
      <trkpt lat="42.88111" lon="1.21585">
        <ele>500</ele>
        <time>2020-06-19T20:08:03Z</time>
      </trkpt>
      <trkpt lat="42.88076" lon="1.21578">
        <ele>499</ele>
        <time>2020-06-19T20:08:09Z</time>
      </trkpt>
      <trkpt lat="42.88026" lon="1.21557">
        <ele>496.6</ele>
      </trkpt>
      <trkpt lat="42.88022" lon="1.21539">
        <ele>496</ele>
      </trkpt>
      <trkpt lat="42.88011" lon="1.21533">
        <ele>496</ele>
      </trkpt>
      <trkpt lat="42.87997" lon="1.21539">
        <ele>495</ele>
      </trkpt>
      <trkpt lat="42.87987" lon="1.21535">
        <ele>495</ele>
        <time>2020-06-19T20:08:44Z</time>
      </trkpt>
      <trkpt lat="42.87953" lon="1.21513">
        <ele>494</ele>
        <time>2020-06-19T20:08:51Z</time>
      </trkpt>
      <trkpt lat="42.87865" lon="1.21461">
        <ele>494</ele>
        <time>2020-06-19T20:09:08Z</time>
      </trkpt>
      <trkpt lat="42.87722" lon="1.21376">
        <ele>498</ele>
        <time>2020-06-19T20:09:36Z</time>
      </trkpt>
      <trkpt lat="42.87676" lon="1.21349">
        <ele>499</ele>
        <time>2020-06-19T20:09:44Z</time>
      </trkpt>
      <trkpt lat="42.87542" lon="1.2127">
        <ele>501</ele>
        <time>2020-06-19T20:10:10Z</time>
      </trkpt>
      <trkpt lat="42.87535" lon="1.21266">
        <ele>501</ele>
        <time>2020-06-19T20:10:12Z</time>
      </trkpt>
      <trkpt lat="42.87513" lon="1.21253">
        <ele>500</ele>
        <time>2020-06-19T20:10:16Z</time>
      </trkpt>
      <trkpt lat="42.87507" lon="1.21249">
        <ele>500</ele>
        <time>2020-06-19T20:10:17Z</time>
      </trkpt>
      <trkpt lat="42.87318" lon="1.21138">
        <ele>501</ele>
        <time>2020-06-19T20:10:54Z</time>
      </trkpt>
      <trkpt lat="42.87287" lon="1.21133">
        <ele>502</ele>
        <time>2020-06-19T20:10:59Z</time>
      </trkpt>
      <trkpt lat="42.87261" lon="1.21133">
        <ele>503</ele>
        <time>2020-06-19T20:11:04Z</time>
      </trkpt>
      <trkpt lat="42.87257" lon="1.21133">
        <ele>503</ele>
        <time>2020-06-19T20:11:05Z</time>
      </trkpt>
      <trkpt lat="42.87254" lon="1.21133">
        <ele>504</ele>
        <time>2020-06-19T20:11:05Z</time>
      </trkpt>
      <trkpt lat="42.87228" lon="1.21133">
        <ele>505</ele>
        <time>2020-06-19T20:11:10Z</time>
      </trkpt>
      <trkpt lat="42.87222" lon="1.21133">
        <ele>506</ele>
        <time>2020-06-19T20:11:11Z</time>
      </trkpt>
      <trkpt lat="42.87199" lon="1.21121">
        <ele>506</ele>
        <time>2020-06-19T20:11:15Z</time>
      </trkpt>
      <trkpt lat="42.871" lon="1.21076">
        <ele>505</ele>
        <time>2020-06-19T20:11:34Z</time>
      </trkpt>
      <trkpt lat="42.87051" lon="1.21047">
        <ele>507</ele>
        <time>2020-06-19T20:11:43Z</time>
      </trkpt>
      <trkpt lat="42.87025" lon="1.21033">
        <ele>509</ele>
        <time>2020-06-19T20:11:48Z</time>
      </trkpt>
      <trkpt lat="42.87003" lon="1.21016">
        <ele>510</ele>
        <time>2020-06-19T20:11:53Z</time>
      </trkpt>
      <trkpt lat="42.8697" lon="1.20979">
        <ele>510</ele>
        <time>2020-06-19T20:12:01Z</time>
      </trkpt>
      <trkpt lat="42.8694" lon="1.20937">
        <ele>508</ele>
        <time>2020-06-19T20:12:08Z</time>
      </trkpt>
      <trkpt lat="42.86901" lon="1.20905">
        <ele>508</ele>
        <time>2020-06-19T20:12:16Z</time>
      </trkpt>
      <trkpt lat="42.86858" lon="1.20878">
        <ele>511</ele>
        <time>2020-06-19T20:12:25Z</time>
      </trkpt>
      <trkpt lat="42.86842" lon="1.20862">
        <ele>511</ele>
        <time>2020-06-19T20:12:28Z</time>
      </trkpt>
      <trkpt lat="42.86831" lon="1.2085">
        <ele>511</ele>
        <time>2020-06-19T20:12:31Z</time>
      </trkpt>
      <trkpt lat="42.86832" lon="1.20849">
        <ele>511</ele>
        <time>2020-06-19T20:12:31Z</time>
      </trkpt>
      <trkpt lat="42.86834" lon="1.20844">
        <ele>510</ele>
        <time>2020-06-19T20:12:32Z</time>
      </trkpt>
      <trkpt lat="42.86834" lon="1.20837">
        <ele>509</ele>
        <time>2020-06-19T20:12:33Z</time>
      </trkpt>
      <trkpt lat="42.86832" lon="1.20831">
        <ele>509</ele>
        <time>2020-06-19T20:12:33Z</time>
      </trkpt>
      <trkpt lat="42.8683" lon="1.20828">
        <ele>509</ele>
        <time>2020-06-19T20:12:34Z</time>
      </trkpt>
      <trkpt lat="42.86827" lon="1.20826">
        <ele>509</ele>
        <time>2020-06-19T20:12:35Z</time>
      </trkpt>
      <trkpt lat="42.86821" lon="1.20825">
        <ele>509</ele>
        <time>2020-06-19T20:12:36Z</time>
      </trkpt>
      <trkpt lat="42.86816" lon="1.20829">
        <ele>510</ele>
        <time>2020-06-19T20:12:37Z</time>
      </trkpt>
      <trkpt lat="42.86814" lon="1.20831">
        <ele>510</ele>
        <time>2020-06-19T20:12:37Z</time>
      </trkpt>
      <trkpt lat="42.86798" lon="1.20818">
        <ele>510</ele>
        <time>2020-06-19T20:12:40Z</time>
      </trkpt>
      <trkpt lat="42.86778" lon="1.20794">
        <ele>510</ele>
        <time>2020-06-19T20:12:45Z</time>
      </trkpt>
      <trkpt lat="42.86764" lon="1.20777">
        <ele>509</ele>
        <time>2020-06-19T20:12:49Z</time>
      </trkpt>
      <trkpt lat="42.86755" lon="1.20766">
        <ele>508</ele>
        <time>2020-06-19T20:12:51Z</time>
      </trkpt>
      <trkpt lat="42.86715" lon="1.20714">
        <ele>508</ele>
        <time>2020-06-19T20:13:01Z</time>
      </trkpt>
      <trkpt lat="42.86672" lon="1.20656">
        <ele>506</ele>
        <time>2020-06-19T20:13:11Z</time>
      </trkpt>
      <trkpt lat="42.86637" lon="1.20611">
        <ele>507</ele>
        <time>2020-06-19T20:13:20Z</time>
      </trkpt>
      <trkpt lat="42.86591" lon="1.20552">
        <ele>509</ele>
        <time>2020-06-19T20:13:31Z</time>
      </trkpt>
      <trkpt lat="42.86567" lon="1.2052">
        <ele>509</ele>
        <time>2020-06-19T20:13:37Z</time>
      </trkpt>
      <trkpt lat="42.86544" lon="1.20494">
        <ele>510</ele>
        <time>2020-06-19T20:13:42Z</time>
      </trkpt>
      <trkpt lat="42.86495" lon="1.20443">
        <ele>511</ele>
        <time>2020-06-19T20:13:53Z</time>
      </trkpt>
      <trkpt lat="42.86474" lon="1.20412">
        <ele>511</ele>
        <time>2020-06-19T20:13:59Z</time>
      </trkpt>
      <trkpt lat="42.86433" lon="1.20352">
        <ele>511</ele>
        <time>2020-06-19T20:14:10Z</time>
      </trkpt>
      <trkpt lat="42.86432" lon="1.20351">
        <ele>511</ele>
        <time>2020-06-19T20:14:10Z</time>
      </trkpt>
      <trkpt lat="42.86404" lon="1.20303">
        <ele>511</ele>
        <time>2020-06-19T20:14:18Z</time>
      </trkpt>
      <trkpt lat="42.86382" lon="1.20258">
        <ele>511</ele>
        <time>2020-06-19T20:14:25Z</time>
      </trkpt>
      <trkpt lat="42.86355" lon="1.20193">
        <ele>512</ele>
        <time>2020-06-19T20:14:35Z</time>
      </trkpt>
      <trkpt lat="42.86352" lon="1.20184">
        <ele>512</ele>
        <time>2020-06-19T20:14:36Z</time>
      </trkpt>
      <trkpt lat="42.86346" lon="1.20172">
        <ele>512</ele>
        <time>2020-06-19T20:14:38Z</time>
      </trkpt>
      <trkpt lat="42.86345" lon="1.2017">
        <ele>512</ele>
        <time>2020-06-19T20:14:38Z</time>
      </trkpt>
      <trkpt lat="42.86341" lon="1.20161">
        <ele>512</ele>
        <time>2020-06-19T20:14:39Z</time>
      </trkpt>
      <trkpt lat="42.8634" lon="1.20158">
        <ele>512</ele>
        <time>2020-06-19T20:14:40Z</time>
      </trkpt>
      <trkpt lat="42.86334" lon="1.20147">
        <ele>512</ele>
        <time>2020-06-19T20:14:42Z</time>
      </trkpt>
      <trkpt lat="42.8633" lon="1.20142">
        <ele>512</ele>
        <time>2020-06-19T20:14:43Z</time>
      </trkpt>
      <trkpt lat="42.86292" lon="1.20093">
        <ele>513</ele>
        <time>2020-06-19T20:14:52Z</time>
      </trkpt>
      <trkpt lat="42.8625" lon="1.20047">
        <ele>512</ele>
        <time>2020-06-19T20:15:01Z</time>
      </trkpt>
      <trkpt lat="42.86128" lon="1.19924">
        <ele>513</ele>
        <time>2020-06-19T20:15:28Z</time>
      </trkpt>
      <trkpt lat="42.85993" lon="1.1982">
        <ele>523</ele>
        <time>2020-06-19T20:15:56Z</time>
      </trkpt>
      <trkpt lat="42.85977" lon="1.19811">
        <ele>525</ele>
        <time>2020-06-19T20:15:59Z</time>
      </trkpt>
      <trkpt lat="42.85962" lon="1.19803">
        <ele>526</ele>
        <time>2020-06-19T20:16:02Z</time>
      </trkpt>
      <trkpt lat="42.85928" lon="1.19787">
        <ele>527</ele>
        <time>2020-06-19T20:16:08Z</time>
      </trkpt>
      <trkpt lat="42.85898" lon="1.19777">
        <ele>527</ele>
        <time>2020-06-19T20:16:14Z</time>
      </trkpt>
      <trkpt lat="42.8585" lon="1.19765">
        <ele>527</ele>
        <time>2020-06-19T20:16:23Z</time>
      </trkpt>
      <trkpt lat="42.85718" lon="1.19706">
        <ele>536</ele>
        <time>2020-06-19T20:16:47Z</time>
      </trkpt>
      <trkpt lat="42.85699" lon="1.197">
        <ele>536</ele>
        <time>2020-06-19T20:16:51Z</time>
      </trkpt>
      <trkpt lat="42.85594" lon="1.19677">
        <ele>534</ele>
        <time>2020-06-19T20:17:10Z</time>
      </trkpt>
      <trkpt lat="42.85485" lon="1.19662">
        <ele>542</ele>
        <time>2020-06-19T20:17:29Z</time>
      </trkpt>
      <trkpt lat="42.85463" lon="1.19653">
        <ele>547</ele>
        <time>2020-06-19T20:17:33Z</time>
      </trkpt>
      <trkpt lat="42.85446" lon="1.19639">
        <ele>549</ele>
        <time>2020-06-19T20:17:37Z</time>
      </trkpt>
      <trkpt lat="42.85428" lon="1.19619">
        <ele>548</ele>
        <time>2020-06-19T20:17:41Z</time>
      </trkpt>
      <trkpt lat="42.85408" lon="1.19588">
        <ele>546</ele>
        <time>2020-06-19T20:17:46Z</time>
      </trkpt>
      <trkpt lat="42.85389" lon="1.19556">
        <ele>552</ele>
        <time>2020-06-19T20:17:52Z</time>
      </trkpt>
      <trkpt lat="42.85357" lon="1.19472">
        <ele>551</ele>
        <time>2020-06-19T20:18:04Z</time>
      </trkpt>
      <trkpt lat="42.85344" lon="1.19431">
        <ele>546</ele>
        <time>2020-06-19T20:18:10Z</time>
      </trkpt>
      <trkpt lat="42.85331" lon="1.19397">
        <ele>543</ele>
        <time>2020-06-19T20:18:15Z</time>
      </trkpt>
      <trkpt lat="42.85315" lon="1.19366">
        <ele>545</ele>
        <time>2020-06-19T20:18:20Z</time>
      </trkpt>
      <trkpt lat="42.85298" lon="1.19344">
        <ele>543</ele>
        <time>2020-06-19T20:18:24Z</time>
      </trkpt>
      <trkpt lat="42.85278" lon="1.19327">
        <ele>540</ele>
        <time>2020-06-19T20:18:28Z</time>
      </trkpt>
      <trkpt lat="42.85263" lon="1.19317">
        <ele>539</ele>
        <time>2020-06-19T20:18:31Z</time>
      </trkpt>
      <trkpt lat="42.85244" lon="1.19309">
        <ele>538</ele>
        <time>2020-06-19T20:18:35Z</time>
      </trkpt>
      <trkpt lat="42.85164" lon="1.19291">
        <ele>540</ele>
        <time>2020-06-19T20:18:49Z</time>
      </trkpt>
      <trkpt lat="42.85095" lon="1.19283">
        <ele>539</ele>
        <time>2020-06-19T20:19:01Z</time>
      </trkpt>
      <trkpt lat="42.85023" lon="1.19282">
        <ele>544</ele>
        <time>2020-06-19T20:19:14Z</time>
      </trkpt>
      <trkpt lat="42.8499" lon="1.19274">
        <ele>547</ele>
        <time>2020-06-19T20:19:20Z</time>
      </trkpt>
      <trkpt lat="42.84974" lon="1.19265">
        <ele>549</ele>
        <time>2020-06-19T20:19:23Z</time>
      </trkpt>
      <trkpt lat="42.8496" lon="1.19253">
        <ele>549</ele>
        <time>2020-06-19T20:19:26Z</time>
      </trkpt>
      <trkpt lat="42.8495" lon="1.19237">
        <ele>550</ele>
        <time>2020-06-19T20:19:29Z</time>
      </trkpt>
      <trkpt lat="42.84913" lon="1.19159">
        <ele>542</ele>
        <time>2020-06-19T20:19:41Z</time>
      </trkpt>
      <trkpt lat="42.84906" lon="1.19152">
        <ele>544</ele>
        <time>2020-06-19T20:19:43Z</time>
      </trkpt>
      <trkpt lat="42.849" lon="1.19148">
        <ele>545</ele>
        <time>2020-06-19T20:19:44Z</time>
      </trkpt>
      <trkpt lat="42.84888" lon="1.19148">
        <ele>545</ele>
        <time>2020-06-19T20:19:46Z</time>
      </trkpt>
      <trkpt lat="42.84872" lon="1.19157">
        <ele>543</ele>
        <time>2020-06-19T20:19:49Z</time>
      </trkpt>
      <trkpt lat="42.84835" lon="1.19189">
        <ele>544</ele>
        <time>2020-06-19T20:19:57Z</time>
      </trkpt>
      <trkpt lat="42.84759" lon="1.19254">
        <ele>548</ele>
        <time>2020-06-19T20:20:13Z</time>
      </trkpt>
      <trkpt lat="42.84751" lon="1.19259">
        <ele>550</ele>
        <time>2020-06-19T20:20:14Z</time>
      </trkpt>
      <trkpt lat="42.84742" lon="1.19266">
        <ele>554</ele>
        <time>2020-06-19T20:20:16Z</time>
      </trkpt>
      <trkpt lat="42.84727" lon="1.1927">
        <ele>557</ele>
        <time>2020-06-19T20:20:19Z</time>
      </trkpt>
      <trkpt lat="42.84712" lon="1.19271">
        <ele>558</ele>
        <time>2020-06-19T20:20:22Z</time>
      </trkpt>
      <trkpt lat="42.84689" lon="1.19268">
        <ele>557</ele>
        <time>2020-06-19T20:20:26Z</time>
      </trkpt>
      <trkpt lat="42.84678" lon="1.19264">
        <ele>555</ele>
        <time>2020-06-19T20:20:28Z</time>
      </trkpt>
      <trkpt lat="42.8462" lon="1.19227">
        <ele>550</ele>
        <time>2020-06-19T20:20:39Z</time>
      </trkpt>
      <trkpt lat="42.84601" lon="1.19217">
        <ele>549</ele>
        <time>2020-06-19T20:20:43Z</time>
      </trkpt>
      <trkpt lat="42.84567" lon="1.19208">
        <ele>549</ele>
        <time>2020-06-19T20:20:49Z</time>
      </trkpt>
      <trkpt lat="42.84533" lon="1.19202">
        <ele>548</ele>
        <time>2020-06-19T20:20:55Z</time>
      </trkpt>
      <trkpt lat="42.8451" lon="1.19201">
        <ele>548</ele>
        <time>2020-06-19T20:20:59Z</time>
      </trkpt>
      <trkpt lat="42.84456" lon="1.19205">
        <ele>549</ele>
        <time>2020-06-19T20:21:09Z</time>
      </trkpt>
      <trkpt lat="42.84437" lon="1.19201">
        <ele>548</ele>
        <time>2020-06-19T20:21:12Z</time>
      </trkpt>
      <trkpt lat="42.84362" lon="1.19162">
        <ele>547</ele>
        <time>2020-06-19T20:21:26Z</time>
      </trkpt>
      <trkpt lat="42.84332" lon="1.19143">
        <ele>549</ele>
        <time>2020-06-19T20:21:32Z</time>
      </trkpt>
      <trkpt lat="42.84294" lon="1.19109">
        <ele>547</ele>
        <time>2020-06-19T20:21:40Z</time>
      </trkpt>
      <trkpt lat="42.84287" lon="1.19105">
        <ele>547</ele>
        <time>2020-06-19T20:21:42Z</time>
      </trkpt>
      <trkpt lat="42.84279" lon="1.19104">
        <ele>547</ele>
        <time>2020-06-19T20:21:43Z</time>
      </trkpt>
      <trkpt lat="42.84266" lon="1.19106">
        <ele>548</ele>
        <time>2020-06-19T20:21:45Z</time>
      </trkpt>
      <trkpt lat="42.84246" lon="1.19116">
        <ele>550</ele>
        <time>2020-06-19T20:21:49Z</time>
      </trkpt>
      <trkpt lat="42.84235" lon="1.19125">
        <ele>554</ele>
        <time>2020-06-19T20:21:52Z</time>
      </trkpt>
      <trkpt lat="42.84224" lon="1.19143">
        <ele>556</ele>
        <time>2020-06-19T20:21:55Z</time>
      </trkpt>
      <trkpt lat="42.84175" lon="1.1928">
        <ele>563</ele>
        <time>2020-06-19T20:22:15Z</time>
      </trkpt>
      <trkpt lat="42.84163" lon="1.19307">
        <ele>565</ele>
        <time>2020-06-19T20:22:19Z</time>
      </trkpt>
      <trkpt lat="42.84146" lon="1.19334">
        <ele>566</ele>
        <time>2020-06-19T20:22:23Z</time>
      </trkpt>
      <trkpt lat="42.83971" lon="1.19557">
        <ele>565</ele>
        <time>2020-06-19T20:23:06Z</time>
      </trkpt>
      <trkpt lat="42.83944" lon="1.19588">
        <ele>563</ele>
        <time>2020-06-19T20:23:12Z</time>
      </trkpt>
      <trkpt lat="42.83922" lon="1.19618">
        <ele>561</ele>
        <time>2020-06-19T20:23:18Z</time>
      </trkpt>
      <trkpt lat="42.83914" lon="1.19642">
        <ele>560</ele>
        <time>2020-06-19T20:23:21Z</time>
      </trkpt>
      <trkpt lat="42.83892" lon="1.19739">
        <ele>564</ele>
        <time>2020-06-19T20:23:34Z</time>
      </trkpt>
      <trkpt lat="42.83878" lon="1.19794">
        <ele>566</ele>
        <time>2020-06-19T20:23:42Z</time>
      </trkpt>
      <trkpt lat="42.8387" lon="1.19814">
        <ele>565</ele>
        <time>2020-06-19T20:23:45Z</time>
      </trkpt>
      <trkpt lat="42.83856" lon="1.19839">
        <ele>565</ele>
        <time>2020-06-19T20:23:49Z</time>
      </trkpt>
      <trkpt lat="42.83842" lon="1.19844">
        <ele>565</ele>
        <time>2020-06-19T20:23:52Z</time>
      </trkpt>
      <trkpt lat="42.83807" lon="1.19831">
        <ele>563</ele>
        <time>2020-06-19T20:23:58Z</time>
      </trkpt>
      <trkpt lat="42.83771" lon="1.19809">
        <ele>570</ele>
        <time>2020-06-19T20:24:05Z</time>
      </trkpt>
      <trkpt lat="42.8376" lon="1.19806">
        <ele>572</ele>
        <time>2020-06-19T20:24:07Z</time>
      </trkpt>
      <trkpt lat="42.83746" lon="1.19806">
        <ele>573</ele>
        <time>2020-06-19T20:24:10Z</time>
      </trkpt>
      <trkpt lat="42.83631" lon="1.19831">
        <ele>584</ele>
        <time>2020-06-19T20:24:30Z</time>
      </trkpt>
      <trkpt lat="42.83615" lon="1.19832">
        <ele>589</ele>
        <time>2020-06-19T20:24:33Z</time>
      </trkpt>
      <trkpt lat="42.83602" lon="1.19827">
        <ele>592</ele>
        <time>2020-06-19T20:24:36Z</time>
      </trkpt>
      <trkpt lat="42.83583" lon="1.19809">
        <ele>594</ele>
        <time>2020-06-19T20:24:40Z</time>
      </trkpt>
      <trkpt lat="42.83577" lon="1.19795">
        <ele>593</ele>
        <time>2020-06-19T20:24:42Z</time>
      </trkpt>
      <trkpt lat="42.83573" lon="1.19773">
        <ele>589</ele>
        <time>2020-06-19T20:24:45Z</time>
      </trkpt>
      <trkpt lat="42.83572" lon="1.19753">
        <ele>584</ele>
        <time>2020-06-19T20:24:47Z</time>
      </trkpt>
      <trkpt lat="42.83579" lon="1.1966">
        <ele>575</ele>
        <time>2020-06-19T20:25:00Z</time>
      </trkpt>
      <trkpt lat="42.83579" lon="1.19642">
        <ele>574</ele>
        <time>2020-06-19T20:25:02Z</time>
      </trkpt>
      <trkpt lat="42.83574" lon="1.19626">
        <ele>574</ele>
        <time>2020-06-19T20:25:04Z</time>
      </trkpt>
      <trkpt lat="42.83568" lon="1.19613">
        <ele>573</ele>
        <time>2020-06-19T20:25:06Z</time>
      </trkpt>
      <trkpt lat="42.8356" lon="1.19607">
        <ele>572</ele>
        <time>2020-06-19T20:25:08Z</time>
      </trkpt>
      <trkpt lat="42.8355" lon="1.19607">
        <ele>572</ele>
        <time>2020-06-19T20:25:10Z</time>
      </trkpt>
      <trkpt lat="42.83499" lon="1.19616">
        <ele>570</ele>
        <time>2020-06-19T20:25:19Z</time>
      </trkpt>
      <trkpt lat="42.83485" lon="1.19621">
        <ele>573</ele>
        <time>2020-06-19T20:25:21Z</time>
      </trkpt>
      <trkpt lat="42.83474" lon="1.19633">
        <ele>575</ele>
        <time>2020-06-19T20:25:24Z</time>
      </trkpt>
      <trkpt lat="42.83466" lon="1.19647">
        <ele>574</ele>
        <time>2020-06-19T20:25:26Z</time>
      </trkpt>
      <trkpt lat="42.83446" lon="1.19706">
        <ele>576</ele>
        <time>2020-06-19T20:25:35Z</time>
      </trkpt>
      <trkpt lat="42.83432" lon="1.19738">
        <ele>575</ele>
        <time>2020-06-19T20:25:39Z</time>
      </trkpt>
      <trkpt lat="42.83417" lon="1.19766">
        <ele>578</ele>
        <time>2020-06-19T20:25:44Z</time>
      </trkpt>
      <trkpt lat="42.834" lon="1.19784">
        <ele>584</ele>
        <time>2020-06-19T20:25:48Z</time>
      </trkpt>
      <trkpt lat="42.83368" lon="1.19806">
        <ele>586</ele>
        <time>2020-06-19T20:25:54Z</time>
      </trkpt>
      <trkpt lat="42.83352" lon="1.19813">
        <ele>583</ele>
        <time>2020-06-19T20:25:57Z</time>
      </trkpt>
      <trkpt lat="42.83303" lon="1.19826">
        <ele>577</ele>
        <time>2020-06-19T20:26:06Z</time>
      </trkpt>
      <trkpt lat="42.83244" lon="1.19831">
        <ele>573</ele>
        <time>2020-06-19T20:26:17Z</time>
      </trkpt>
      <trkpt lat="42.83213" lon="1.19837">
        <ele>575</ele>
        <time>2020-06-19T20:26:22Z</time>
      </trkpt>
      <trkpt lat="42.83202" lon="1.19847">
        <ele>577</ele>
        <time>2020-06-19T20:26:25Z</time>
      </trkpt>
      <trkpt lat="42.83188" lon="1.19851">
        <ele>578</ele>
        <time>2020-06-19T20:26:27Z</time>
      </trkpt>
      <trkpt lat="42.83202" lon="1.19847">
        <ele>577</ele>
        <time>2020-06-19T20:26:30Z</time>
      </trkpt>
      <trkpt lat="42.83202" lon="1.19864">
        <ele>579</ele>
        <time>2020-06-19T20:26:32Z</time>
      </trkpt>
      <trkpt lat="42.83209" lon="1.19898">
        <ele>583</ele>
        <time>2020-06-19T20:26:36Z</time>
      </trkpt>
      <trkpt lat="42.83222" lon="1.19926">
        <ele>587</ele>
        <time>2020-06-19T20:26:41Z</time>
      </trkpt>
      <trkpt lat="42.83249" lon="1.19966">
        <ele>587</ele>
        <time>2020-06-19T20:26:48Z</time>
      </trkpt>
      <trkpt lat="42.83264" lon="1.19997">
        <ele>595</ele>
        <time>2020-06-19T20:26:53Z</time>
      </trkpt>
      <trkpt lat="42.83271" lon="1.20014">
        <ele>600</ele>
        <time>2020-06-19T20:26:55Z</time>
      </trkpt>
      <trkpt lat="42.83275" lon="1.20032">
        <ele>602</ele>
        <time>2020-06-19T20:26:58Z</time>
      </trkpt>
      <trkpt lat="42.83277" lon="1.2005">
        <ele>603</ele>
        <time>2020-06-19T20:27:00Z</time>
      </trkpt>
      <trkpt lat="42.83277" lon="1.20069">
        <ele>603</ele>
        <time>2020-06-19T20:27:03Z</time>
      </trkpt>
      <trkpt lat="42.83272" lon="1.20106">
        <ele>601</ele>
        <time>2020-06-19T20:27:07Z</time>
      </trkpt>
      <trkpt lat="42.83227" lon="1.20253">
        <ele>602</ele>
        <time>2020-06-19T20:27:28Z</time>
      </trkpt>
      <trkpt lat="42.8322" lon="1.20305">
        <ele>603</ele>
        <time>2020-06-19T20:27:35Z</time>
      </trkpt>
      <trkpt lat="42.83218" lon="1.20358">
        <ele>603</ele>
        <time>2020-06-19T20:27:42Z</time>
      </trkpt>
      <trkpt lat="42.83218" lon="1.20416">
        <ele>604</ele>
        <time>2020-06-19T20:27:50Z</time>
      </trkpt>
      <trkpt lat="42.83222" lon="1.20474">
        <ele>606</ele>
        <time>2020-06-19T20:27:57Z</time>
      </trkpt>
      <trkpt lat="42.8323" lon="1.20515">
        <ele>605</ele>
        <time>2020-06-19T20:28:03Z</time>
      </trkpt>
      <trkpt lat="42.83244" lon="1.20552">
        <ele>599</ele>
        <time>2020-06-19T20:28:08Z</time>
      </trkpt>
      <trkpt lat="42.83273" lon="1.20599">
        <ele>603</ele>
        <time>2020-06-19T20:28:16Z</time>
      </trkpt>
      <trkpt lat="42.83306" lon="1.2064">
        <ele>606</ele>
        <time>2020-06-19T20:28:24Z</time>
      </trkpt>
      <trkpt lat="42.83401" lon="1.20747">
        <ele>607</ele>
        <time>2020-06-19T20:28:46Z</time>
      </trkpt>
      <trkpt lat="42.8341" lon="1.2076">
        <ele>605</ele>
        <time>2020-06-19T20:28:48Z</time>
      </trkpt>
      <trkpt lat="42.83416" lon="1.20774">
        <ele>603</ele>
        <time>2020-06-19T20:28:51Z</time>
      </trkpt>
      <trkpt lat="42.83419" lon="1.20792">
        <ele>602</ele>
        <time>2020-06-19T20:28:53Z</time>
      </trkpt>
      <trkpt lat="42.8342" lon="1.20811">
        <ele>600</ele>
        <time>2020-06-19T20:28:55Z</time>
      </trkpt>
      <trkpt lat="42.83416" lon="1.20829">
        <ele>598</ele>
        <time>2020-06-19T20:28:58Z</time>
      </trkpt>
      <trkpt lat="42.83411" lon="1.20843">
        <ele>599</ele>
        <time>2020-06-19T20:29:00Z</time>
      </trkpt>
      <trkpt lat="42.834" lon="1.20859">
        <ele>601</ele>
        <time>2020-06-19T20:29:03Z</time>
      </trkpt>
      <trkpt lat="42.8333" lon="1.20932">
        <ele>599</ele>
        <time>2020-06-19T20:29:18Z</time>
      </trkpt>
      <trkpt lat="42.83303" lon="1.20964">
        <ele>610</ele>
        <time>2020-06-19T20:29:25Z</time>
      </trkpt>
      <trkpt lat="42.83281" lon="1.21044">
        <ele>606</ele>
        <time>2020-06-19T20:29:36Z</time>
      </trkpt>
      <trkpt lat="42.83271" lon="1.21108">
        <ele>599</ele>
        <time>2020-06-19T20:29:45Z</time>
      </trkpt>
      <trkpt lat="42.83269" lon="1.21176">
        <ele>596</ele>
        <time>2020-06-19T20:29:53Z</time>
      </trkpt>
      <trkpt lat="42.8327" lon="1.21325">
        <ele>605</ele>
        <time>2020-06-19T20:30:13Z</time>
      </trkpt>
      <trkpt lat="42.83266" lon="1.21339">
        <ele>605</ele>
        <time>2020-06-19T20:30:15Z</time>
      </trkpt>
      <trkpt lat="42.83262" lon="1.21345">
        <ele>604</ele>
        <time>2020-06-19T20:30:16Z</time>
      </trkpt>
      <trkpt lat="42.83241" lon="1.21368">
        <ele>603</ele>
        <time>2020-06-19T20:30:21Z</time>
      </trkpt>
      <trkpt lat="42.83229" lon="1.21389">
        <ele>608</ele>
        <time>2020-06-19T20:30:24Z</time>
      </trkpt>
      <trkpt lat="42.83189" lon="1.21484">
        <ele>618</ele>
        <time>2020-06-19T20:30:38Z</time>
      </trkpt>
      <trkpt lat="42.83179" lon="1.21531">
        <ele>624</ele>
        <time>2020-06-19T20:30:45Z</time>
      </trkpt>
      <trkpt lat="42.83177" lon="1.21557">
        <ele>627</ele>
        <time>2020-06-19T20:30:48Z</time>
      </trkpt>
      <trkpt lat="42.83179" lon="1.21605">
        <ele>631</ele>
        <time>2020-06-19T20:30:54Z</time>
      </trkpt>
      <trkpt lat="42.83197" lon="1.21667">
        <ele>628</ele>
        <time>2020-06-19T20:31:03Z</time>
      </trkpt>
      <trkpt lat="42.83204" lon="1.21688">
        <ele>625</ele>
        <time>2020-06-19T20:31:06Z</time>
      </trkpt>
      <trkpt lat="42.83208" lon="1.21704">
        <ele>623</ele>
        <time>2020-06-19T20:31:08Z</time>
      </trkpt>
      <trkpt lat="42.83208" lon="1.2172">
        <ele>623</ele>
        <time>2020-06-19T20:31:10Z</time>
      </trkpt>
      <trkpt lat="42.83207" lon="1.21735">
        <ele>623</ele>
        <time>2020-06-19T20:31:12Z</time>
      </trkpt>
      <trkpt lat="42.83202" lon="1.2175">
        <ele>623</ele>
        <time>2020-06-19T20:31:15Z</time>
      </trkpt>
      <trkpt lat="42.83194" lon="1.21765">
        <ele>624</ele>
        <time>2020-06-19T20:31:17Z</time>
      </trkpt>
      <trkpt lat="42.83172" lon="1.21794">
        <ele>623</ele>
        <time>2020-06-19T20:31:22Z</time>
      </trkpt>
      <trkpt lat="42.83164" lon="1.21811">
        <ele>622</ele>
        <time>2020-06-19T20:31:25Z</time>
      </trkpt>
      <trkpt lat="42.83158" lon="1.21831">
        <ele>622</ele>
        <time>2020-06-19T20:31:28Z</time>
      </trkpt>
      <trkpt lat="42.83149" lon="1.21881">
        <ele>619</ele>
        <time>2020-06-19T20:31:35Z</time>
      </trkpt>
      <trkpt lat="42.83144" lon="1.21898">
        <ele>617</ele>
        <time>2020-06-19T20:31:37Z</time>
      </trkpt>
      <trkpt lat="42.83136" lon="1.2191">
        <ele>617</ele>
        <time>2020-06-19T20:31:39Z</time>
      </trkpt>
      <trkpt lat="42.83126" lon="1.2192">
        <ele>617</ele>
        <time>2020-06-19T20:31:41Z</time>
      </trkpt>
      <trkpt lat="42.83113" lon="1.21925">
        <ele>620</ele>
        <time>2020-06-19T20:31:44Z</time>
      </trkpt>
      <trkpt lat="42.83099" lon="1.21925">
        <ele>622</ele>
        <time>2020-06-19T20:31:46Z</time>
      </trkpt>
      <trkpt lat="42.83074" lon="1.21917">
        <ele>631</ele>
        <time>2020-06-19T20:31:51Z</time>
      </trkpt>
      <trkpt lat="42.83062" lon="1.21916">
        <ele>638</ele>
        <time>2020-06-19T20:31:53Z</time>
      </trkpt>
      <trkpt lat="42.83048" lon="1.2192">
        <ele>645</ele>
        <time>2020-06-19T20:31:56Z</time>
      </trkpt>
      <trkpt lat="42.83039" lon="1.21932">
        <ele>646</ele>
        <time>2020-06-19T20:31:58Z</time>
      </trkpt>
      <trkpt lat="42.83028" lon="1.21951">
        <ele>646</ele>
        <time>2020-06-19T20:32:01Z</time>
      </trkpt>
      <trkpt lat="42.83019" lon="1.21977">
        <ele>641</ele>
        <time>2020-06-19T20:32:05Z</time>
      </trkpt>
      <trkpt lat="42.83011" lon="1.22073">
        <ele>629</ele>
        <time>2020-06-19T20:32:17Z</time>
      </trkpt>
      <trkpt lat="42.83005" lon="1.22198">
        <ele>624</ele>
        <time>2020-06-19T20:32:34Z</time>
      </trkpt>
      <trkpt lat="42.83002" lon="1.22217">
        <ele>624</ele>
        <time>2020-06-19T20:32:36Z</time>
      </trkpt>
      <trkpt lat="42.82974" lon="1.22282">
        <ele>636</ele>
        <time>2020-06-19T20:32:46Z</time>
      </trkpt>
      <trkpt lat="42.82968" lon="1.22309">
        <ele>638</ele>
        <time>2020-06-19T20:32:50Z</time>
      </trkpt>
      <trkpt lat="42.82982" lon="1.22479">
        <ele>636</ele>
        <time>2020-06-19T20:33:12Z</time>
      </trkpt>
      <trkpt lat="42.82983" lon="1.22516">
        <ele>638</ele>
        <time>2020-06-19T20:33:17Z</time>
      </trkpt>
      <trkpt lat="42.82981" lon="1.22536">
        <ele>639</ele>
        <time>2020-06-19T20:33:19Z</time>
      </trkpt>
      <trkpt lat="42.82976" lon="1.22558">
        <ele>640</ele>
        <time>2020-06-19T20:33:22Z</time>
      </trkpt>
      <trkpt lat="42.82968" lon="1.22582">
        <ele>640</ele>
        <time>2020-06-19T20:33:26Z</time>
      </trkpt>
      <trkpt lat="42.82958" lon="1.22601">
        <ele>640</ele>
        <time>2020-06-19T20:33:29Z</time>
      </trkpt>
      <trkpt lat="42.82933" lon="1.22632">
        <ele>637</ele>
        <time>2020-06-19T20:33:35Z</time>
      </trkpt>
      <trkpt lat="42.82926" lon="1.2264">
        <ele>635</ele>
        <time>2020-06-19T20:33:37Z</time>
      </trkpt>
      <trkpt lat="42.82866" lon="1.22749">
        <ele>638</ele>
        <time>2020-06-19T20:33:54Z</time>
      </trkpt>
      <trkpt lat="42.82843" lon="1.22785">
        <ele>638</ele>
        <time>2020-06-19T20:34:01Z</time>
      </trkpt>
      <trkpt lat="42.82807" lon="1.22809">
        <ele>639</ele>
        <time>2020-06-19T20:34:08Z</time>
      </trkpt>
      <trkpt lat="42.82794" lon="1.2282">
        <ele>640</ele>
        <time>2020-06-19T20:34:10Z</time>
      </trkpt>
      <trkpt lat="42.82781" lon="1.22835">
        <ele>640</ele>
        <time>2020-06-19T20:34:13Z</time>
      </trkpt>
      <trkpt lat="42.82767" lon="1.22881">
        <ele>640</ele>
        <time>2020-06-19T20:34:20Z</time>
      </trkpt>
      <trkpt lat="42.82751" lon="1.22969">
        <ele>639</ele>
        <time>2020-06-19T20:34:32Z</time>
      </trkpt>
      <trkpt lat="42.82745" lon="1.22992">
        <ele>640</ele>
        <time>2020-06-19T20:34:35Z</time>
      </trkpt>
      <trkpt lat="42.82737" lon="1.23009">
        <ele>643</ele>
        <time>2020-06-19T20:34:38Z</time>
      </trkpt>
      <trkpt lat="42.82726" lon="1.23027">
        <ele>646</ele>
        <time>2020-06-19T20:34:41Z</time>
      </trkpt>
      <trkpt lat="42.82715" lon="1.23041">
        <ele>648</ele>
        <time>2020-06-19T20:34:43Z</time>
      </trkpt>
      <trkpt lat="42.82702" lon="1.23052">
        <ele>648</ele>
        <time>2020-06-19T20:34:46Z</time>
      </trkpt>
      <trkpt lat="42.82672" lon="1.23072">
        <ele>647</ele>
        <time>2020-06-19T20:34:52Z</time>
      </trkpt>
      <trkpt lat="42.82661" lon="1.23083">
        <ele>647</ele>
        <time>2020-06-19T20:34:54Z</time>
      </trkpt>
      <trkpt lat="42.82649" lon="1.231">
        <ele>649</ele>
        <time>2020-06-19T20:34:58Z</time>
      </trkpt>
      <trkpt lat="42.82617" lon="1.23165">
        <ele>651</ele>
        <time>2020-06-19T20:35:08Z</time>
      </trkpt>
      <trkpt lat="42.82609" lon="1.23178">
        <ele>651</ele>
        <time>2020-06-19T20:35:10Z</time>
      </trkpt>
      <trkpt lat="42.826" lon="1.23187">
        <ele>651</ele>
        <time>2020-06-19T20:35:12Z</time>
      </trkpt>
      <trkpt lat="42.82578" lon="1.23202">
        <ele>649</ele>
        <time>2020-06-19T20:35:16Z</time>
      </trkpt>
      <trkpt lat="42.82565" lon="1.23205">
        <ele>649</ele>
        <time>2020-06-19T20:35:19Z</time>
      </trkpt>
      <trkpt lat="42.82525" lon="1.23201">
        <ele>651</ele>
        <time>2020-06-19T20:35:26Z</time>
      </trkpt>
      <trkpt lat="42.82515" lon="1.23203">
        <ele>651</ele>
        <time>2020-06-19T20:35:28Z</time>
      </trkpt>
      <trkpt lat="42.82505" lon="1.23209">
        <ele>651</ele>
        <time>2020-06-19T20:35:30Z</time>
      </trkpt>
      <trkpt lat="42.82494" lon="1.23222">
        <ele>650</ele>
        <time>2020-06-19T20:35:32Z</time>
      </trkpt>
      <trkpt lat="42.82446" lon="1.23321">
        <ele>648</ele>
        <time>2020-06-19T20:35:48Z</time>
      </trkpt>
      <trkpt lat="42.82408" lon="1.23393">
        <ele>649</ele>
        <time>2020-06-19T20:35:59Z</time>
      </trkpt>
      <trkpt lat="42.82383" lon="1.23434">
        <ele>653</ele>
        <time>2020-06-19T20:36:06Z</time>
      </trkpt>
      <trkpt lat="42.82354" lon="1.23474">
        <ele>654</ele>
        <time>2020-06-19T20:36:14Z</time>
      </trkpt>
      <trkpt lat="42.82281" lon="1.23538">
        <ele>658</ele>
        <time>2020-06-19T20:36:29Z</time>
      </trkpt>
      <trkpt lat="42.82226" lon="1.23596">
        <ele>660</ele>
        <time>2020-06-19T20:36:41Z</time>
      </trkpt>
      <trkpt lat="42.82136" lon="1.23798">
        <ele>656</ele>
        <time>2020-06-19T20:37:12Z</time>
      </trkpt>
      <trkpt lat="42.82084" lon="1.23924">
        <ele>654</ele>
        <time>2020-06-19T20:37:31Z</time>
      </trkpt>
      <trkpt lat="42.82055" lon="1.23985">
        <ele>657</ele>
        <time>2020-06-19T20:37:41Z</time>
      </trkpt>
      <trkpt lat="42.81995" lon="1.24068">
        <ele>658</ele>
        <time>2020-06-19T20:37:56Z</time>
      </trkpt>
      <trkpt lat="42.81829" lon="1.24259">
        <ele>664</ele>
        <time>2020-06-19T20:38:34Z</time>
      </trkpt>
      <trkpt lat="42.81738" lon="1.24401">
        <ele>669</ele>
        <time>2020-06-19T20:38:59Z</time>
      </trkpt>
      <trkpt lat="42.81672" lon="1.24508">
        <ele>674</ele>
        <time>2020-06-19T20:39:17Z</time>
      </trkpt>
      <trkpt lat="42.81645" lon="1.24566">
        <ele>674</ele>
        <time>2020-06-19T20:39:26Z</time>
      </trkpt>
      <trkpt lat="42.81628" lon="1.24631">
        <ele>673</ele>
        <time>2020-06-19T20:39:35Z</time>
      </trkpt>
      <trkpt lat="42.81596" lon="1.24799">
        <ele>671</ele>
        <time>2020-06-19T20:39:58Z</time>
      </trkpt>
      <trkpt lat="42.81587" lon="1.24831">
        <ele>670</ele>
        <time>2020-06-19T20:40:02Z</time>
      </trkpt>
      <trkpt lat="42.81572" lon="1.24849">
        <ele>671</ele>
        <time>2020-06-19T20:40:06Z</time>
      </trkpt>
      <trkpt lat="42.81546" lon="1.24869">
        <ele>675</ele>
        <time>2020-06-19T20:40:11Z</time>
      </trkpt>
      <trkpt lat="42.81521" lon="1.249">
        <ele>677</ele>
        <time>2020-06-19T20:40:17Z</time>
      </trkpt>
      <trkpt lat="42.8151" lon="1.24917">
        <ele>678</ele>
        <time>2020-06-19T20:40:20Z</time>
      </trkpt>
      <trkpt lat="42.81501" lon="1.24941">
        <ele>678</ele>
        <time>2020-06-19T20:40:24Z</time>
      </trkpt>
      <trkpt lat="42.81497" lon="1.2496">
        <ele>678</ele>
        <time>2020-06-19T20:40:26Z</time>
      </trkpt>
      <trkpt lat="42.81497" lon="1.25037">
        <ele>675</ele>
        <time>2020-06-19T20:40:36Z</time>
      </trkpt>
      <trkpt lat="42.81494" lon="1.25075">
        <ele>675</ele>
        <time>2020-06-19T20:40:41Z</time>
      </trkpt>
      <trkpt lat="42.81489" lon="1.25105">
        <ele>674</ele>
        <time>2020-06-19T20:40:45Z</time>
      </trkpt>
      <trkpt lat="42.8148" lon="1.25135">
        <ele>674</ele>
        <time>2020-06-19T20:40:50Z</time>
      </trkpt>
      <trkpt lat="42.81437" lon="1.25189">
        <ele>677</ele>
        <time>2020-06-19T20:41:00Z</time>
      </trkpt>
      <trkpt lat="42.81356" lon="1.25282">
        <ele>677</ele>
        <time>2020-06-19T20:41:19Z</time>
      </trkpt>
      <trkpt lat="42.81337" lon="1.25292">
        <ele>677</ele>
        <time>2020-06-19T20:41:22Z</time>
      </trkpt>
      <trkpt lat="42.81274" lon="1.25318">
        <ele>681</ele>
        <time>2020-06-19T20:41:34Z</time>
      </trkpt>
      <trkpt lat="42.81209" lon="1.25381">
        <ele>690</ele>
        <time>2020-06-19T20:41:48Z</time>
      </trkpt>
      <trkpt lat="42.81136" lon="1.25494">
        <ele>686</ele>
        <time>2020-06-19T20:42:08Z</time>
      </trkpt>
      <trkpt lat="42.81056" lon="1.2565">
        <ele>682</ele>
        <time>2020-06-19T20:42:33Z</time>
      </trkpt>
      <trkpt lat="42.81022" lon="1.25709">
        <ele>683</ele>
        <time>2020-06-19T20:42:43Z</time>
      </trkpt>
      <trkpt lat="42.8101" lon="1.25742">
        <ele>682</ele>
        <time>2020-06-19T20:42:47Z</time>
      </trkpt>
      <trkpt lat="42.81004" lon="1.25751">
        <ele>683</ele>
        <time>2020-06-19T20:42:49Z</time>
      </trkpt>
      <trkpt lat="42.80999" lon="1.25759">
        <ele>683</ele>
        <time>2020-06-19T20:42:50Z</time>
      </trkpt>
      <trkpt lat="42.8098" lon="1.2577">
        <ele>684</ele>
        <time>2020-06-19T20:42:54Z</time>
      </trkpt>
      <trkpt lat="42.80907" lon="1.25831">
        <ele>687</ele>
        <time>2020-06-19T20:43:09Z</time>
      </trkpt>
      <trkpt lat="42.80863" lon="1.25882">
        <ele>687</ele>
        <time>2020-06-19T20:43:20Z</time>
      </trkpt>
      <trkpt lat="42.80855" lon="1.2589">
        <ele>687</ele>
        <time>2020-06-19T20:43:21Z</time>
      </trkpt>
      <trkpt lat="42.80827" lon="1.25917">
        <ele>689</ele>
        <time>2020-06-19T20:43:27Z</time>
      </trkpt>
      <trkpt lat="42.80817" lon="1.25931">
        <ele>691</ele>
        <time>2020-06-19T20:43:30Z</time>
      </trkpt>
      <trkpt lat="42.80805" lon="1.25953">
        <ele>694</ele>
        <time>2020-06-19T20:43:34Z</time>
      </trkpt>
      <trkpt lat="42.8078" lon="1.26011">
        <ele>697</ele>
        <time>2020-06-19T20:43:42Z</time>
      </trkpt>
      <trkpt lat="42.80704" lon="1.26156">
        <ele>710</ele>
        <time>2020-06-19T20:44:06Z</time>
      </trkpt>
      <trkpt lat="42.8068" lon="1.26214">
        <ele>706</ele>
        <time>2020-06-19T20:44:14Z</time>
      </trkpt>
      <trkpt lat="42.80671" lon="1.2623">
        <ele>705</ele>
        <time>2020-06-19T20:44:17Z</time>
      </trkpt>
      <trkpt lat="42.80648" lon="1.26254">
        <ele>708</ele>
        <time>2020-06-19T20:44:22Z</time>
      </trkpt>
      <trkpt lat="42.80631" lon="1.26275">
        <ele>711</ele>
        <time>2020-06-19T20:44:26Z</time>
      </trkpt>
      <trkpt lat="42.80615" lon="1.26298">
        <ele>711</ele>
        <time>2020-06-19T20:44:30Z</time>
      </trkpt>
      <trkpt lat="42.80589" lon="1.26344">
        <ele>708</ele>
        <time>2020-06-19T20:44:38Z</time>
      </trkpt>
      <trkpt lat="42.80561" lon="1.26407">
        <ele>707</ele>
        <time>2020-06-19T20:44:48Z</time>
      </trkpt>
      <trkpt lat="42.80537" lon="1.26483">
        <ele>701</ele>
        <time>2020-06-19T20:44:58Z</time>
      </trkpt>
      <trkpt lat="42.80531" lon="1.26497">
        <ele>699</ele>
        <time>2020-06-19T20:45:00Z</time>
      </trkpt>
      <trkpt lat="42.80468" lon="1.26604">
        <ele>699</ele>
        <time>2020-06-19T20:45:18Z</time>
      </trkpt>
      <trkpt lat="42.80409" lon="1.26697">
        <ele>697</ele>
        <time>2020-06-19T20:45:34Z</time>
      </trkpt>
      <trkpt lat="42.80402" lon="1.26712">
        <ele>697</ele>
        <time>2020-06-19T20:45:37Z</time>
      </trkpt>
      <trkpt lat="42.80398" lon="1.26729">
        <ele>695</ele>
        <time>2020-06-19T20:45:39Z</time>
      </trkpt>
      <trkpt lat="42.80394" lon="1.26752">
        <ele>692</ele>
        <time>2020-06-19T20:45:42Z</time>
      </trkpt>
      <trkpt lat="42.80389" lon="1.2683">
        <ele>688</ele>
        <time>2020-06-19T20:45:52Z</time>
      </trkpt>
      <trkpt lat="42.80387" lon="1.26868">
        <ele>689</ele>
        <time>2020-06-19T20:45:57Z</time>
      </trkpt>
      <trkpt lat="42.80386" lon="1.26884">
        <ele>689</ele>
        <time>2020-06-19T20:45:59Z</time>
      </trkpt>
      <trkpt lat="42.80381" lon="1.269">
        <ele>690</ele>
        <time>2020-06-19T20:46:02Z</time>
      </trkpt>
      <trkpt lat="42.80337" lon="1.27009">
        <ele>693</ele>
        <time>2020-06-19T20:46:18Z</time>
      </trkpt>
      <trkpt lat="42.8033" lon="1.27022">
        <ele>693</ele>
        <time>2020-06-19T20:46:20Z</time>
      </trkpt>
      <trkpt lat="42.80268" lon="1.2708">
        <ele>695</ele>
        <time>2020-06-19T20:46:33Z</time>
      </trkpt>
      <trkpt lat="42.80263" lon="1.2709">
        <ele>695</ele>
        <time>2020-06-19T20:46:35Z</time>
      </trkpt>
      <trkpt lat="42.8026" lon="1.27104">
        <ele>696</ele>
        <time>2020-06-19T20:46:37Z</time>
      </trkpt>
      <trkpt lat="42.80256" lon="1.27182">
        <ele>700</ele>
        <time>2020-06-19T20:46:47Z</time>
      </trkpt>
      <trkpt lat="42.80254" lon="1.27209">
        <ele>703</ele>
        <time>2020-06-19T20:46:51Z</time>
      </trkpt>
      <trkpt lat="42.80249" lon="1.27231">
        <ele>705</ele>
        <time>2020-06-19T20:46:54Z</time>
      </trkpt>
      <trkpt lat="42.80242" lon="1.2725">
        <ele>707</ele>
        <time>2020-06-19T20:46:56Z</time>
      </trkpt>
      <trkpt lat="42.80203" lon="1.27325">
        <ele>719</ele>
        <time>2020-06-19T20:47:08Z</time>
      </trkpt>
      <trkpt lat="42.80172" lon="1.27359">
        <ele>719</ele>
        <time>2020-06-19T20:47:16Z</time>
      </trkpt>
      <trkpt lat="42.80169" lon="1.27368">
        <ele>720</ele>
        <time>2020-06-19T20:47:17Z</time>
      </trkpt>
      <trkpt lat="42.80169" lon="1.27377">
        <ele>721</ele>
        <time>2020-06-19T20:47:18Z</time>
      </trkpt>
      <trkpt lat="42.8017" lon="1.27385">
        <ele>723</ele>
        <time>2020-06-19T20:47:19Z</time>
      </trkpt>
      <trkpt lat="42.80173" lon="1.27392">
        <ele>725</ele>
        <time>2020-06-19T20:47:20Z</time>
      </trkpt>
      <trkpt lat="42.8018" lon="1.27396">
        <ele>727</ele>
        <time>2020-06-19T20:47:21Z</time>
      </trkpt>
      <trkpt lat="42.80186" lon="1.27395">
        <ele>729</ele>
        <time>2020-06-19T20:47:23Z</time>
      </trkpt>
      <trkpt lat="42.80192" lon="1.2739">
        <ele>729</ele>
        <time>2020-06-19T20:47:24Z</time>
      </trkpt>
      <trkpt lat="42.80208" lon="1.27365">
        <ele>728</ele>
        <time>2020-06-19T20:47:28Z</time>
      </trkpt>
      <trkpt lat="42.80228" lon="1.27344">
        <ele>727</ele>
        <time>2020-06-19T20:47:33Z</time>
      </trkpt>
      <trkpt lat="42.80455" lon="1.27206">
        <ele>750</ele>
        <time>2020-06-19T20:48:17Z</time>
      </trkpt>
      <trkpt lat="42.80603" lon="1.27125">
        <ele>763</ele>
        <time>2020-06-19T20:48:45Z</time>
      </trkpt>
      <trkpt lat="42.80638" lon="1.27095">
        <ele>763</ele>
        <time>2020-06-19T20:48:53Z</time>
      </trkpt>
      <trkpt lat="42.80672" lon="1.27063">
        <ele>764</ele>
        <time>2020-06-19T20:49:00Z</time>
      </trkpt>
      <trkpt lat="42.80723" lon="1.26999">
        <ele>768</ele>
        <time>2020-06-19T20:49:12Z</time>
      </trkpt>
      <trkpt lat="42.80728" lon="1.26997">
        <ele>770</ele>
        <time>2020-06-19T20:49:13Z</time>
      </trkpt>
      <trkpt lat="42.80731" lon="1.26999">
        <ele>771</ele>
        <time>2020-06-19T20:49:14Z</time>
      </trkpt>
      <trkpt lat="42.80732" lon="1.27006">
        <ele>774</ele>
        <time>2020-06-19T20:49:15Z</time>
      </trkpt>
      <trkpt lat="42.80668" lon="1.2711">
        <ele>779</ele>
        <time>2020-06-19T20:49:32Z</time>
      </trkpt>
      <trkpt lat="42.80558" lon="1.2725">
        <ele>799</ele>
        <time>2020-06-19T20:49:59Z</time>
      </trkpt>
      <trkpt lat="42.80489" lon="1.27333">
        <ele>805</ele>
        <time>2020-06-19T20:50:16Z</time>
      </trkpt>
      <trkpt lat="42.80402" lon="1.27458">
        <ele>813</ele>
        <time>2020-06-19T20:50:38Z</time>
      </trkpt>
      <trkpt lat="42.8037" lon="1.27507">
        <ele>815</ele>
        <time>2020-06-19T20:50:47Z</time>
      </trkpt>
      <trkpt lat="42.80354" lon="1.27538">
        <ele>815</ele>
        <time>2020-06-19T20:50:52Z</time>
      </trkpt>
      <trkpt lat="42.80346" lon="1.27562">
        <ele>816</ele>
        <time>2020-06-19T20:50:55Z</time>
      </trkpt>
      <trkpt lat="42.80341" lon="1.27591">
        <ele>819</ele>
        <time>2020-06-19T20:50:59Z</time>
      </trkpt>
      <trkpt lat="42.80332" lon="1.27659">
        <ele>825</ele>
        <time>2020-06-19T20:51:08Z</time>
      </trkpt>
      <trkpt lat="42.80307" lon="1.27731">
        <ele>835</ele>
        <time>2020-06-19T20:51:18Z</time>
      </trkpt>
      <trkpt lat="42.80307" lon="1.27744">
        <ele>837</ele>
        <time>2020-06-19T20:51:20Z</time>
      </trkpt>
      <trkpt lat="42.80311" lon="1.27751">
        <ele>839</ele>
        <time>2020-06-19T20:51:21Z</time>
      </trkpt>
      <trkpt lat="42.80318" lon="1.27754">
        <ele>841</ele>
        <time>2020-06-19T20:51:22Z</time>
      </trkpt>
      <trkpt lat="42.80338" lon="1.27735">
        <ele>842</ele>
        <time>2020-06-19T20:51:27Z</time>
      </trkpt>
      <trkpt lat="42.80356" lon="1.27707">
        <ele>845</ele>
        <time>2020-06-19T20:51:32Z</time>
      </trkpt>
      <trkpt lat="42.8039" lon="1.27643">
        <ele>849</ele>
        <time>2020-06-19T20:51:42Z</time>
      </trkpt>
      <trkpt lat="42.80411" lon="1.27609">
        <ele>851</ele>
        <time>2020-06-19T20:51:48Z</time>
      </trkpt>
      <trkpt lat="42.80437" lon="1.2756">
        <ele>854</ele>
        <time>2020-06-19T20:51:56Z</time>
      </trkpt>
      <trkpt lat="42.80463" lon="1.27521">
        <ele>856</ele>
        <time>2020-06-19T20:52:03Z</time>
      </trkpt>
      <trkpt lat="42.80511" lon="1.27464">
        <ele>858</ele>
        <time>2020-06-19T20:52:14Z</time>
      </trkpt>
      <trkpt lat="42.80517" lon="1.27461">
        <ele>859</ele>
        <time>2020-06-19T20:52:15Z</time>
      </trkpt>
      <trkpt lat="42.80523" lon="1.27463">
        <ele>863</ele>
        <time>2020-06-19T20:52:16Z</time>
      </trkpt>
      <trkpt lat="42.80525" lon="1.27471">
        <ele>867</ele>
        <time>2020-06-19T20:52:17Z</time>
      </trkpt>
      <trkpt lat="42.80511" lon="1.27496">
        <ele>869</ele>
        <time>2020-06-19T20:52:21Z</time>
      </trkpt>
      <trkpt lat="42.80475" lon="1.27546">
        <ele>869</ele>
        <time>2020-06-19T20:52:30Z</time>
      </trkpt>
      <trkpt lat="42.80463" lon="1.27572">
        <ele>871</ele>
        <time>2020-06-19T20:52:34Z</time>
      </trkpt>
      <trkpt lat="42.80442" lon="1.27634">
        <ele>875</ele>
        <time>2020-06-19T20:52:43Z</time>
      </trkpt>
      <trkpt lat="42.80428" lon="1.27709">
        <ele>883</ele>
        <time>2020-06-19T20:52:54Z</time>
      </trkpt>
      <trkpt lat="42.80418" lon="1.27791">
        <ele>894</ele>
        <time>2020-06-19T20:53:04Z</time>
      </trkpt>
      <trkpt lat="42.80402" lon="1.27825">
        <ele>893</ele>
        <time>2020-06-19T20:53:10Z</time>
      </trkpt>
      <trkpt lat="42.80383" lon="1.27847">
        <ele>890</ele>
        <time>2020-06-19T20:53:14Z</time>
      </trkpt>
      <trkpt lat="42.80377" lon="1.27861">
        <ele>890</ele>
        <time>2020-06-19T20:53:16Z</time>
      </trkpt>
      <trkpt lat="42.80375" lon="1.27893">
        <ele>896</ele>
        <time>2020-06-19T20:53:20Z</time>
      </trkpt>
      <trkpt lat="42.80375" lon="1.2791">
        <ele>900</ele>
        <time>2020-06-19T20:53:23Z</time>
      </trkpt>
      <trkpt lat="42.80372" lon="1.27925">
        <ele>902</ele>
        <time>2020-06-19T20:53:25Z</time>
      </trkpt>
      <trkpt lat="42.80358" lon="1.27954">
        <ele>903</ele>
        <time>2020-06-19T20:53:29Z</time>
      </trkpt>
      <trkpt lat="42.8034" lon="1.27996">
        <ele>905</ele>
        <time>2020-06-19T20:53:36Z</time>
      </trkpt>
      <trkpt lat="42.80313" lon="1.2808">
        <ele>912</ele>
        <time>2020-06-19T20:53:47Z</time>
      </trkpt>
      <trkpt lat="42.80309" lon="1.28112">
        <ele>916</ele>
        <time>2020-06-19T20:53:52Z</time>
      </trkpt>
      <trkpt lat="42.80301" lon="1.28262">
        <ele>932</ele>
        <time>2020-06-19T20:54:11Z</time>
      </trkpt>
      <trkpt lat="42.80295" lon="1.28302">
        <ele>934</ele>
        <time>2020-06-19T20:54:17Z</time>
      </trkpt>
      <trkpt lat="42.80286" lon="1.28341">
        <ele>935</ele>
        <time>2020-06-19T20:54:22Z</time>
      </trkpt>
      <trkpt lat="42.80259" lon="1.2842">
        <ele>932</ele>
        <time>2020-06-19T20:54:33Z</time>
      </trkpt>
      <trkpt lat="42.80206" lon="1.28599">
        <ele>942</ele>
        <time>2020-06-19T20:54:59Z</time>
      </trkpt>
      <trkpt lat="42.802" lon="1.28632">
        <ele>944</ele>
        <time>2020-06-19T20:55:03Z</time>
      </trkpt>
      <trkpt lat="42.80191" lon="1.28827">
        <ele>958</ele>
        <time>2020-06-19T20:55:29Z</time>
      </trkpt>
      <trkpt lat="42.80188" lon="1.28857">
        <ele>960</ele>
        <time>2020-06-19T20:55:32Z</time>
      </trkpt>
      <trkpt lat="42.80167" lon="1.28961">
        <ele>962</ele>
        <time>2020-06-19T20:55:47Z</time>
      </trkpt>
      <trkpt lat="42.80164" lon="1.28996">
        <ele>965</ele>
        <time>2020-06-19T20:55:51Z</time>
      </trkpt>
      <trkpt lat="42.80162" lon="1.2909">
        <ele>972</ele>
        <time>2020-06-19T20:56:03Z</time>
      </trkpt>
      <trkpt lat="42.80155" lon="1.29147">
        <ele>978</ele>
        <time>2020-06-19T20:56:11Z</time>
      </trkpt>
      <trkpt lat="42.80142" lon="1.29203">
        <ele>983</ele>
        <time>2020-06-19T20:56:19Z</time>
      </trkpt>
      <trkpt lat="42.80131" lon="1.29273">
        <ele>990</ele>
        <time>2020-06-19T20:56:28Z</time>
      </trkpt>
      <trkpt lat="42.80126" lon="1.29364">
        <ele>997</ele>
        <time>2020-06-19T20:56:40Z</time>
      </trkpt>
      <trkpt lat="42.80128" lon="1.2947">
        <ele>1009</ele>
        <time>2020-06-19T20:56:54Z</time>
      </trkpt>
      <trkpt lat="42.80132" lon="1.29506">
        <ele>1014</ele>
        <time>2020-06-19T20:56:59Z</time>
      </trkpt>
      <trkpt lat="42.80134" lon="1.29564">
        <ele>1021</ele>
        <time>2020-06-19T20:57:06Z</time>
      </trkpt>
      <trkpt lat="42.80126" lon="1.29653">
        <ele>1025</ele>
        <time>2020-06-19T20:57:18Z</time>
      </trkpt>
      <trkpt lat="42.8011" lon="1.29762">
        <ele>1026</ele>
        <time>2020-06-19T20:57:32Z</time>
      </trkpt>
      <trkpt lat="42.80092" lon="1.29934">
        <ele>1033</ele>
        <time>2020-06-19T20:57:55Z</time>
      </trkpt>
      <trkpt lat="42.80061" lon="1.3006">
        <ele>1042</ele>
        <time>2020-06-19T20:58:12Z</time>
      </trkpt>
      <trkpt lat="42.80027" lon="1.30163">
        <ele>1051</ele>
        <time>2020-06-19T20:58:27Z</time>
      </trkpt>
      <trkpt lat="42.80017" lon="1.30185">
        <ele>1052</ele>
        <time>2020-06-19T20:58:30Z</time>
      </trkpt>
      <trkpt lat="42.79983" lon="1.30243">
        <ele>1056</ele>
        <time>2020-06-19T20:58:40Z</time>
      </trkpt>
      <trkpt lat="42.7994" lon="1.30306">
        <ele>1061</ele>
        <time>2020-06-19T20:58:51Z</time>
      </trkpt>
      <trkpt lat="42.79927" lon="1.30329">
        <ele>1061</ele>
        <time>2020-06-19T20:58:55Z</time>
      </trkpt>
      <trkpt lat="42.79915" lon="1.30357">
        <ele>1064</ele>
        <time>2020-06-19T20:58:59Z</time>
      </trkpt>
      <trkpt lat="42.79904" lon="1.30389">
        <ele>1071</ele>
        <time>2020-06-19T20:59:04Z</time>
      </trkpt>
      <trkpt lat="42.79892" lon="1.30415">
        <ele>1075</ele>
        <time>2020-06-19T20:59:08Z</time>
      </trkpt>
      <trkpt lat="42.79869" lon="1.3045">
        <ele>1077</ele>
        <time>2020-06-19T20:59:14Z</time>
      </trkpt>
      <trkpt lat="42.79859" lon="1.30471">
        <ele>1078</ele>
        <time>2020-06-19T20:59:17Z</time>
      </trkpt>
      <trkpt lat="42.7983" lon="1.30554">
        <ele>1083</ele>
        <time>2020-06-19T20:59:29Z</time>
      </trkpt>
      <trkpt lat="42.79818" lon="1.3058">
        <ele>1087</ele>
        <time>2020-06-19T20:59:33Z</time>
      </trkpt>
      <trkpt lat="42.79765" lon="1.30684">
        <ele>1094</ele>
        <time>2020-06-19T20:59:50Z</time>
      </trkpt>
      <trkpt lat="42.7974" lon="1.30746">
        <ele>1100</ele>
        <time>2020-06-19T20:59:59Z</time>
      </trkpt>
      <trkpt lat="42.7973" lon="1.3076">
        <ele>1104</ele>
        <time>2020-06-19T21:00:02Z</time>
      </trkpt>
      <trkpt lat="42.79715" lon="1.30774">
        <ele>1106</ele>
        <time>2020-06-19T21:00:05Z</time>
      </trkpt>
      <trkpt lat="42.79706" lon="1.30786">
        <ele>1107</ele>
        <time>2020-06-19T21:00:07Z</time>
      </trkpt>
      <trkpt lat="42.79697" lon="1.30809">
        <ele>1109</ele>
        <time>2020-06-19T21:00:11Z</time>
      </trkpt>
      <trkpt lat="42.7963" lon="1.31064">
        <ele>1116</ele>
        <time>2020-06-19T21:00:46Z</time>
      </trkpt>
      <trkpt lat="42.79626" lon="1.31078">
        <ele>1116</ele>
        <time>2020-06-19T21:00:48Z</time>
      </trkpt>
      <trkpt lat="42.7962" lon="1.31092">
        <ele>1116</ele>
        <time>2020-06-19T21:00:50Z</time>
      </trkpt>
      <trkpt lat="42.79582" lon="1.31141">
        <ele>1110</ele>
        <time>2020-06-19T21:00:59Z</time>
      </trkpt>
      <trkpt lat="42.79569" lon="1.31165">
        <ele>1113</ele>
        <time>2020-06-19T21:01:03Z</time>
      </trkpt>
      <trkpt lat="42.79558" lon="1.31202">
        <ele>1117</ele>
        <time>2020-06-19T21:01:09Z</time>
      </trkpt>
      <trkpt lat="42.79555" lon="1.31229">
        <ele>1119</ele>
        <time>2020-06-19T21:01:12Z</time>
      </trkpt>
      <trkpt lat="42.7955" lon="1.31544">
        <ele>1111</ele>
        <time>2020-06-19T21:01:53Z</time>
      </trkpt>
      <trkpt lat="42.79546" lon="1.31563">
        <ele>1111</ele>
        <time>2020-06-19T21:01:56Z</time>
      </trkpt>
      <trkpt lat="42.7954" lon="1.3158">
        <ele>1110</ele>
        <time>2020-06-19T21:01:58Z</time>
      </trkpt>
      <trkpt lat="42.79512" lon="1.31633">
        <ele>1108</ele>
        <time>2020-06-19T21:02:07Z</time>
      </trkpt>
      <trkpt lat="42.79463" lon="1.3172">
        <ele>1102</ele>
        <time>2020-06-19T21:02:21Z</time>
      </trkpt>
      <trkpt lat="42.79429" lon="1.3177">
        <ele>1099</ele>
        <time>2020-06-19T21:02:30Z</time>
      </trkpt>
      <trkpt lat="42.79402" lon="1.31805">
        <ele>1096</ele>
        <time>2020-06-19T21:02:37Z</time>
      </trkpt>
      <trkpt lat="42.79388" lon="1.31822">
        <ele>1095</ele>
        <time>2020-06-19T21:02:40Z</time>
      </trkpt>
      <trkpt lat="42.79364" lon="1.31846">
        <ele>1092</ele>
        <time>2020-06-19T21:02:45Z</time>
      </trkpt>
      <trkpt lat="42.79295" lon="1.31887">
        <ele>1083</ele>
        <time>2020-06-19T21:02:59Z</time>
      </trkpt>
      <trkpt lat="42.79281" lon="1.31891">
        <ele>1081</ele>
        <time>2020-06-19T21:03:01Z</time>
      </trkpt>
      <trkpt lat="42.79256" lon="1.31891">
        <ele>1081</ele>
        <time>2020-06-19T21:03:06Z</time>
      </trkpt>
      <trkpt lat="42.79236" lon="1.31889">
        <ele>1083</ele>
        <time>2020-06-19T21:03:09Z</time>
      </trkpt>
      <trkpt lat="42.79214" lon="1.31892">
        <ele>1083</ele>
        <time>2020-06-19T21:03:13Z</time>
      </trkpt>
      <trkpt lat="42.7917" lon="1.31904">
        <ele>1079</ele>
        <time>2020-06-19T21:03:21Z</time>
      </trkpt>
      <trkpt lat="42.79149" lon="1.31913">
        <ele>1074</ele>
        <time>2020-06-19T21:03:25Z</time>
      </trkpt>
      <trkpt lat="42.7912" lon="1.31932">
        <ele>1063</ele>
        <time>2020-06-19T21:03:31Z</time>
      </trkpt>
      <trkpt lat="42.79117" lon="1.31938">
        <ele>1060</ele>
        <time>2020-06-19T21:03:32Z</time>
      </trkpt>
      <trkpt lat="42.79117" lon="1.31944">
        <ele>1057</ele>
        <time>2020-06-19T21:03:33Z</time>
      </trkpt>
      <trkpt lat="42.79119" lon="1.3195">
        <ele>1054</ele>
        <time>2020-06-19T21:03:33Z</time>
      </trkpt>
      <trkpt lat="42.79124" lon="1.31952">
        <ele>1054</ele>
        <time>2020-06-19T21:03:34Z</time>
      </trkpt>
      <trkpt lat="42.79131" lon="1.3195">
        <ele>1056</ele>
        <time>2020-06-19T21:03:36Z</time>
      </trkpt>
      <trkpt lat="42.79165" lon="1.31928">
        <ele>1069</ele>
        <time>2020-06-19T21:03:42Z</time>
      </trkpt>
      <trkpt lat="42.79189" lon="1.31923">
        <ele>1071</ele>
        <time>2020-06-19T21:03:47Z</time>
      </trkpt>
      <trkpt lat="42.79209" lon="1.31923">
        <ele>1070</ele>
        <time>2020-06-19T21:03:50Z</time>
      </trkpt>
      <trkpt lat="42.79221" lon="1.31924">
        <ele>1069</ele>
        <time>2020-06-19T21:03:52Z</time>
      </trkpt>
      <trkpt lat="42.79232" lon="1.31929">
        <ele>1067</ele>
        <time>2020-06-19T21:03:54Z</time>
      </trkpt>
      <trkpt lat="42.79266" lon="1.31953">
        <ele>1057</ele>
        <time>2020-06-19T21:04:01Z</time>
      </trkpt>
      <trkpt lat="42.79289" lon="1.31956">
        <ele>1055</ele>
        <time>2020-06-19T21:04:05Z</time>
      </trkpt>
      <trkpt lat="42.79345" lon="1.31955">
        <ele>1054</ele>
        <time>2020-06-19T21:04:15Z</time>
      </trkpt>
      <trkpt lat="42.7943" lon="1.31937">
        <ele>1049</ele>
        <time>2020-06-19T21:04:31Z</time>
      </trkpt>
      <trkpt lat="42.79454" lon="1.31923">
        <ele>1047</ele>
        <time>2020-06-19T21:04:35Z</time>
      </trkpt>
      <trkpt lat="42.79484" lon="1.31891">
        <ele>1049</ele>
        <time>2020-06-19T21:04:42Z</time>
      </trkpt>
      <trkpt lat="42.7949" lon="1.31891">
        <ele>1047</ele>
        <time>2020-06-19T21:04:43Z</time>
      </trkpt>
      <trkpt lat="42.79494" lon="1.31894">
        <ele>1045</ele>
        <time>2020-06-19T21:04:44Z</time>
      </trkpt>
      <trkpt lat="42.79495" lon="1.319">
        <ele>1043</ele>
        <time>2020-06-19T21:04:45Z</time>
      </trkpt>
      <trkpt lat="42.79494" lon="1.31907">
        <ele>1041</ele>
        <time>2020-06-19T21:04:46Z</time>
      </trkpt>
      <trkpt lat="42.79491" lon="1.31911">
        <ele>1040</ele>
        <time>2020-06-19T21:04:46Z</time>
      </trkpt>
      <trkpt lat="42.7944" lon="1.31955">
        <ele>1039</ele>
        <time>2020-06-19T21:04:57Z</time>
      </trkpt>
      <trkpt lat="42.79419" lon="1.31969">
        <ele>1039</ele>
        <time>2020-06-19T21:05:01Z</time>
      </trkpt>
      <trkpt lat="42.79361" lon="1.32002">
        <ele>1034</ele>
        <time>2020-06-19T21:05:12Z</time>
      </trkpt>
      <trkpt lat="42.79302" lon="1.32043">
        <ele>1020</ele>
        <time>2020-06-19T21:05:24Z</time>
      </trkpt>
      <trkpt lat="42.79289" lon="1.32048">
        <ele>1018</ele>
        <time>2020-06-19T21:05:27Z</time>
      </trkpt>
      <trkpt lat="42.79279" lon="1.32048">
        <ele>1018</ele>
        <time>2020-06-19T21:05:28Z</time>
      </trkpt>
      <trkpt lat="42.79237" lon="1.32031">
        <ele>1026</ele>
        <time>2020-06-19T21:05:36Z</time>
      </trkpt>
      <trkpt lat="42.79219" lon="1.32028">
        <ele>1028</ele>
        <time>2020-06-19T21:05:39Z</time>
      </trkpt>
      <trkpt lat="42.79182" lon="1.32041">
        <ele>1024</ele>
        <time>2020-06-19T21:05:46Z</time>
      </trkpt>
      <trkpt lat="42.79168" lon="1.32052">
        <ele>1021</ele>
        <time>2020-06-19T21:05:49Z</time>
      </trkpt>
      <trkpt lat="42.7913" lon="1.32105">
        <ele>995</ele>
        <time>2020-06-19T21:05:59Z</time>
      </trkpt>
      <trkpt lat="42.79123" lon="1.32111">
        <ele>992</ele>
        <time>2020-06-19T21:06:00Z</time>
      </trkpt>
      <trkpt lat="42.79114" lon="1.32113">
        <ele>990</ele>
        <time>2020-06-19T21:06:02Z</time>
      </trkpt>
      <trkpt lat="42.79107" lon="1.32108">
        <ele>991</ele>
        <time>2020-06-19T21:06:03Z</time>
      </trkpt>
      <trkpt lat="42.79099" lon="1.32097">
        <ele>992</ele>
        <time>2020-06-19T21:06:05Z</time>
      </trkpt>
      <trkpt lat="42.79082" lon="1.3204">
        <ele>1009</ele>
        <time>2020-06-19T21:06:13Z</time>
      </trkpt>
      <trkpt lat="42.79074" lon="1.32026">
        <ele>1013</ele>
        <time>2020-06-19T21:06:16Z</time>
      </trkpt>
      <trkpt lat="42.79064" lon="1.32011">
        <ele>1016</ele>
        <time>2020-06-19T21:06:18Z</time>
      </trkpt>
      <trkpt lat="42.79054" lon="1.32002">
        <ele>1017</ele>
        <time>2020-06-19T21:06:20Z</time>
      </trkpt>
      <trkpt lat="42.79043" lon="1.31996">
        <ele>1018</ele>
        <time>2020-06-19T21:06:23Z</time>
      </trkpt>
      <trkpt lat="42.79033" lon="1.31995">
        <ele>1016</ele>
        <time>2020-06-19T21:06:24Z</time>
      </trkpt>
      <trkpt lat="42.79015" lon="1.31998">
        <ele>1012</ele>
        <time>2020-06-19T21:06:28Z</time>
      </trkpt>
      <trkpt lat="42.78998" lon="1.32007">
        <ele>1008</ele>
        <time>2020-06-19T21:06:31Z</time>
      </trkpt>
      <trkpt lat="42.78993" lon="1.32015">
        <ele>1010</ele>
        <time>2020-06-19T21:06:32Z</time>
      </trkpt>
      <trkpt lat="42.78992" lon="1.32023">
        <ele>1009</ele>
        <time>2020-06-19T21:06:33Z</time>
      </trkpt>
      <trkpt lat="42.78994" lon="1.32038">
        <ele>1007</ele>
        <time>2020-06-19T21:06:35Z</time>
      </trkpt>
      <trkpt lat="42.79006" lon="1.32069">
        <ele>1002</ele>
        <time>2020-06-19T21:06:40Z</time>
      </trkpt>
      <trkpt lat="42.79007" lon="1.32089">
        <ele>1000</ele>
        <time>2020-06-19T21:06:42Z</time>
      </trkpt>
      <trkpt lat="42.79003" lon="1.32139">
        <ele>997</ele>
        <time>2020-06-19T21:06:49Z</time>
      </trkpt>
      <trkpt lat="42.78996" lon="1.32172">
        <ele>995</ele>
        <time>2020-06-19T21:06:53Z</time>
      </trkpt>
      <trkpt lat="42.78984" lon="1.32197">
        <ele>991</ele>
        <time>2020-06-19T21:06:57Z</time>
      </trkpt>
      <trkpt lat="42.78955" lon="1.32248">
        <ele>983</ele>
        <time>2020-06-19T21:07:06Z</time>
      </trkpt>
      <trkpt lat="42.78888" lon="1.32301">
        <ele>985</ele>
        <time>2020-06-19T21:07:20Z</time>
      </trkpt>
      <trkpt lat="42.78872" lon="1.32316">
        <ele>985</ele>
        <time>2020-06-19T21:07:23Z</time>
      </trkpt>
      <trkpt lat="42.78847" lon="1.32348">
        <ele>981</ele>
        <time>2020-06-19T21:07:29Z</time>
      </trkpt>
      <trkpt lat="42.78802" lon="1.32389">
        <ele>977</ele>
        <time>2020-06-19T21:07:39Z</time>
      </trkpt>
      <trkpt lat="42.7878" lon="1.32405">
        <ele>975</ele>
        <time>2020-06-19T21:07:43Z</time>
      </trkpt>
      <trkpt lat="42.78754" lon="1.32419">
        <ele>974</ele>
        <time>2020-06-19T21:07:48Z</time>
      </trkpt>
      <trkpt lat="42.78703" lon="1.32436">
        <ele>981</ele>
        <time>2020-06-19T21:07:57Z</time>
      </trkpt>
      <trkpt lat="42.78671" lon="1.32477">
        <ele>964</ele>
        <time>2020-06-19T21:08:05Z</time>
      </trkpt>
      <trkpt lat="42.78644" lon="1.32507">
        <ele>951</ele>
        <time>2020-06-19T21:08:12Z</time>
      </trkpt>
      <trkpt lat="42.78635" lon="1.32512">
        <ele>950</ele>
        <time>2020-06-19T21:08:13Z</time>
      </trkpt>
      <trkpt lat="42.78593" lon="1.32522">
        <ele>956</ele>
        <time>2020-06-19T21:08:21Z</time>
      </trkpt>
      <trkpt lat="42.78588" lon="1.32527">
        <ele>955</ele>
        <time>2020-06-19T21:08:22Z</time>
      </trkpt>
      <trkpt lat="42.78587" lon="1.32534">
        <ele>952</ele>
        <time>2020-06-19T21:08:23Z</time>
      </trkpt>
      <trkpt lat="42.78589" lon="1.32539">
        <ele>950</ele>
        <time>2020-06-19T21:08:24Z</time>
      </trkpt>
      <trkpt lat="42.78593" lon="1.32542">
        <ele>948</ele>
        <time>2020-06-19T21:08:24Z</time>
      </trkpt>
      <trkpt lat="42.78634" lon="1.32535">
        <ele>941</ele>
        <time>2020-06-19T21:08:32Z</time>
      </trkpt>
      <trkpt lat="42.78646" lon="1.32528">
        <ele>941</ele>
        <time>2020-06-19T21:08:34Z</time>
      </trkpt>
      <trkpt lat="42.78695" lon="1.32493">
        <ele>946</ele>
        <time>2020-06-19T21:08:44Z</time>
      </trkpt>
      <trkpt lat="42.78726" lon="1.32479">
        <ele>946</ele>
        <time>2020-06-19T21:08:50Z</time>
      </trkpt>
      <trkpt lat="42.78767" lon="1.32471">
        <ele>941</ele>
        <time>2020-06-19T21:08:57Z</time>
      </trkpt>
      <trkpt lat="42.78837" lon="1.32474">
        <ele>929</ele>
        <time>2020-06-19T21:09:10Z</time>
      </trkpt>
      <trkpt lat="42.78857" lon="1.32465">
        <ele>928</ele>
        <time>2020-06-19T21:09:13Z</time>
      </trkpt>
      <trkpt lat="42.78923" lon="1.32425">
        <ele>926</ele>
        <time>2020-06-19T21:09:26Z</time>
      </trkpt>
      <trkpt lat="42.78991" lon="1.32391">
        <ele>922</ele>
        <time>2020-06-19T21:09:39Z</time>
      </trkpt>
      <trkpt lat="42.79016" lon="1.32384">
        <ele>920</ele>
        <time>2020-06-19T21:09:44Z</time>
      </trkpt>
      <trkpt lat="42.79069" lon="1.32361">
        <ele>915</ele>
        <time>2020-06-19T21:09:53Z</time>
      </trkpt>
      <trkpt lat="42.79075" lon="1.32361">
        <ele>914</ele>
        <time>2020-06-19T21:09:55Z</time>
      </trkpt>
      <trkpt lat="42.79079" lon="1.32364">
        <ele>912</ele>
        <time>2020-06-19T21:09:55Z</time>
      </trkpt>
      <trkpt lat="42.7908" lon="1.3237">
        <ele>911</ele>
        <time>2020-06-19T21:09:56Z</time>
      </trkpt>
      <trkpt lat="42.79079" lon="1.32376">
        <ele>909</ele>
        <time>2020-06-19T21:09:57Z</time>
      </trkpt>
      <trkpt lat="42.79075" lon="1.32382">
        <ele>908</ele>
        <time>2020-06-19T21:09:58Z</time>
      </trkpt>
      <trkpt lat="42.79008" lon="1.32412">
        <ele>911</ele>
        <time>2020-06-19T21:10:11Z</time>
      </trkpt>
      <trkpt lat="42.78994" lon="1.32421">
        <ele>910</ele>
        <time>2020-06-19T21:10:13Z</time>
      </trkpt>
      <trkpt lat="42.78979" lon="1.32436">
        <ele>909</ele>
        <time>2020-06-19T21:10:17Z</time>
      </trkpt>
      <trkpt lat="42.78944" lon="1.32479">
        <ele>903</ele>
        <time>2020-06-19T21:10:25Z</time>
      </trkpt>
      <trkpt lat="42.7888" lon="1.32571">
        <ele>883</ele>
        <time>2020-06-19T21:10:42Z</time>
      </trkpt>
      <trkpt lat="42.78869" lon="1.32581">
        <ele>881</ele>
        <time>2020-06-19T21:10:44Z</time>
      </trkpt>
      <trkpt lat="42.78851" lon="1.32586">
        <ele>882</ele>
        <time>2020-06-19T21:10:47Z</time>
      </trkpt>
      <trkpt lat="42.78847" lon="1.3259">
        <ele>881</ele>
        <time>2020-06-19T21:10:48Z</time>
      </trkpt>
      <trkpt lat="42.7883" lon="1.32609">
        <ele>877</ele>
        <time>2020-06-19T21:10:52Z</time>
      </trkpt>
      <trkpt lat="42.78822" lon="1.32613">
        <ele>876</ele>
        <time>2020-06-19T21:10:54Z</time>
      </trkpt>
      <trkpt lat="42.78794" lon="1.32608">
        <ele>881</ele>
        <time>2020-06-19T21:10:59Z</time>
      </trkpt>
      <trkpt lat="42.78769" lon="1.32609">
        <ele>884</ele>
        <time>2020-06-19T21:11:03Z</time>
      </trkpt>
      <trkpt lat="42.78732" lon="1.32622">
        <ele>888</ele>
        <time>2020-06-19T21:11:10Z</time>
      </trkpt>
      <trkpt lat="42.78721" lon="1.32629">
        <ele>889</ele>
        <time>2020-06-19T21:11:12Z</time>
      </trkpt>
      <trkpt lat="42.78715" lon="1.32642">
        <ele>887</ele>
        <time>2020-06-19T21:11:14Z</time>
      </trkpt>
      <trkpt lat="42.78716" lon="1.32659">
        <ele>883</ele>
        <time>2020-06-19T21:11:16Z</time>
      </trkpt>
      <trkpt lat="42.78721" lon="1.32668">
        <ele>881</ele>
        <time>2020-06-19T21:11:18Z</time>
      </trkpt>
      <trkpt lat="42.78819" lon="1.32766">
        <ele>864</ele>
        <time>2020-06-19T21:11:39Z</time>
      </trkpt>
      <trkpt lat="42.7884" lon="1.32801">
        <ele>864</ele>
        <time>2020-06-19T21:11:45Z</time>
      </trkpt>
      <trkpt lat="42.78866" lon="1.3285">
        <ele>859</ele>
        <time>2020-06-19T21:11:53Z</time>
      </trkpt>
      <trkpt lat="42.78889" lon="1.32899">
        <ele>850</ele>
        <time>2020-06-19T21:12:01Z</time>
      </trkpt>
      <trkpt lat="42.78918" lon="1.32969">
        <ele>834</ele>
        <time>2020-06-19T21:12:11Z</time>
      </trkpt>
      <trkpt lat="42.78921" lon="1.32982">
        <ele>833</ele>
        <time>2020-06-19T21:12:13Z</time>
      </trkpt>
      <trkpt lat="42.78923" lon="1.33006">
        <ele>833</ele>
        <time>2020-06-19T21:12:16Z</time>
      </trkpt>
      <trkpt lat="42.7892" lon="1.33019">
        <ele>833</ele>
        <time>2020-06-19T21:12:18Z</time>
      </trkpt>
      <trkpt lat="42.78897" lon="1.33084">
        <ele>841</ele>
        <time>2020-06-19T21:12:27Z</time>
      </trkpt>
      <trkpt lat="42.78862" lon="1.33233">
        <ele>829</ele>
        <time>2020-06-19T21:12:48Z</time>
      </trkpt>
      <trkpt lat="42.78856" lon="1.33255">
        <ele>827</ele>
        <time>2020-06-19T21:12:51Z</time>
      </trkpt>
      <trkpt lat="42.78849" lon="1.33288">
        <ele>825</ele>
        <time>2020-06-19T21:12:55Z</time>
      </trkpt>
      <trkpt lat="42.78842" lon="1.33339">
        <ele>818</ele>
        <time>2020-06-19T21:13:02Z</time>
      </trkpt>
      <trkpt lat="42.78832" lon="1.33477">
        <ele>801</ele>
        <time>2020-06-19T21:13:20Z</time>
      </trkpt>
      <trkpt lat="42.78825" lon="1.33526">
        <ele>797</ele>
        <time>2020-06-19T21:13:27Z</time>
      </trkpt>
      <trkpt lat="42.78779" lon="1.33701">
        <ele>791</ele>
        <time>2020-06-19T21:13:51Z</time>
      </trkpt>
      <trkpt lat="42.78764" lon="1.33749">
        <ele>788</ele>
        <time>2020-06-19T21:13:58Z</time>
      </trkpt>
      <trkpt lat="42.78742" lon="1.33811">
        <ele>788</ele>
        <time>2020-06-19T21:14:07Z</time>
      </trkpt>
      <trkpt lat="42.78743" lon="1.33826">
        <ele>785</ele>
        <time>2020-06-19T21:14:09Z</time>
      </trkpt>
      <trkpt lat="42.78749" lon="1.33831">
        <ele>780</ele>
        <time>2020-06-19T21:14:10Z</time>
      </trkpt>
      <trkpt lat="42.78755" lon="1.33829">
        <ele>778</ele>
        <time>2020-06-19T21:14:11Z</time>
      </trkpt>
      <trkpt lat="42.78764" lon="1.33815">
        <ele>777</ele>
        <time>2020-06-19T21:14:14Z</time>
      </trkpt>
      <trkpt lat="42.78773" lon="1.33784">
        <ele>779</ele>
        <time>2020-06-19T21:14:18Z</time>
      </trkpt>
      <trkpt lat="42.78785" lon="1.33758">
        <ele>777</ele>
        <time>2020-06-19T21:14:22Z</time>
      </trkpt>
      <trkpt lat="42.788" lon="1.33732">
        <ele>775</ele>
        <time>2020-06-19T21:14:26Z</time>
      </trkpt>
      <trkpt lat="42.78833" lon="1.33686">
        <ele>765</ele>
        <time>2020-06-19T21:14:35Z</time>
      </trkpt>
      <trkpt lat="42.78848" lon="1.3367">
        <ele>764</ele>
        <time>2020-06-19T21:14:38Z</time>
      </trkpt>
      <trkpt lat="42.78882" lon="1.33642">
        <ele>759</ele>
        <time>2020-06-19T21:14:45Z</time>
      </trkpt>
      <trkpt lat="42.7892" lon="1.33606">
        <ele>750</ele>
        <time>2020-06-19T21:14:53Z</time>
      </trkpt>
      <trkpt lat="42.78942" lon="1.3359">
        <ele>748</ele>
        <time>2020-06-19T21:14:58Z</time>
      </trkpt>
      <trkpt lat="42.78949" lon="1.33589">
        <ele>748</ele>
        <time>2020-06-19T21:14:59Z</time>
      </trkpt>
      <trkpt lat="42.78957" lon="1.33591">
        <ele>747</ele>
        <time>2020-06-19T21:15:00Z</time>
      </trkpt>
      <trkpt lat="42.78976" lon="1.33607">
        <ele>745</ele>
        <time>2020-06-19T21:15:04Z</time>
      </trkpt>
      <trkpt lat="42.78989" lon="1.33625">
        <ele>744</ele>
        <time>2020-06-19T21:15:08Z</time>
      </trkpt>
      <trkpt lat="42.78991" lon="1.33628">
        <ele>744</ele>
        <time>2020-06-19T21:15:08Z</time>
      </trkpt>
      <trkpt lat="42.7899" lon="1.33633">
        <ele>745</ele>
        <time>2020-06-19T21:15:09Z</time>
      </trkpt>
      <trkpt lat="42.78991" lon="1.3364">
        <ele>745</ele>
        <time>2020-06-19T21:15:10Z</time>
      </trkpt>
      <trkpt lat="42.78979" lon="1.33644">
        <ele>746</ele>
        <time>2020-06-19T21:15:12Z</time>
      </trkpt>
      <trkpt lat="42.78959" lon="1.33669">
        <ele>747</ele>
        <time>2020-06-19T21:15:17Z</time>
      </trkpt>
      <trkpt lat="42.78929" lon="1.33717">
        <ele>749</ele>
        <time>2020-06-19T21:15:25Z</time>
      </trkpt>
      <trkpt lat="42.78917" lon="1.33759">
        <ele>749</ele>
        <time>2020-06-19T21:15:31Z</time>
      </trkpt>
      <trkpt lat="42.78898" lon="1.33833">
        <ele>749</ele>
        <time>2020-06-19T21:15:41Z</time>
      </trkpt>
      <trkpt lat="42.78892" lon="1.33885">
        <ele>750</ele>
        <time>2020-06-19T21:15:48Z</time>
      </trkpt>
      <trkpt lat="42.78892" lon="1.33912">
        <ele>751</ele>
        <time>2020-06-19T21:15:52Z</time>
      </trkpt>
      <trkpt lat="42.78902" lon="1.33956">
        <ele>753</ele>
        <time>2020-06-19T21:15:58Z</time>
      </trkpt>
      <trkpt lat="42.78903" lon="1.33971">
        <ele>753</ele>
        <time>2020-06-19T21:16:00Z</time>
      </trkpt>
      <trkpt lat="42.789" lon="1.34033">
        <ele>755</ele>
        <time>2020-06-19T21:16:08Z</time>
      </trkpt>
      <trkpt lat="42.78901" lon="1.34049">
        <ele>756</ele>
        <time>2020-06-19T21:16:10Z</time>
      </trkpt>
      <trkpt lat="42.78905" lon="1.34063">
        <ele>757</ele>
        <time>2020-06-19T21:16:12Z</time>
      </trkpt>
      <trkpt lat="42.78913" lon="1.3408">
        <ele>758</ele>
        <time>2020-06-19T21:16:14Z</time>
      </trkpt>
      <trkpt lat="42.78955" lon="1.34132">
        <ele>762</ele>
        <time>2020-06-19T21:16:25Z</time>
      </trkpt>
      <trkpt lat="42.78978" lon="1.34164">
        <ele>766</ele>
        <time>2020-06-19T21:16:30Z</time>
      </trkpt>
      <trkpt lat="42.78983" lon="1.34177">
        <ele>767</ele>
        <time>2020-06-19T21:16:32Z</time>
      </trkpt>
      <trkpt lat="42.78986" lon="1.34189">
        <ele>768</ele>
        <time>2020-06-19T21:16:34Z</time>
      </trkpt>
      <trkpt lat="42.78983" lon="1.34208">
        <ele>770</ele>
        <time>2020-06-19T21:16:36Z</time>
      </trkpt>
      <trkpt lat="42.78953" lon="1.34273">
        <ele>773</ele>
        <time>2020-06-19T21:16:46Z</time>
      </trkpt>
      <trkpt lat="42.78943" lon="1.34299">
        <ele>774</ele>
        <time>2020-06-19T21:16:50Z</time>
      </trkpt>
      <trkpt lat="42.78936" lon="1.34327">
        <ele>776</ele>
        <time>2020-06-19T21:16:54Z</time>
      </trkpt>
      <trkpt lat="42.78928" lon="1.34368">
        <ele>779</ele>
        <time>2020-06-19T21:17:00Z</time>
      </trkpt>
      <trkpt lat="42.78924" lon="1.34409">
        <ele>784</ele>
        <time>2020-06-19T21:17:05Z</time>
      </trkpt>
      <trkpt lat="42.78924" lon="1.34443">
        <ele>787</ele>
        <time>2020-06-19T21:17:10Z</time>
      </trkpt>
      <trkpt lat="42.78926" lon="1.34476">
        <ele>791</ele>
        <time>2020-06-19T21:17:14Z</time>
      </trkpt>
      <trkpt lat="42.78942" lon="1.34611">
        <ele>803</ele>
        <time>2020-06-19T21:17:32Z</time>
      </trkpt>
      <trkpt lat="42.78952" lon="1.34663">
        <ele>810</ele>
        <time>2020-06-19T21:17:39Z</time>
      </trkpt>
      <trkpt lat="42.78951" lon="1.34687">
        <ele>814</ele>
        <time>2020-06-19T21:17:42Z</time>
      </trkpt>
      <trkpt lat="42.78928" lon="1.34782">
        <ele>825</ele>
        <time>2020-06-19T21:17:55Z</time>
      </trkpt>
      <trkpt lat="42.78913" lon="1.34811">
        <ele>827</ele>
        <time>2020-06-19T21:18:00Z</time>
      </trkpt>
      <trkpt lat="42.78903" lon="1.34826">
        <ele>828</ele>
        <time>2020-06-19T21:18:02Z</time>
      </trkpt>
      <trkpt lat="42.78894" lon="1.34835">
        <ele>829</ele>
        <time>2020-06-19T21:18:04Z</time>
      </trkpt>
      <trkpt lat="42.78827" lon="1.349">
        <ele>833</ele>
        <time>2020-06-19T21:18:19Z</time>
      </trkpt>
      <trkpt lat="42.78807" lon="1.34929">
        <ele>836</ele>
        <time>2020-06-19T21:18:24Z</time>
      </trkpt>
      <trkpt lat="42.78778" lon="1.34991">
        <ele>842</ele>
        <time>2020-06-19T21:18:34Z</time>
      </trkpt>
      <trkpt lat="42.78773" lon="1.35013">
        <ele>844</ele>
        <time>2020-06-19T21:18:37Z</time>
      </trkpt>
      <trkpt lat="42.78768" lon="1.35118">
        <ele>855</ele>
        <time>2020-06-19T21:18:50Z</time>
      </trkpt>
      <trkpt lat="42.78761" lon="1.35148">
        <ele>857</ele>
        <time>2020-06-19T21:18:55Z</time>
      </trkpt>
      <trkpt lat="42.78724" lon="1.35207">
        <ele>861</ele>
        <time>2020-06-19T21:19:05Z</time>
      </trkpt>
      <trkpt lat="42.78697" lon="1.35268">
        <ele>868</ele>
        <time>2020-06-19T21:19:14Z</time>
      </trkpt>
      <trkpt lat="42.78686" lon="1.35306">
        <ele>874</ele>
        <time>2020-06-19T21:19:19Z</time>
      </trkpt>
      <trkpt lat="42.78657" lon="1.35363">
        <ele>880</ele>
        <time>2020-06-19T21:19:28Z</time>
      </trkpt>
      <trkpt lat="42.7861" lon="1.35424">
        <ele>883</ele>
        <time>2020-06-19T21:19:40Z</time>
      </trkpt>
      <trkpt lat="42.78588" lon="1.35463">
        <ele>886</ele>
        <time>2020-06-19T21:19:46Z</time>
      </trkpt>
      <trkpt lat="42.78554" lon="1.35537">
        <ele>894</ele>
        <time>2020-06-19T21:19:58Z</time>
      </trkpt>
      <trkpt lat="42.78532" lon="1.35594">
        <ele>901</ele>
        <time>2020-06-19T21:20:06Z</time>
      </trkpt>
      <trkpt lat="42.78514" lon="1.3563">
        <ele>905</ele>
        <time>2020-06-19T21:20:12Z</time>
      </trkpt>
      <trkpt lat="42.7847" lon="1.35706">
        <ele>910</ele>
        <time>2020-06-19T21:20:24Z</time>
      </trkpt>
      <trkpt lat="42.78453" lon="1.35743">
        <ele>913</ele>
        <time>2020-06-19T21:20:30Z</time>
      </trkpt>
      <trkpt lat="42.78411" lon="1.35852">
        <ele>920</ele>
        <time>2020-06-19T21:20:46Z</time>
      </trkpt>
      <trkpt lat="42.78407" lon="1.35889">
        <ele>924</ele>
        <time>2020-06-19T21:20:51Z</time>
      </trkpt>
      <trkpt lat="42.78408" lon="1.35913">
        <ele>927</ele>
        <time>2020-06-19T21:20:54Z</time>
      </trkpt>
      <trkpt lat="42.78416" lon="1.35938">
        <ele>931</ele>
        <time>2020-06-19T21:20:58Z</time>
      </trkpt>
      <trkpt lat="42.78431" lon="1.35967">
        <ele>937</ele>
        <time>2020-06-19T21:21:02Z</time>
      </trkpt>
      <trkpt lat="42.78436" lon="1.35998">
        <ele>940</ele>
        <time>2020-06-19T21:21:07Z</time>
      </trkpt>
      <trkpt lat="42.78426" lon="1.36082">
        <ele>949</ele>
        <time>2020-06-19T21:21:18Z</time>
      </trkpt>
      <trkpt lat="42.78411" lon="1.36152">
        <ele>955</ele>
        <time>2020-06-19T21:21:27Z</time>
      </trkpt>
      <trkpt lat="42.7841" lon="1.36176">
        <ele>957</ele>
        <time>2020-06-19T21:21:30Z</time>
      </trkpt>
      <trkpt lat="42.78421" lon="1.36278">
        <ele>970</ele>
        <time>2020-06-19T21:21:44Z</time>
      </trkpt>
      <trkpt lat="42.7842" lon="1.36298">
        <ele>971</ele>
        <time>2020-06-19T21:21:46Z</time>
      </trkpt>
      <trkpt lat="42.78407" lon="1.36347">
        <ele>971</ele>
        <time>2020-06-19T21:21:53Z</time>
      </trkpt>
      <trkpt lat="42.78403" lon="1.36375">
        <ele>973</ele>
        <time>2020-06-19T21:21:57Z</time>
      </trkpt>
      <trkpt lat="42.78405" lon="1.36426">
        <ele>980</ele>
        <time>2020-06-19T21:22:04Z</time>
      </trkpt>
      <trkpt lat="42.78413" lon="1.36527">
        <ele>994</ele>
        <time>2020-06-19T21:22:17Z</time>
      </trkpt>
      <trkpt lat="42.78411" lon="1.36564">
        <ele>998</ele>
        <time>2020-06-19T21:22:22Z</time>
      </trkpt>
      <trkpt lat="42.78394" lon="1.36681">
        <ele>1005</ele>
        <time>2020-06-19T21:22:37Z</time>
      </trkpt>
      <trkpt lat="42.78391" lon="1.36748">
        <ele>1012</ele>
        <time>2020-06-19T21:22:46Z</time>
      </trkpt>
      <trkpt lat="42.78381" lon="1.36832">
        <ele>1018</ele>
        <time>2020-06-19T21:22:57Z</time>
      </trkpt>
      <trkpt lat="42.78382" lon="1.36892">
        <ele>1025</ele>
        <time>2020-06-19T21:23:05Z</time>
      </trkpt>
      <trkpt lat="42.78373" lon="1.36958">
        <ele>1030</ele>
        <time>2020-06-19T21:23:14Z</time>
      </trkpt>
      <trkpt lat="42.78362" lon="1.37014">
        <ele>1034</ele>
        <time>2020-06-19T21:23:21Z</time>
      </trkpt>
      <trkpt lat="42.78351" lon="1.37052">
        <ele>1038</ele>
        <time>2020-06-19T21:23:27Z</time>
      </trkpt>
      <trkpt lat="42.78335" lon="1.37081">
        <ele>1036</ele>
        <time>2020-06-19T21:23:31Z</time>
      </trkpt>
      <trkpt lat="42.78313" lon="1.37108">
        <ele>1037</ele>
        <time>2020-06-19T21:23:37Z</time>
      </trkpt>
      <trkpt lat="42.78264" lon="1.37201">
        <ele>1043</ele>
        <time>2020-06-19T21:23:52Z</time>
      </trkpt>
      <trkpt lat="42.78225" lon="1.37281">
        <ele>1052</ele>
        <time>2020-06-19T21:24:04Z</time>
      </trkpt>
      <trkpt lat="42.7821" lon="1.37296">
        <ele>1054</ele>
        <time>2020-06-19T21:24:08Z</time>
      </trkpt>
      <trkpt lat="42.78183" lon="1.37304">
        <ele>1051</ele>
        <time>2020-06-19T21:24:12Z</time>
      </trkpt>
      <trkpt lat="42.7817" lon="1.37307">
        <ele>1049</ele>
        <time>2020-06-19T21:24:15Z</time>
      </trkpt>
      <trkpt lat="42.78159" lon="1.37312">
        <ele>1048</ele>
        <time>2020-06-19T21:24:17Z</time>
      </trkpt>
      <trkpt lat="42.78146" lon="1.37322">
        <ele>1049</ele>
        <time>2020-06-19T21:24:20Z</time>
      </trkpt>
      <trkpt lat="42.78122" lon="1.37364">
        <ele>1057</ele>
        <time>2020-06-19T21:24:26Z</time>
      </trkpt>
      <trkpt lat="42.78102" lon="1.37393">
        <ele>1061</ele>
        <time>2020-06-19T21:24:32Z</time>
      </trkpt>
      <trkpt lat="42.78092" lon="1.37401">
        <ele>1061</ele>
        <time>2020-06-19T21:24:34Z</time>
      </trkpt>
      <trkpt lat="42.78083" lon="1.37402">
        <ele>1060</ele>
        <time>2020-06-19T21:24:35Z</time>
      </trkpt>
      <trkpt lat="42.78074" lon="1.374">
        <ele>1057</ele>
        <time>2020-06-19T21:24:37Z</time>
      </trkpt>
      <trkpt lat="42.78065" lon="1.37393">
        <ele>1053</ele>
        <time>2020-06-19T21:24:39Z</time>
      </trkpt>
      <trkpt lat="42.78059" lon="1.37391">
        <ele>1052</ele>
        <time>2020-06-19T21:24:40Z</time>
      </trkpt>
      <trkpt lat="42.78054" lon="1.37394">
        <ele>1051</ele>
        <time>2020-06-19T21:24:41Z</time>
      </trkpt>
      <trkpt lat="42.77991" lon="1.37535">
        <ele>1084</ele>
        <time>2020-06-19T21:25:02Z</time>
      </trkpt>
      <trkpt lat="42.77979" lon="1.3755">
        <ele>1088</ele>
        <time>2020-06-19T21:25:05Z</time>
      </trkpt>
      <trkpt lat="42.77953" lon="1.37567">
        <ele>1090</ele>
        <time>2020-06-19T21:25:10Z</time>
      </trkpt>
      <trkpt lat="42.77921" lon="1.37581">
        <ele>1086</ele>
        <time>2020-06-19T21:25:16Z</time>
      </trkpt>
      <trkpt lat="42.77877" lon="1.37581">
        <ele>1089</ele>
        <time>2020-06-19T21:25:24Z</time>
      </trkpt>
      <trkpt lat="42.77821" lon="1.37589">
        <ele>1097</ele>
        <time>2020-06-19T21:25:34Z</time>
      </trkpt>
      <trkpt lat="42.77788" lon="1.37602">
        <ele>1103</ele>
        <time>2020-06-19T21:25:40Z</time>
      </trkpt>
      <trkpt lat="42.77759" lon="1.37618">
        <ele>1108</ele>
        <time>2020-06-19T21:25:46Z</time>
      </trkpt>
      <trkpt lat="42.77737" lon="1.37641">
        <ele>1112</ele>
        <time>2020-06-19T21:25:51Z</time>
      </trkpt>
      <trkpt lat="42.77715" lon="1.37658">
        <ele>1112</ele>
        <time>2020-06-19T21:25:55Z</time>
      </trkpt>
      <trkpt lat="42.77696" lon="1.37664">
        <ele>1109</ele>
        <time>2020-06-19T21:25:59Z</time>
      </trkpt>
      <trkpt lat="42.77682" lon="1.37668">
        <ele>1106</ele>
        <time>2020-06-19T21:26:01Z</time>
      </trkpt>
      <trkpt lat="42.77672" lon="1.37677">
        <ele>1107</ele>
        <time>2020-06-19T21:26:04Z</time>
      </trkpt>
      <trkpt lat="42.77665" lon="1.37694">
        <ele>1110</ele>
        <time>2020-06-19T21:26:06Z</time>
      </trkpt>
      <trkpt lat="42.77654" lon="1.37731">
        <ele>1118</ele>
        <time>2020-06-19T21:26:11Z</time>
      </trkpt>
      <trkpt lat="42.77644" lon="1.37755">
        <ele>1121</ele>
        <time>2020-06-19T21:26:15Z</time>
      </trkpt>
      <trkpt lat="42.77633" lon="1.37782">
        <ele>1123</ele>
        <time>2020-06-19T21:26:19Z</time>
      </trkpt>
      <trkpt lat="42.77605" lon="1.37837">
        <ele>1126</ele>
        <time>2020-06-19T21:26:28Z</time>
      </trkpt>
      <trkpt lat="42.77586" lon="1.37863">
        <ele>1128</ele>
        <time>2020-06-19T21:26:32Z</time>
      </trkpt>
      <trkpt lat="42.77544" lon="1.37904">
        <ele>1130</ele>
        <time>2020-06-19T21:26:42Z</time>
      </trkpt>
      <trkpt lat="42.77532" lon="1.37925">
        <ele>1132</ele>
        <time>2020-06-19T21:26:45Z</time>
      </trkpt>
      <trkpt lat="42.77515" lon="1.37978">
        <ele>1143</ele>
        <time>2020-06-19T21:26:53Z</time>
      </trkpt>
      <trkpt lat="42.77502" lon="1.38">
        <ele>1144</ele>
        <time>2020-06-19T21:26:56Z</time>
      </trkpt>
      <trkpt lat="42.77483" lon="1.38024">
        <ele>1151</ele>
        <time>2020-06-19T21:27:01Z</time>
      </trkpt>
      <trkpt lat="42.77462" lon="1.38038">
        <ele>1152</ele>
        <time>2020-06-19T21:27:05Z</time>
      </trkpt>
      <trkpt lat="42.77431" lon="1.38047">
        <ele>1148</ele>
        <time>2020-06-19T21:27:11Z</time>
      </trkpt>
      <trkpt lat="42.77421" lon="1.38052">
        <ele>1148</ele>
        <time>2020-06-19T21:27:13Z</time>
      </trkpt>
      <trkpt lat="42.77417" lon="1.38064">
        <ele>1151</ele>
        <time>2020-06-19T21:27:14Z</time>
      </trkpt>
      <trkpt lat="42.7742" lon="1.38071">
        <ele>1154</ele>
        <time>2020-06-19T21:27:15Z</time>
      </trkpt>
      <trkpt lat="42.77425" lon="1.38076">
        <ele>1158</ele>
        <time>2020-06-19T21:27:17Z</time>
      </trkpt>
      <trkpt lat="42.77437" lon="1.38076">
        <ele>1161</ele>
        <time>2020-06-19T21:27:19Z</time>
      </trkpt>
      <trkpt lat="42.77488" lon="1.38048">
        <ele>1163</ele>
        <time>2020-06-19T21:27:28Z</time>
      </trkpt>
      <trkpt lat="42.77512" lon="1.38032">
        <ele>1165</ele>
        <time>2020-06-19T21:27:33Z</time>
      </trkpt>
      <trkpt lat="42.77528" lon="1.38017">
        <ele>1165</ele>
        <time>2020-06-19T21:27:37Z</time>
      </trkpt>
      <trkpt lat="42.77568" lon="1.3795">
        <ele>1156</ele>
        <time>2020-06-19T21:27:48Z</time>
      </trkpt>
      <trkpt lat="42.77629" lon="1.37906">
        <ele>1168</ele>
        <time>2020-06-19T21:28:00Z</time>
      </trkpt>
      <trkpt lat="42.7765" lon="1.37889">
        <ele>1171</ele>
        <time>2020-06-19T21:28:05Z</time>
      </trkpt>
      <trkpt lat="42.77693" lon="1.37831">
        <ele>1164</ele>
        <time>2020-06-19T21:28:15Z</time>
      </trkpt>
      <trkpt lat="42.77712" lon="1.37792">
        <ele>1161</ele>
        <time>2020-06-19T21:28:21Z</time>
      </trkpt>
      <trkpt lat="42.77717" lon="1.37786">
        <ele>1161</ele>
        <time>2020-06-19T21:28:23Z</time>
      </trkpt>
      <trkpt lat="42.77724" lon="1.37784">
        <ele>1163</ele>
        <time>2020-06-19T21:28:24Z</time>
      </trkpt>
      <trkpt lat="42.77757" lon="1.37788">
        <ele>1179</ele>
        <time>2020-06-19T21:28:30Z</time>
      </trkpt>
      <trkpt lat="42.7777" lon="1.37782">
        <ele>1180</ele>
        <time>2020-06-19T21:28:32Z</time>
      </trkpt>
      <trkpt lat="42.77792" lon="1.37755">
        <ele>1172</ele>
        <time>2020-06-19T21:28:38Z</time>
      </trkpt>
      <trkpt lat="42.77806" lon="1.3775">
        <ele>1172</ele>
        <time>2020-06-19T21:28:40Z</time>
      </trkpt>
      <trkpt lat="42.77815" lon="1.37754">
        <ele>1176</ele>
        <time>2020-06-19T21:28:42Z</time>
      </trkpt>
      <trkpt lat="42.77833" lon="1.3777">
        <ele>1189</ele>
        <time>2020-06-19T21:28:46Z</time>
      </trkpt>
      <trkpt lat="42.77847" lon="1.37772">
        <ele>1192</ele>
        <time>2020-06-19T21:28:48Z</time>
      </trkpt>
      <trkpt lat="42.77892" lon="1.37756">
        <ele>1191</ele>
        <time>2020-06-19T21:28:56Z</time>
      </trkpt>
      <trkpt lat="42.77904" lon="1.37755">
        <ele>1192</ele>
        <time>2020-06-19T21:28:59Z</time>
      </trkpt>
      <trkpt lat="42.77911" lon="1.37759">
        <ele>1195</ele>
        <time>2020-06-19T21:29:00Z</time>
      </trkpt>
      <trkpt lat="42.77914" lon="1.37766">
        <ele>1199</ele>
        <time>2020-06-19T21:29:01Z</time>
      </trkpt>
      <trkpt lat="42.77913" lon="1.37777">
        <ele>1204</ele>
        <time>2020-06-19T21:29:02Z</time>
      </trkpt>
      <trkpt lat="42.77906" lon="1.37783">
        <ele>1206</ele>
        <time>2020-06-19T21:29:04Z</time>
      </trkpt>
      <trkpt lat="42.77896" lon="1.37779">
        <ele>1203</ele>
        <time>2020-06-19T21:29:06Z</time>
      </trkpt>
      <trkpt lat="42.77879" lon="1.37779">
        <ele>1201</ele>
        <time>2020-06-19T21:29:09Z</time>
      </trkpt>
      <trkpt lat="42.77864" lon="1.37785">
        <ele>1202</ele>
        <time>2020-06-19T21:29:12Z</time>
      </trkpt>
      <trkpt lat="42.77846" lon="1.37796">
        <ele>1205</ele>
        <time>2020-06-19T21:29:15Z</time>
      </trkpt>
      <trkpt lat="42.77807" lon="1.37811">
        <ele>1204</ele>
        <time>2020-06-19T21:29:22Z</time>
      </trkpt>
      <trkpt lat="42.77777" lon="1.37831">
        <ele>1204</ele>
        <time>2020-06-19T21:29:28Z</time>
      </trkpt>
      <trkpt lat="42.77762" lon="1.37833">
        <ele>1200</ele>
        <time>2020-06-19T21:29:31Z</time>
      </trkpt>
      <trkpt lat="42.77754" lon="1.37838">
        <ele>1200</ele>
        <time>2020-06-19T21:29:32Z</time>
      </trkpt>
      <trkpt lat="42.77752" lon="1.37848">
        <ele>1205</ele>
        <time>2020-06-19T21:29:34Z</time>
      </trkpt>
      <trkpt lat="42.77753" lon="1.37858">
        <ele>1211</ele>
        <time>2020-06-19T21:29:35Z</time>
      </trkpt>
      <trkpt lat="42.77761" lon="1.37862">
        <ele>1215</ele>
        <time>2020-06-19T21:29:37Z</time>
      </trkpt>
      <trkpt lat="42.77771" lon="1.37859">
        <ele>1217</ele>
        <time>2020-06-19T21:29:38Z</time>
      </trkpt>
      <trkpt lat="42.77822" lon="1.37833">
        <ele>1221</ele>
        <time>2020-06-19T21:29:48Z</time>
      </trkpt>
      <trkpt lat="42.77855" lon="1.37825">
        <ele>1222</ele>
        <time>2020-06-19T21:29:54Z</time>
      </trkpt>
      <trkpt lat="42.77875" lon="1.37827">
        <ele>1225</ele>
        <time>2020-06-19T21:29:58Z</time>
      </trkpt>
      <trkpt lat="42.77897" lon="1.37839">
        <ele>1233</ele>
        <time>2020-06-19T21:30:02Z</time>
      </trkpt>
      <trkpt lat="42.77911" lon="1.37837">
        <ele>1233</ele>
        <time>2020-06-19T21:30:04Z</time>
      </trkpt>
      <trkpt lat="42.77939" lon="1.37818">
        <ele>1227</ele>
        <time>2020-06-19T21:30:10Z</time>
      </trkpt>
      <trkpt lat="42.7796" lon="1.37809">
        <ele>1226</ele>
        <time>2020-06-19T21:30:14Z</time>
      </trkpt>
      <trkpt lat="42.77978" lon="1.3781">
        <ele>1228</ele>
        <time>2020-06-19T21:30:17Z</time>
      </trkpt>
      <trkpt lat="42.77987" lon="1.37815">
        <ele>1232</ele>
        <time>2020-06-19T21:30:19Z</time>
      </trkpt>
      <trkpt lat="42.7799" lon="1.37828">
        <ele>1239</ele>
        <time>2020-06-19T21:30:21Z</time>
      </trkpt>
      <trkpt lat="42.77986" lon="1.37836">
        <ele>1242</ele>
        <time>2020-06-19T21:30:22Z</time>
      </trkpt>
      <trkpt lat="42.77976" lon="1.3784">
        <ele>1243</ele>
        <time>2020-06-19T21:30:24Z</time>
      </trkpt>
      <trkpt lat="42.77949" lon="1.37837">
        <ele>1238</ele>
        <time>2020-06-19T21:30:29Z</time>
      </trkpt>
      <trkpt lat="42.77942" lon="1.37843">
        <ele>1239</ele>
        <time>2020-06-19T21:30:30Z</time>
      </trkpt>
      <trkpt lat="42.77922" lon="1.37877">
        <ele>1250</ele>
        <time>2020-06-19T21:30:36Z</time>
      </trkpt>
      <trkpt lat="42.7791" lon="1.37893">
        <ele>1255</ele>
        <time>2020-06-19T21:30:39Z</time>
      </trkpt>
      <trkpt lat="42.7789" lon="1.37906">
        <ele>1258</ele>
        <time>2020-06-19T21:30:43Z</time>
      </trkpt>
      <trkpt lat="42.77872" lon="1.37906">
        <ele>1257</ele>
        <time>2020-06-19T21:30:46Z</time>
      </trkpt>
      <trkpt lat="42.77847" lon="1.37894">
        <ele>1250</ele>
        <time>2020-06-19T21:30:51Z</time>
      </trkpt>
      <trkpt lat="42.77834" lon="1.3789">
        <ele>1247</ele>
        <time>2020-06-19T21:30:53Z</time>
      </trkpt>
      <trkpt lat="42.77828" lon="1.37893">
        <ele>1247</ele>
        <time>2020-06-19T21:30:54Z</time>
      </trkpt>
      <trkpt lat="42.77824" lon="1.37901">
        <ele>1249</ele>
        <time>2020-06-19T21:30:55Z</time>
      </trkpt>
      <trkpt lat="42.77826" lon="1.37911">
        <ele>1254</ele>
        <time>2020-06-19T21:30:57Z</time>
      </trkpt>
      <trkpt lat="42.77833" lon="1.3792">
        <ele>1259</ele>
        <time>2020-06-19T21:30:58Z</time>
      </trkpt>
      <trkpt lat="42.77846" lon="1.37923">
        <ele>1261</ele>
        <time>2020-06-19T21:31:01Z</time>
      </trkpt>
      <trkpt lat="42.77885" lon="1.37936">
        <ele>1270</ele>
        <time>2020-06-19T21:31:08Z</time>
      </trkpt>
      <trkpt lat="42.77901" lon="1.37938">
        <ele>1272</ele>
        <time>2020-06-19T21:31:11Z</time>
      </trkpt>
      <trkpt lat="42.77918" lon="1.37935">
        <ele>1272</ele>
        <time>2020-06-19T21:31:14Z</time>
      </trkpt>
      <trkpt lat="42.77938" lon="1.37926">
        <ele>1272</ele>
        <time>2020-06-19T21:31:18Z</time>
      </trkpt>
      <trkpt lat="42.77955" lon="1.37909">
        <ele>1268</ele>
        <time>2020-06-19T21:31:21Z</time>
      </trkpt>
      <trkpt lat="42.77974" lon="1.37887">
        <ele>1262</ele>
        <time>2020-06-19T21:31:26Z</time>
      </trkpt>
      <trkpt lat="42.77982" lon="1.37883">
        <ele>1261</ele>
        <time>2020-06-19T21:31:27Z</time>
      </trkpt>
      <trkpt lat="42.77993" lon="1.37883">
        <ele>1263</ele>
        <time>2020-06-19T21:31:29Z</time>
      </trkpt>
      <trkpt lat="42.78002" lon="1.37888">
        <ele>1266</ele>
        <time>2020-06-19T21:31:31Z</time>
      </trkpt>
      <trkpt lat="42.78019" lon="1.37916">
        <ele>1278</ele>
        <time>2020-06-19T21:31:36Z</time>
      </trkpt>
      <trkpt lat="42.78031" lon="1.37932">
        <ele>1285</ele>
        <time>2020-06-19T21:31:39Z</time>
      </trkpt>
      <trkpt lat="42.78041" lon="1.37936">
        <ele>1287</ele>
        <time>2020-06-19T21:31:41Z</time>
      </trkpt>
      <trkpt lat="42.78051" lon="1.37936">
        <ele>1288</ele>
        <time>2020-06-19T21:31:42Z</time>
      </trkpt>
      <trkpt lat="42.78114" lon="1.37898">
        <ele>1274</ele>
        <time>2020-06-19T21:31:55Z</time>
      </trkpt>
      <trkpt lat="42.78134" lon="1.37892">
        <ele>1274</ele>
        <time>2020-06-19T21:31:58Z</time>
      </trkpt>
      <trkpt lat="42.7815" lon="1.37894">
        <ele>1276</ele>
        <time>2020-06-19T21:32:01Z</time>
      </trkpt>
      <trkpt lat="42.78155" lon="1.37898">
        <ele>1277</ele>
        <time>2020-06-19T21:32:02Z</time>
      </trkpt>
      <trkpt lat="42.78157" lon="1.37907">
        <ele>1281</ele>
        <time>2020-06-19T21:32:03Z</time>
      </trkpt>
      <trkpt lat="42.78153" lon="1.37916">
        <ele>1284</ele>
        <time>2020-06-19T21:32:05Z</time>
      </trkpt>
      <trkpt lat="42.78147" lon="1.37918">
        <ele>1284</ele>
        <time>2020-06-19T21:32:06Z</time>
      </trkpt>
      <trkpt lat="42.78125" lon="1.37912">
        <ele>1280</ele>
        <time>2020-06-19T21:32:10Z</time>
      </trkpt>
      <trkpt lat="42.78111" lon="1.37916">
        <ele>1281</ele>
        <time>2020-06-19T21:32:12Z</time>
      </trkpt>
      <trkpt lat="42.78091" lon="1.37935">
        <ele>1289</ele>
        <time>2020-06-19T21:32:17Z</time>
      </trkpt>
      <trkpt lat="42.78067" lon="1.37966">
        <ele>1303</ele>
        <time>2020-06-19T21:32:23Z</time>
      </trkpt>
      <trkpt lat="42.78051" lon="1.37979">
        <ele>1308</ele>
        <time>2020-06-19T21:32:26Z</time>
      </trkpt>
      <trkpt lat="42.77981" lon="1.38011">
        <ele>1312</ele>
        <time>2020-06-19T21:32:39Z</time>
      </trkpt>
      <trkpt lat="42.7794" lon="1.38042">
        <ele>1319</ele>
        <time>2020-06-19T21:32:47Z</time>
      </trkpt>
      <trkpt lat="42.77888" lon="1.38067">
        <ele>1326</ele>
        <time>2020-06-19T21:32:57Z</time>
      </trkpt>
      <trkpt lat="42.77866" lon="1.38073">
        <ele>1328</ele>
        <time>2020-06-19T21:33:01Z</time>
      </trkpt>
      <trkpt lat="42.7784" lon="1.38071">
        <ele>1327</ele>
        <time>2020-06-19T21:33:06Z</time>
      </trkpt>
      <trkpt lat="42.77829" lon="1.38073">
        <ele>1327</ele>
        <time>2020-06-19T21:33:08Z</time>
      </trkpt>
      <trkpt lat="42.77825" lon="1.38078">
        <ele>1329</ele>
        <time>2020-06-19T21:33:09Z</time>
      </trkpt>
      <trkpt lat="42.77824" lon="1.38095">
        <ele>1338</ele>
        <time>2020-06-19T21:33:11Z</time>
      </trkpt>
      <trkpt lat="42.77834" lon="1.381">
        <ele>1342</ele>
        <time>2020-06-19T21:33:13Z</time>
      </trkpt>
      <trkpt lat="42.77875" lon="1.38093">
        <ele>1338</ele>
        <time>2020-06-19T21:33:20Z</time>
      </trkpt>
      <trkpt lat="42.77904" lon="1.38081">
        <ele>1333</ele>
        <time>2020-06-19T21:33:26Z</time>
      </trkpt>
      <trkpt lat="42.77912" lon="1.38082">
        <ele>1333</ele>
        <time>2020-06-19T21:33:27Z</time>
      </trkpt>
      <trkpt lat="42.77934" lon="1.38095">
        <ele>1342</ele>
        <time>2020-06-19T21:33:31Z</time>
      </trkpt>
      <trkpt lat="42.77947" lon="1.38096">
        <ele>1344</ele>
        <time>2020-06-19T21:33:34Z</time>
      </trkpt>
      <trkpt lat="42.7797" lon="1.38092">
        <ele>1345</ele>
        <time>2020-06-19T21:33:38Z</time>
      </trkpt>
      <trkpt lat="42.78023" lon="1.38069">
        <ele>1340</ele>
        <time>2020-06-19T21:33:48Z</time>
      </trkpt>
      <trkpt lat="42.7806" lon="1.38065">
        <ele>1342</ele>
        <time>2020-06-19T21:33:54Z</time>
      </trkpt>
      <trkpt lat="42.78079" lon="1.38069">
        <ele>1346</ele>
        <time>2020-06-19T21:33:58Z</time>
      </trkpt>
      <trkpt lat="42.78087" lon="1.3808">
        <ele>1349</ele>
        <time>2020-06-19T21:34:00Z</time>
      </trkpt>
      <trkpt lat="42.78092" lon="1.38097">
        <ele>1351</ele>
        <time>2020-06-19T21:34:02Z</time>
      </trkpt>
      <trkpt lat="42.78105" lon="1.38179">
        <ele>1364</ele>
        <time>2020-06-19T21:34:13Z</time>
      </trkpt>
      <trkpt lat="42.78104" lon="1.38199">
        <ele>1366</ele>
        <time>2020-06-19T21:34:16Z</time>
      </trkpt>
      <trkpt lat="42.78095" lon="1.38268">
        <ele>1375</ele>
        <time>2020-06-19T21:34:25Z</time>
      </trkpt>
      <trkpt lat="42.78095" lon="1.38293">
        <ele>1377</ele>
        <time>2020-06-19T21:34:28Z</time>
      </trkpt>
      <trkpt lat="42.78099" lon="1.38303">
        <ele>1378</ele>
        <time>2020-06-19T21:34:30Z</time>
      </trkpt>
      <trkpt lat="42.78105" lon="1.38308">
        <ele>1378</ele>
        <time>2020-06-19T21:34:31Z</time>
      </trkpt>
      <trkpt lat="42.78112" lon="1.38309">
        <ele>1378</ele>
        <time>2020-06-19T21:34:32Z</time>
      </trkpt>
      <trkpt lat="42.7813" lon="1.383">
        <ele>1376</ele>
        <time>2020-06-19T21:34:35Z</time>
      </trkpt>
      <trkpt lat="42.7815" lon="1.38295">
        <ele>1374</ele>
        <time>2020-06-19T21:34:39Z</time>
      </trkpt>
      <trkpt lat="42.78166" lon="1.38297">
        <ele>1373</ele>
        <time>2020-06-19T21:34:42Z</time>
      </trkpt>
      <trkpt lat="42.78181" lon="1.38311">
        <ele>1376</ele>
        <time>2020-06-19T21:34:45Z</time>
      </trkpt>
      <trkpt lat="42.7821" lon="1.38389">
        <ele>1388</ele>
        <time>2020-06-19T21:34:57Z</time>
      </trkpt>
      <trkpt lat="42.78235" lon="1.38437">
        <ele>1393</ele>
        <time>2020-06-19T21:35:04Z</time>
      </trkpt>
      <trkpt lat="42.78265" lon="1.38554">
        <ele>1396</ele>
        <time>2020-06-19T21:35:20Z</time>
      </trkpt>
      <trkpt lat="42.78277" lon="1.38582">
        <ele>1398</ele>
        <time>2020-06-19T21:35:25Z</time>
      </trkpt>
      <trkpt lat="42.78291" lon="1.38611">
        <ele>1399</ele>
        <time>2020-06-19T21:35:29Z</time>
      </trkpt>
      <trkpt lat="42.78306" lon="1.38638">
        <ele>1401</ele>
        <time>2020-06-19T21:35:34Z</time>
      </trkpt>
      <trkpt lat="42.78308" lon="1.38642">
        <ele>1401</ele>
        <time>2020-06-19T21:35:34Z</time>
      </trkpt>
      <trkpt lat="42.78312" lon="1.3865">
        <ele>1402</ele>
        <time>2020-06-19T21:35:36Z</time>
      </trkpt>
      <trkpt lat="42.78319" lon="1.38667">
        <ele>1403</ele>
        <time>2020-06-19T21:35:38Z</time>
      </trkpt>
      <trkpt lat="42.7832" lon="1.38646">
        <ele>1402</ele>
        <time>2020-06-19T21:35:41Z</time>
      </trkpt>
      <trkpt lat="42.78319" lon="1.38667">
        <ele>1403</ele>
        <time>2020-06-19T21:35:44Z</time>
      </trkpt>
      <trkpt lat="42.78332" lon="1.38696">
        <ele>1406</ele>
        <time>2020-06-19T21:35:48Z</time>
      </trkpt>
      <trkpt lat="42.78332" lon="1.38722">
        <ele>1407</ele>
        <time>2020-06-19T21:35:51Z</time>
      </trkpt>
      <trkpt lat="42.78302" lon="1.38814">
        <ele>1414</ele>
        <time>2020-06-19T21:36:05Z</time>
      </trkpt>
      <trkpt lat="42.78296" lon="1.38856">
        <ele>1417</ele>
        <time>2020-06-19T21:36:10Z</time>
      </trkpt>
      <trkpt lat="42.78303" lon="1.38914">
        <ele>1421</ele>
        <time>2020-06-19T21:36:18Z</time>
      </trkpt>
      <trkpt lat="42.78314" lon="1.38947">
        <ele>1424</ele>
        <time>2020-06-19T21:36:23Z</time>
      </trkpt>
      <trkpt lat="42.78328" lon="1.38967">
        <ele>1425</ele>
        <time>2020-06-19T21:36:26Z</time>
      </trkpt>
      <trkpt lat="42.78344" lon="1.38972">
        <ele>1430</ele>
        <time>2020-06-19T21:36:29Z</time>
      </trkpt>
      <trkpt lat="42.78356" lon="1.38966">
        <ele>1433</ele>
        <time>2020-06-19T21:36:31Z</time>
      </trkpt>
      <trkpt lat="42.7837" lon="1.38953">
        <ele>1436</ele>
        <time>2020-06-19T21:36:34Z</time>
      </trkpt>
      <trkpt lat="42.78381" lon="1.38933">
        <ele>1437</ele>
        <time>2020-06-19T21:36:38Z</time>
      </trkpt>
      <trkpt lat="42.78392" lon="1.38878">
        <ele>1430</ele>
        <time>2020-06-19T21:36:45Z</time>
      </trkpt>
      <trkpt lat="42.78399" lon="1.38858">
        <ele>1427</ele>
        <time>2020-06-19T21:36:48Z</time>
      </trkpt>
      <trkpt lat="42.78411" lon="1.38839">
        <ele>1425</ele>
        <time>2020-06-19T21:36:51Z</time>
      </trkpt>
      <trkpt lat="42.78435" lon="1.38808">
        <ele>1427</ele>
        <time>2020-06-19T21:36:57Z</time>
      </trkpt>
      <trkpt lat="42.7848" lon="1.38736">
        <ele>1429</ele>
        <time>2020-06-19T21:37:09Z</time>
      </trkpt>
      <trkpt lat="42.78487" lon="1.38715">
        <ele>1429</ele>
        <time>2020-06-19T21:37:12Z</time>
      </trkpt>
      <trkpt lat="42.7849" lon="1.38673">
        <ele>1425</ele>
        <time>2020-06-19T21:37:18Z</time>
      </trkpt>
      <trkpt lat="42.78496" lon="1.38641">
        <ele>1424</ele>
        <time>2020-06-19T21:37:22Z</time>
      </trkpt>
      <trkpt lat="42.78519" lon="1.38602">
        <ele>1429</ele>
        <time>2020-06-19T21:37:29Z</time>
      </trkpt>
      <trkpt lat="42.78537" lon="1.38554">
        <ele>1429</ele>
        <time>2020-06-19T21:37:36Z</time>
      </trkpt>
      <trkpt lat="42.78548" lon="1.38531">
        <ele>1429</ele>
        <time>2020-06-19T21:37:39Z</time>
      </trkpt>
      <trkpt lat="42.78586" lon="1.38486">
        <ele>1433</ele>
        <time>2020-06-19T21:37:48Z</time>
      </trkpt>
      <trkpt lat="42.78598" lon="1.38479">
        <ele>1433</ele>
        <time>2020-06-19T21:37:51Z</time>
      </trkpt>
      <trkpt lat="42.78613" lon="1.38477">
        <ele>1436</ele>
        <time>2020-06-19T21:37:53Z</time>
      </trkpt>
      <trkpt lat="42.78671" lon="1.38489">
        <ele>1452</ele>
        <time>2020-06-19T21:38:04Z</time>
      </trkpt>
      <trkpt lat="42.78694" lon="1.38486">
        <ele>1457</ele>
        <time>2020-06-19T21:38:08Z</time>
      </trkpt>
      <trkpt lat="42.78778" lon="1.38438">
        <ele>1461</ele>
        <time>2020-06-19T21:38:24Z</time>
      </trkpt>
      <trkpt lat="42.78825" lon="1.38409">
        <ele>1468</ele>
        <time>2020-06-19T21:38:33Z</time>
      </trkpt>
      <trkpt lat="42.78837" lon="1.38394">
        <ele>1467</ele>
        <time>2020-06-19T21:38:36Z</time>
      </trkpt>
      <trkpt lat="42.78863" lon="1.38347">
        <ele>1462</ele>
        <time>2020-06-19T21:38:44Z</time>
      </trkpt>
      <trkpt lat="42.7889" lon="1.3831">
        <ele>1465</ele>
        <time>2020-06-19T21:38:51Z</time>
      </trkpt>
      <trkpt lat="42.78912" lon="1.3829">
        <ele>1471</ele>
        <time>2020-06-19T21:38:55Z</time>
      </trkpt>
      <trkpt lat="42.78922" lon="1.38277">
        <ele>1474</ele>
        <time>2020-06-19T21:38:58Z</time>
      </trkpt>
      <trkpt lat="42.78949" lon="1.38225">
        <ele>1477</ele>
        <time>2020-06-19T21:39:06Z</time>
      </trkpt>
      <trkpt lat="42.78988" lon="1.3818">
        <ele>1488</ele>
        <time>2020-06-19T21:39:15Z</time>
      </trkpt>
      <trkpt lat="42.79003" lon="1.3815">
        <ele>1493</ele>
        <time>2020-06-19T21:39:20Z</time>
      </trkpt>
      <trkpt lat="42.79006" lon="1.38134">
        <ele>1495</ele>
        <time>2020-06-19T21:39:22Z</time>
      </trkpt>
      <trkpt lat="42.79006" lon="1.38118">
        <ele>1494</ele>
        <time>2020-06-19T21:39:24Z</time>
      </trkpt>
      <trkpt lat="42.78998" lon="1.38037">
        <ele>1486</ele>
        <time>2020-06-19T21:39:35Z</time>
      </trkpt>
      <trkpt lat="42.78998" lon="1.38016">
        <ele>1485</ele>
        <time>2020-06-19T21:39:38Z</time>
      </trkpt>
      <trkpt lat="42.79001" lon="1.38001">
        <ele>1487</ele>
        <time>2020-06-19T21:39:40Z</time>
      </trkpt>
      <trkpt lat="42.79008" lon="1.37994">
        <ele>1490</ele>
        <time>2020-06-19T21:39:41Z</time>
      </trkpt>
      <trkpt lat="42.79029" lon="1.37978">
        <ele>1499</ele>
        <time>2020-06-19T21:39:46Z</time>
      </trkpt>
      <trkpt lat="42.7904" lon="1.37961">
        <ele>1501</ele>
        <time>2020-06-19T21:39:49Z</time>
      </trkpt>
      <trkpt lat="42.79074" lon="1.37892">
        <ele>1500</ele>
        <time>2020-06-19T21:39:59Z</time>
      </trkpt>
      <trkpt lat="42.79091" lon="1.37873">
        <ele>1501</ele>
        <time>2020-06-19T21:40:03Z</time>
      </trkpt>
      <trkpt lat="42.79166" lon="1.37831">
        <ele>1515</ele>
        <time>2020-06-19T21:40:18Z</time>
      </trkpt>
      <trkpt lat="42.79213" lon="1.37792">
        <ele>1522</ele>
        <time>2020-06-19T21:40:28Z</time>
      </trkpt>
      <trkpt lat="42.79227" lon="1.37775">
        <ele>1523</ele>
        <time>2020-06-19T21:40:31Z</time>
      </trkpt>
      <trkpt lat="42.7924" lon="1.37739">
        <ele>1521</ele>
        <time>2020-06-19T21:40:36Z</time>
      </trkpt>
      <trkpt lat="42.79263" lon="1.37671">
        <ele>1526</ele>
        <time>2020-06-19T21:40:46Z</time>
      </trkpt>
      <trkpt lat="42.79279" lon="1.37599">
        <ele>1535</ele>
        <time>2020-06-19T21:40:56Z</time>
      </trkpt>
      <trkpt lat="42.79284" lon="1.37591">
        <ele>1536</ele>
        <time>2020-06-19T21:40:57Z</time>
      </trkpt>
      <trkpt lat="42.7929" lon="1.37591">
        <ele>1538</ele>
        <time>2020-06-19T21:40:58Z</time>
      </trkpt>
      <trkpt lat="42.79296" lon="1.37593">
        <ele>1539</ele>
        <time>2020-06-19T21:40:59Z</time>
      </trkpt>
      <trkpt lat="42.79297" lon="1.37602">
        <ele>1539</ele>
        <time>2020-06-19T21:41:00Z</time>
      </trkpt>
      <trkpt lat="42.79286" lon="1.37638">
        <ele>1535</ele>
        <time>2020-06-19T21:41:06Z</time>
      </trkpt>
      <trkpt lat="42.79269" lon="1.37722">
        <ele>1533</ele>
        <time>2020-06-19T21:41:17Z</time>
      </trkpt>
      <trkpt lat="42.79269" lon="1.37777">
        <ele>1542</ele>
        <time>2020-06-19T21:41:24Z</time>
      </trkpt>
      <trkpt lat="42.79267" lon="1.37789">
        <ele>1545</ele>
        <time>2020-06-19T21:41:26Z</time>
      </trkpt>
      <trkpt lat="42.79256" lon="1.37813">
        <ele>1547</ele>
        <time>2020-06-19T21:41:29Z</time>
      </trkpt>
      <trkpt lat="42.79254" lon="1.37824">
        <ele>1549</ele>
        <time>2020-06-19T21:41:31Z</time>
      </trkpt>
      <trkpt lat="42.79257" lon="1.37832">
        <ele>1552</ele>
        <time>2020-06-19T21:41:32Z</time>
      </trkpt>
      <trkpt lat="42.79262" lon="1.37833">
        <ele>1554</ele>
        <time>2020-06-19T21:41:33Z</time>
      </trkpt>
      <trkpt lat="42.79268" lon="1.37828">
        <ele>1555</ele>
        <time>2020-06-19T21:41:34Z</time>
      </trkpt>
      <trkpt lat="42.79272" lon="1.37822">
        <ele>1555</ele>
        <time>2020-06-19T21:41:35Z</time>
      </trkpt>
      <trkpt lat="42.79284" lon="1.37786">
        <ele>1551</ele>
        <time>2020-06-19T21:41:40Z</time>
      </trkpt>
      <trkpt lat="42.7929" lon="1.37757">
        <ele>1547</ele>
        <time>2020-06-19T21:41:44Z</time>
      </trkpt>
      <trkpt lat="42.79298" lon="1.37697">
        <ele>1543</ele>
        <time>2020-06-19T21:41:52Z</time>
      </trkpt>
      <trkpt lat="42.79306" lon="1.3768">
        <ele>1544</ele>
        <time>2020-06-19T21:41:55Z</time>
      </trkpt>
      <trkpt lat="42.79339" lon="1.37657">
        <ele>1555</ele>
        <time>2020-06-19T21:42:02Z</time>
      </trkpt>
      <trkpt lat="42.79353" lon="1.37638">
        <ele>1558</ele>
        <time>2020-06-19T21:42:05Z</time>
      </trkpt>
      <trkpt lat="42.79368" lon="1.37608">
        <ele>1561</ele>
        <time>2020-06-19T21:42:10Z</time>
      </trkpt>
      <trkpt lat="42.79382" lon="1.3756">
        <ele>1564</ele>
        <time>2020-06-19T21:42:17Z</time>
      </trkpt>
      <trkpt lat="42.7939" lon="1.37515">
        <ele>1568</ele>
        <time>2020-06-19T21:42:23Z</time>
      </trkpt>
      <trkpt lat="42.79392" lon="1.37501">
        <ele>1568</ele>
        <time>2020-06-19T21:42:24Z</time>
      </trkpt>
      <trkpt lat="42.79392" lon="1.37435">
        <ele>1568</ele>
        <time>2020-06-19T21:42:33Z</time>
      </trkpt>
      <trkpt lat="42.79397" lon="1.37416">
        <ele>1568</ele>
        <time>2020-06-19T21:42:36Z</time>
      </trkpt>
      <trkpt lat="42.79405" lon="1.37397">
        <ele>1566</ele>
        <time>2020-06-19T21:42:39Z</time>
      </trkpt>
      <trkpt lat="42.79407" lon="1.37395">
        <ele>1566</ele>
        <time>2020-06-19T21:42:39Z</time>
      </trkpt>
      <trkpt lat="42.79414" lon="1.37384">
        <ele>1565</ele>
        <time>2020-06-19T21:42:41Z</time>
      </trkpt>
      <trkpt lat="42.79417" lon="1.3738">
        <ele>1564</ele>
        <time>2020-06-19T21:42:42Z</time>
      </trkpt>
      <trkpt lat="42.79427" lon="1.37369">
        <ele>1565</ele>
        <time>2020-06-19T21:42:44Z</time>
      </trkpt>
      <trkpt lat="42.7944" lon="1.37361">
        <ele>1566</ele>
        <time>2020-06-19T21:42:46Z</time>
      </trkpt>
      <trkpt lat="42.79466" lon="1.37349">
        <ele>1566</ele>
        <time>2020-06-19T21:42:51Z</time>
      </trkpt>
      <trkpt lat="42.79491" lon="1.37341">
        <ele>1566</ele>
        <time>2020-06-19T21:42:56Z</time>
      </trkpt>
      <trkpt lat="42.79516" lon="1.37338">
        <ele>1567</ele>
        <time>2020-06-19T21:43:00Z</time>
      </trkpt>
      <trkpt lat="42.79524" lon="1.37335">
        <ele>1567</ele>
        <time>2020-06-19T21:43:02Z</time>
      </trkpt>
      <trkpt lat="42.79531" lon="1.37328">
        <ele>1566</ele>
        <time>2020-06-19T21:43:03Z</time>
      </trkpt>
      <trkpt lat="42.79534" lon="1.37317">
        <ele>1564</ele>
        <time>2020-06-19T21:43:05Z</time>
      </trkpt>
      <trkpt lat="42.79533" lon="1.37307">
        <ele>1562</ele>
        <time>2020-06-19T21:43:06Z</time>
      </trkpt>
      <trkpt lat="42.79527" lon="1.37298">
        <ele>1559</ele>
        <time>2020-06-19T21:43:08Z</time>
      </trkpt>
      <trkpt lat="42.79519" lon="1.37295">
        <ele>1558</ele>
        <time>2020-06-19T21:43:09Z</time>
      </trkpt>
      <trkpt lat="42.79497" lon="1.37295">
        <ele>1558</ele>
        <time>2020-06-19T21:43:13Z</time>
      </trkpt>
      <trkpt lat="42.79483" lon="1.37299">
        <ele>1560</ele>
        <time>2020-06-19T21:43:16Z</time>
      </trkpt>
      <trkpt lat="42.79468" lon="1.37295">
        <ele>1561</ele>
        <time>2020-06-19T21:43:19Z</time>
      </trkpt>
      <trkpt lat="42.7946" lon="1.37285">
        <ele>1562</ele>
        <time>2020-06-19T21:43:20Z</time>
      </trkpt>
      <trkpt lat="42.79456" lon="1.37271">
        <ele>1562</ele>
        <time>2020-06-19T21:43:22Z</time>
      </trkpt>
      <trkpt lat="42.79455" lon="1.37259">
        <ele>1562</ele>
        <time>2020-06-19T21:43:24Z</time>
      </trkpt>
      <trkpt lat="42.79458" lon="1.3723">
        <ele>1557</ele>
        <time>2020-06-19T21:43:28Z</time>
      </trkpt>
      <trkpt lat="42.79457" lon="1.37204">
        <ele>1553</ele>
        <time>2020-06-19T21:43:31Z</time>
      </trkpt>
      <trkpt lat="42.79451" lon="1.37147">
        <ele>1553</ele>
        <time>2020-06-19T21:43:39Z</time>
      </trkpt>
      <trkpt lat="42.79449" lon="1.37099">
        <ele>1561</ele>
        <time>2020-06-19T21:43:45Z</time>
      </trkpt>
      <trkpt lat="42.79463" lon="1.3703">
        <ele>1560</ele>
        <time>2020-06-19T21:43:54Z</time>
      </trkpt>
      <trkpt lat="42.79485" lon="1.36983">
        <ele>1563</ele>
        <time>2020-06-19T21:44:02Z</time>
      </trkpt>
      <trkpt lat="42.79499" lon="1.36966">
        <ele>1566</ele>
        <time>2020-06-19T21:44:05Z</time>
      </trkpt>
      <trkpt lat="42.79523" lon="1.36946">
        <ele>1560</ele>
        <time>2020-06-19T21:44:10Z</time>
      </trkpt>
      <trkpt lat="42.79544" lon="1.36938">
        <ele>1553</ele>
        <time>2020-06-19T21:44:14Z</time>
      </trkpt>
      <trkpt lat="42.79564" lon="1.36938">
        <ele>1544</ele>
        <time>2020-06-19T21:44:17Z</time>
      </trkpt>
      <trkpt lat="42.79611" lon="1.36933">
        <ele>1526</ele>
        <time>2020-06-19T21:44:26Z</time>
      </trkpt>
      <trkpt lat="42.79628" lon="1.36923">
        <ele>1523</ele>
        <time>2020-06-19T21:44:29Z</time>
      </trkpt>
      <trkpt lat="42.79651" lon="1.36905">
        <ele>1520</ele>
        <time>2020-06-19T21:44:34Z</time>
      </trkpt>
      <trkpt lat="42.79669" lon="1.36886">
        <ele>1518</ele>
        <time>2020-06-19T21:44:38Z</time>
      </trkpt>
      <trkpt lat="42.7968" lon="1.36861">
        <ele>1520</ele>
        <time>2020-06-19T21:44:42Z</time>
      </trkpt>
      <trkpt lat="42.79686" lon="1.36796">
        <ele>1535</ele>
        <time>2020-06-19T21:44:50Z</time>
      </trkpt>
      <trkpt lat="42.79692" lon="1.36776">
        <ele>1537</ele>
        <time>2020-06-19T21:44:53Z</time>
      </trkpt>
      <trkpt lat="42.79707" lon="1.36755">
        <ele>1534</ele>
        <time>2020-06-19T21:44:57Z</time>
      </trkpt>
      <trkpt lat="42.79726" lon="1.36749">
        <ele>1526</ele>
        <time>2020-06-19T21:45:00Z</time>
      </trkpt>
      <trkpt lat="42.79736" lon="1.36756">
        <ele>1519</ele>
        <time>2020-06-19T21:45:02Z</time>
      </trkpt>
      <trkpt lat="42.79762" lon="1.36787">
        <ele>1508</ele>
        <time>2020-06-19T21:45:08Z</time>
      </trkpt>
      <trkpt lat="42.79869" lon="1.36897">
        <ele>1499</ele>
        <time>2020-06-19T21:45:32Z</time>
      </trkpt>
      <trkpt lat="42.79891" lon="1.3691">
        <ele>1499</ele>
        <time>2020-06-19T21:45:37Z</time>
      </trkpt>
      <trkpt lat="42.79913" lon="1.36919">
        <ele>1499</ele>
        <time>2020-06-19T21:45:41Z</time>
      </trkpt>
      <trkpt lat="42.79932" lon="1.3692">
        <ele>1497</ele>
        <time>2020-06-19T21:45:44Z</time>
      </trkpt>
      <trkpt lat="42.79964" lon="1.36917">
        <ele>1493</ele>
        <time>2020-06-19T21:45:50Z</time>
      </trkpt>
      <trkpt lat="42.79972" lon="1.36921">
        <ele>1491</ele>
        <time>2020-06-19T21:45:51Z</time>
      </trkpt>
      <trkpt lat="42.79978" lon="1.36933">
        <ele>1486</ele>
        <time>2020-06-19T21:45:53Z</time>
      </trkpt>
      <trkpt lat="42.79977" lon="1.36942">
        <ele>1483</ele>
        <time>2020-06-19T21:45:54Z</time>
      </trkpt>
      <trkpt lat="42.79969" lon="1.36956">
        <ele>1479</ele>
        <time>2020-06-19T21:45:57Z</time>
      </trkpt>
      <trkpt lat="42.79918" lon="1.36979">
        <ele>1475</ele>
        <time>2020-06-19T21:46:06Z</time>
      </trkpt>
      <trkpt lat="42.79906" lon="1.36979">
        <ele>1474</ele>
        <time>2020-06-19T21:46:08Z</time>
      </trkpt>
      <trkpt lat="42.79894" lon="1.36975">
        <ele>1474</ele>
        <time>2020-06-19T21:46:11Z</time>
      </trkpt>
      <trkpt lat="42.79878" lon="1.36964">
        <ele>1477</ele>
        <time>2020-06-19T21:46:14Z</time>
      </trkpt>
      <trkpt lat="42.79848" lon="1.3695">
        <ele>1477</ele>
        <time>2020-06-19T21:46:19Z</time>
      </trkpt>
      <trkpt lat="42.7983" lon="1.36945">
        <ele>1477</ele>
        <time>2020-06-19T21:46:23Z</time>
      </trkpt>
      <trkpt lat="42.79817" lon="1.36946">
        <ele>1476</ele>
        <time>2020-06-19T21:46:25Z</time>
      </trkpt>
      <trkpt lat="42.79805" lon="1.36953">
        <ele>1474</ele>
        <time>2020-06-19T21:46:27Z</time>
      </trkpt>
      <trkpt lat="42.79796" lon="1.36967">
        <ele>1471</ele>
        <time>2020-06-19T21:46:30Z</time>
      </trkpt>
      <trkpt lat="42.79791" lon="1.36984">
        <ele>1467</ele>
        <time>2020-06-19T21:46:32Z</time>
      </trkpt>
      <trkpt lat="42.7979" lon="1.36998">
        <ele>1465</ele>
        <time>2020-06-19T21:46:34Z</time>
      </trkpt>
      <trkpt lat="42.79794" lon="1.37032">
        <ele>1460</ele>
        <time>2020-06-19T21:46:38Z</time>
      </trkpt>
      <trkpt lat="42.79795" lon="1.37069">
        <ele>1455</ele>
        <time>2020-06-19T21:46:43Z</time>
      </trkpt>
      <trkpt lat="42.79792" lon="1.37127">
        <ele>1451</ele>
        <time>2020-06-19T21:46:51Z</time>
      </trkpt>
      <trkpt lat="42.79795" lon="1.37166">
        <ele>1448</ele>
        <time>2020-06-19T21:46:56Z</time>
      </trkpt>
      <trkpt lat="42.79801" lon="1.372">
        <ele>1452</ele>
        <time>2020-06-19T21:47:01Z</time>
      </trkpt>
      <trkpt lat="42.79809" lon="1.3722">
        <ele>1453</ele>
        <time>2020-06-19T21:47:04Z</time>
      </trkpt>
      <trkpt lat="42.79819" lon="1.37234">
        <ele>1452</ele>
        <time>2020-06-19T21:47:06Z</time>
      </trkpt>
      <trkpt lat="42.79837" lon="1.37248">
        <ele>1448</ele>
        <time>2020-06-19T21:47:10Z</time>
      </trkpt>
      <trkpt lat="42.7986" lon="1.37258">
        <ele>1448</ele>
        <time>2020-06-19T21:47:14Z</time>
      </trkpt>
      <trkpt lat="42.79908" lon="1.3727">
        <ele>1444</ele>
        <time>2020-06-19T21:47:23Z</time>
      </trkpt>
      <trkpt lat="42.80059" lon="1.373">
        <ele>1423</ele>
        <time>2020-06-19T21:47:50Z</time>
      </trkpt>
      <trkpt lat="42.80092" lon="1.37312">
        <ele>1417</ele>
        <time>2020-06-19T21:47:56Z</time>
      </trkpt>
      <trkpt lat="42.80107" lon="1.3732">
        <ele>1414</ele>
        <time>2020-06-19T21:47:59Z</time>
      </trkpt>
      <trkpt lat="42.80139" lon="1.3735">
        <ele>1409</ele>
        <time>2020-06-19T21:48:06Z</time>
      </trkpt>
      <trkpt lat="42.8018" lon="1.37405">
        <ele>1402</ele>
        <time>2020-06-19T21:48:16Z</time>
      </trkpt>
      <trkpt lat="42.80232" lon="1.37483">
        <ele>1399</ele>
        <time>2020-06-19T21:48:30Z</time>
      </trkpt>
      <trkpt lat="42.80245" lon="1.37514">
        <ele>1397</ele>
        <time>2020-06-19T21:48:34Z</time>
      </trkpt>
      <trkpt lat="42.80263" lon="1.37568">
        <ele>1396</ele>
        <time>2020-06-19T21:48:42Z</time>
      </trkpt>
      <trkpt lat="42.80273" lon="1.37609">
        <ele>1399</ele>
        <time>2020-06-19T21:48:48Z</time>
      </trkpt>
      <trkpt lat="42.8028" lon="1.37621">
        <ele>1400</ele>
        <time>2020-06-19T21:48:50Z</time>
      </trkpt>
      <trkpt lat="42.80292" lon="1.37626">
        <ele>1399</ele>
        <time>2020-06-19T21:48:52Z</time>
      </trkpt>
      <trkpt lat="42.80304" lon="1.37622">
        <ele>1397</ele>
        <time>2020-06-19T21:48:54Z</time>
      </trkpt>
      <trkpt lat="42.80313" lon="1.37609">
        <ele>1394</ele>
        <time>2020-06-19T21:48:57Z</time>
      </trkpt>
      <trkpt lat="42.80352" lon="1.37509">
        <ele>1380</ele>
        <time>2020-06-19T21:49:11Z</time>
      </trkpt>
      <trkpt lat="42.80361" lon="1.37492">
        <ele>1378</ele>
        <time>2020-06-19T21:49:14Z</time>
      </trkpt>
      <trkpt lat="42.80371" lon="1.37484">
        <ele>1376</ele>
        <time>2020-06-19T21:49:16Z</time>
      </trkpt>
      <trkpt lat="42.80383" lon="1.37485">
        <ele>1376</ele>
        <time>2020-06-19T21:49:18Z</time>
      </trkpt>
      <trkpt lat="42.80425" lon="1.37517">
        <ele>1381</ele>
        <time>2020-06-19T21:49:27Z</time>
      </trkpt>
      <trkpt lat="42.80437" lon="1.37518">
        <ele>1380</ele>
        <time>2020-06-19T21:49:29Z</time>
      </trkpt>
      <trkpt lat="42.80446" lon="1.37514">
        <ele>1378</ele>
        <time>2020-06-19T21:49:31Z</time>
      </trkpt>
      <trkpt lat="42.80451" lon="1.37507">
        <ele>1376</ele>
        <time>2020-06-19T21:49:32Z</time>
      </trkpt>
      <trkpt lat="42.80451" lon="1.37499">
        <ele>1375</ele>
        <time>2020-06-19T21:49:33Z</time>
      </trkpt>
      <trkpt lat="42.80447" lon="1.37488">
        <ele>1373</ele>
        <time>2020-06-19T21:49:35Z</time>
      </trkpt>
      <trkpt lat="42.80387" lon="1.37427">
        <ele>1364</ele>
        <time>2020-06-19T21:49:48Z</time>
      </trkpt>
      <trkpt lat="42.80372" lon="1.3742">
        <ele>1363</ele>
        <time>2020-06-19T21:49:51Z</time>
      </trkpt>
      <trkpt lat="42.80324" lon="1.37411">
        <ele>1366</ele>
        <time>2020-06-19T21:49:59Z</time>
      </trkpt>
      <trkpt lat="42.80303" lon="1.37397">
        <ele>1369</ele>
        <time>2020-06-19T21:50:04Z</time>
      </trkpt>
      <trkpt lat="42.80258" lon="1.37358">
        <ele>1372</ele>
        <time>2020-06-19T21:50:13Z</time>
      </trkpt>
      <trkpt lat="42.80244" lon="1.37337">
        <ele>1371</ele>
        <time>2020-06-19T21:50:17Z</time>
      </trkpt>
      <trkpt lat="42.8024" lon="1.37308">
        <ele>1372</ele>
        <time>2020-06-19T21:50:21Z</time>
      </trkpt>
      <trkpt lat="42.80238" lon="1.37281">
        <ele>1372</ele>
        <time>2020-06-19T21:50:24Z</time>
      </trkpt>
      <trkpt lat="42.80246" lon="1.37256">
        <ele>1368</ele>
        <time>2020-06-19T21:50:28Z</time>
      </trkpt>
      <trkpt lat="42.80262" lon="1.37234">
        <ele>1365</ele>
        <time>2020-06-19T21:50:32Z</time>
      </trkpt>
      <trkpt lat="42.80316" lon="1.37194">
        <ele>1356</ele>
        <time>2020-06-19T21:50:43Z</time>
      </trkpt>
      <trkpt lat="42.80336" lon="1.37184">
        <ele>1352</ele>
        <time>2020-06-19T21:50:46Z</time>
      </trkpt>
      <trkpt lat="42.80369" lon="1.37179">
        <ele>1345</ele>
        <time>2020-06-19T21:50:52Z</time>
      </trkpt>
      <trkpt lat="42.80387" lon="1.3717">
        <ele>1342</ele>
        <time>2020-06-19T21:50:56Z</time>
      </trkpt>
      <trkpt lat="42.80401" lon="1.3716">
        <ele>1341</ele>
        <time>2020-06-19T21:50:59Z</time>
      </trkpt>
      <trkpt lat="42.8046" lon="1.3711">
        <ele>1344</ele>
        <time>2020-06-19T21:51:11Z</time>
      </trkpt>
      <trkpt lat="42.80475" lon="1.37101">
        <ele>1343</ele>
        <time>2020-06-19T21:51:14Z</time>
      </trkpt>
      <trkpt lat="42.80496" lon="1.37098">
        <ele>1339</ele>
        <time>2020-06-19T21:51:18Z</time>
      </trkpt>
      <trkpt lat="42.80515" lon="1.37106">
        <ele>1335</ele>
        <time>2020-06-19T21:51:21Z</time>
      </trkpt>
      <trkpt lat="42.80566" lon="1.37133">
        <ele>1326</ele>
        <time>2020-06-19T21:51:31Z</time>
      </trkpt>
      <trkpt lat="42.80579" lon="1.37134">
        <ele>1325</ele>
        <time>2020-06-19T21:51:33Z</time>
      </trkpt>
      <trkpt lat="42.80629" lon="1.37108">
        <ele>1326</ele>
        <time>2020-06-19T21:51:43Z</time>
      </trkpt>
      <trkpt lat="42.80682" lon="1.37109">
        <ele>1321</ele>
        <time>2020-06-19T21:51:52Z</time>
      </trkpt>
      <trkpt lat="42.80708" lon="1.37112">
        <ele>1319</ele>
        <time>2020-06-19T21:51:57Z</time>
      </trkpt>
      <trkpt lat="42.80774" lon="1.37129">
        <ele>1309</ele>
        <time>2020-06-19T21:52:09Z</time>
      </trkpt>
      <trkpt lat="42.80788" lon="1.37141">
        <ele>1304</ele>
        <time>2020-06-19T21:52:12Z</time>
      </trkpt>
      <trkpt lat="42.80791" lon="1.37153">
        <ele>1300</ele>
        <time>2020-06-19T21:52:13Z</time>
      </trkpt>
      <trkpt lat="42.80787" lon="1.37171">
        <ele>1296</ele>
        <time>2020-06-19T21:52:16Z</time>
      </trkpt>
      <trkpt lat="42.80757" lon="1.37192">
        <ele>1296</ele>
        <time>2020-06-19T21:52:22Z</time>
      </trkpt>
      <trkpt lat="42.80726" lon="1.3722">
        <ele>1295</ele>
        <time>2020-06-19T21:52:28Z</time>
      </trkpt>
      <trkpt lat="42.80718" lon="1.37232">
        <ele>1294</ele>
        <time>2020-06-19T21:52:31Z</time>
      </trkpt>
      <trkpt lat="42.80714" lon="1.37254">
        <ele>1292</ele>
        <time>2020-06-19T21:52:33Z</time>
      </trkpt>
      <trkpt lat="42.80712" lon="1.37286">
        <ele>1291</ele>
        <time>2020-06-19T21:52:38Z</time>
      </trkpt>
      <trkpt lat="42.80713" lon="1.37315">
        <ele>1290</ele>
        <time>2020-06-19T21:52:41Z</time>
      </trkpt>
      <trkpt lat="42.80717" lon="1.37339">
        <ele>1288</ele>
        <time>2020-06-19T21:52:45Z</time>
      </trkpt>
      <trkpt lat="42.80725" lon="1.37358">
        <ele>1286</ele>
        <time>2020-06-19T21:52:48Z</time>
      </trkpt>
      <trkpt lat="42.80739" lon="1.37375">
        <ele>1283</ele>
        <time>2020-06-19T21:52:51Z</time>
      </trkpt>
      <trkpt lat="42.80758" lon="1.37389">
        <ele>1280</ele>
        <time>2020-06-19T21:52:55Z</time>
      </trkpt>
      <trkpt lat="42.808" lon="1.37408">
        <ele>1275</ele>
        <time>2020-06-19T21:53:03Z</time>
      </trkpt>
      <trkpt lat="42.80816" lon="1.37414">
        <ele>1273</ele>
        <time>2020-06-19T21:53:06Z</time>
      </trkpt>
      <trkpt lat="42.80835" lon="1.3742">
        <ele>1270</ele>
        <time>2020-06-19T21:53:09Z</time>
      </trkpt>
      <trkpt lat="42.80857" lon="1.37425">
        <ele>1269</ele>
        <time>2020-06-19T21:53:13Z</time>
      </trkpt>
      <trkpt lat="42.8087" lon="1.37428">
        <ele>1269</ele>
        <time>2020-06-19T21:53:15Z</time>
      </trkpt>
      <trkpt lat="42.80897" lon="1.37441">
        <ele>1269</ele>
        <time>2020-06-19T21:53:20Z</time>
      </trkpt>
      <trkpt lat="42.80908" lon="1.37446">
        <ele>1269</ele>
        <time>2020-06-19T21:53:23Z</time>
      </trkpt>
      <trkpt lat="42.80934" lon="1.37474">
        <ele>1272</ele>
        <time>2020-06-19T21:53:28Z</time>
      </trkpt>
      <trkpt lat="42.8095" lon="1.37508">
        <ele>1277</ele>
        <time>2020-06-19T21:53:34Z</time>
      </trkpt>
      <trkpt lat="42.80956" lon="1.37578">
        <ele>1280</ele>
        <time>2020-06-19T21:53:43Z</time>
      </trkpt>
      <trkpt lat="42.80961" lon="1.37639">
        <ele>1278</ele>
        <time>2020-06-19T21:53:51Z</time>
      </trkpt>
      <trkpt lat="42.80964" lon="1.37651">
        <ele>1277</ele>
        <time>2020-06-19T21:53:53Z</time>
      </trkpt>
      <trkpt lat="42.80966" lon="1.37685">
        <ele>1275</ele>
        <time>2020-06-19T21:53:57Z</time>
      </trkpt>
      <trkpt lat="42.80962" lon="1.37704">
        <ele>1275</ele>
        <time>2020-06-19T21:54:00Z</time>
      </trkpt>
      <trkpt lat="42.80955" lon="1.37717">
        <ele>1276</ele>
        <time>2020-06-19T21:54:02Z</time>
      </trkpt>
      <trkpt lat="42.80933" lon="1.37745">
        <ele>1278</ele>
        <time>2020-06-19T21:54:07Z</time>
      </trkpt>
      <trkpt lat="42.8093" lon="1.37751">
        <ele>1278</ele>
        <time>2020-06-19T21:54:08Z</time>
      </trkpt>
      <trkpt lat="42.8091" lon="1.37787">
        <ele>1279</ele>
        <time>2020-06-19T21:54:14Z</time>
      </trkpt>
      <trkpt lat="42.80889" lon="1.37834">
        <ele>1278</ele>
        <time>2020-06-19T21:54:21Z</time>
      </trkpt>
      <trkpt lat="42.80885" lon="1.37854">
        <ele>1279</ele>
        <time>2020-06-19T21:54:24Z</time>
      </trkpt>
      <trkpt lat="42.80883" lon="1.37884">
        <ele>1280</ele>
        <time>2020-06-19T21:54:28Z</time>
      </trkpt>
      <trkpt lat="42.80883" lon="1.37917">
        <ele>1281</ele>
        <time>2020-06-19T21:54:32Z</time>
      </trkpt>
      <trkpt lat="42.8089" lon="1.38013">
        <ele>1292</ele>
        <time>2020-06-19T21:54:45Z</time>
      </trkpt>
      <trkpt lat="42.8089" lon="1.3803">
        <ele>1294</ele>
        <time>2020-06-19T21:54:47Z</time>
      </trkpt>
      <trkpt lat="42.80887" lon="1.38047">
        <ele>1297</ele>
        <time>2020-06-19T21:54:49Z</time>
      </trkpt>
      <trkpt lat="42.80882" lon="1.38061">
        <ele>1299</ele>
        <time>2020-06-19T21:54:51Z</time>
      </trkpt>
      <trkpt lat="42.80872" lon="1.38077">
        <ele>1301</ele>
        <time>2020-06-19T21:54:54Z</time>
      </trkpt>
      <trkpt lat="42.80855" lon="1.38105">
        <ele>1302</ele>
        <time>2020-06-19T21:54:59Z</time>
      </trkpt>
      <trkpt lat="42.80847" lon="1.38122">
        <ele>1302</ele>
        <time>2020-06-19T21:55:01Z</time>
      </trkpt>
      <trkpt lat="42.80838" lon="1.38157">
        <ele>1303</ele>
        <time>2020-06-19T21:55:06Z</time>
      </trkpt>
      <trkpt lat="42.8083" lon="1.38194">
        <ele>1303</ele>
        <time>2020-06-19T21:55:11Z</time>
      </trkpt>
      <trkpt lat="42.80823" lon="1.3823">
        <ele>1303</ele>
        <time>2020-06-19T21:55:16Z</time>
      </trkpt>
      <trkpt lat="42.80819" lon="1.38268">
        <ele>1303</ele>
        <time>2020-06-19T21:55:21Z</time>
      </trkpt>
      <trkpt lat="42.80818" lon="1.38315">
        <ele>1301</ele>
        <time>2020-06-19T21:55:27Z</time>
      </trkpt>
      <trkpt lat="42.8082" lon="1.38322">
        <ele>1301</ele>
        <time>2020-06-19T21:55:28Z</time>
      </trkpt>
      <trkpt lat="42.80821" lon="1.38328">
        <ele>1301</ele>
        <time>2020-06-19T21:55:29Z</time>
      </trkpt>
      <trkpt lat="42.80824" lon="1.38336">
        <ele>1301</ele>
        <time>2020-06-19T21:55:30Z</time>
      </trkpt>
      <trkpt lat="42.80856" lon="1.38349">
        <ele>1301</ele>
        <time>2020-06-19T21:55:36Z</time>
      </trkpt>
      <trkpt lat="42.80893" lon="1.38366">
        <ele>1299</ele>
        <time>2020-06-19T21:55:43Z</time>
      </trkpt>
      <trkpt lat="42.80922" lon="1.38385">
        <ele>1296</ele>
        <time>2020-06-19T21:55:49Z</time>
      </trkpt>
      <trkpt lat="42.80959" lon="1.38415">
        <ele>1291</ele>
        <time>2020-06-19T21:55:56Z</time>
      </trkpt>
      <trkpt lat="42.80975" lon="1.38437">
        <ele>1290</ele>
        <time>2020-06-19T21:56:00Z</time>
      </trkpt>
      <trkpt lat="42.81003" lon="1.38493">
        <ele>1286</ele>
        <time>2020-06-19T21:56:09Z</time>
      </trkpt>
      <trkpt lat="42.81012" lon="1.38502">
        <ele>1285</ele>
        <time>2020-06-19T21:56:11Z</time>
      </trkpt>
      <trkpt lat="42.81084" lon="1.38533">
        <ele>1281</ele>
        <time>2020-06-19T21:56:25Z</time>
      </trkpt>
      <trkpt lat="42.8112" lon="1.38542">
        <ele>1280</ele>
        <time>2020-06-19T21:56:31Z</time>
      </trkpt>
      <trkpt lat="42.81127" lon="1.38547">
        <ele>1278</ele>
        <time>2020-06-19T21:56:33Z</time>
      </trkpt>
      <trkpt lat="42.81129" lon="1.38554">
        <ele>1276</ele>
        <time>2020-06-19T21:56:34Z</time>
      </trkpt>
      <trkpt lat="42.81128" lon="1.38559">
        <ele>1275</ele>
        <time>2020-06-19T21:56:34Z</time>
      </trkpt>
      <trkpt lat="42.81124" lon="1.38564">
        <ele>1274</ele>
        <time>2020-06-19T21:56:35Z</time>
      </trkpt>
      <trkpt lat="42.81117" lon="1.38564">
        <ele>1274</ele>
        <time>2020-06-19T21:56:36Z</time>
      </trkpt>
      <trkpt lat="42.81098" lon="1.38559">
        <ele>1275</ele>
        <time>2020-06-19T21:56:40Z</time>
      </trkpt>
      <trkpt lat="42.81076" lon="1.38557">
        <ele>1275</ele>
        <time>2020-06-19T21:56:44Z</time>
      </trkpt>
      <trkpt lat="42.81022" lon="1.38563">
        <ele>1275</ele>
        <time>2020-06-19T21:56:53Z</time>
      </trkpt>
      <trkpt lat="42.81009" lon="1.38566">
        <ele>1275</ele>
        <time>2020-06-19T21:56:56Z</time>
      </trkpt>
      <trkpt lat="42.81005" lon="1.38572">
        <ele>1274</ele>
        <time>2020-06-19T21:56:57Z</time>
      </trkpt>
      <trkpt lat="42.81004" lon="1.38578">
        <ele>1273</ele>
        <time>2020-06-19T21:56:58Z</time>
      </trkpt>
      <trkpt lat="42.81007" lon="1.38586">
        <ele>1271</ele>
        <time>2020-06-19T21:56:59Z</time>
      </trkpt>
      <trkpt lat="42.81048" lon="1.38594">
        <ele>1269</ele>
        <time>2020-06-19T21:57:06Z</time>
      </trkpt>
      <trkpt lat="42.8109" lon="1.38612">
        <ele>1265</ele>
        <time>2020-06-19T21:57:14Z</time>
      </trkpt>
      <trkpt lat="42.81124" lon="1.38639">
        <ele>1260</ele>
        <time>2020-06-19T21:57:21Z</time>
      </trkpt>
      <trkpt lat="42.81138" lon="1.38659">
        <ele>1256</ele>
        <time>2020-06-19T21:57:25Z</time>
      </trkpt>
      <trkpt lat="42.81139" lon="1.3867">
        <ele>1254</ele>
        <time>2020-06-19T21:57:26Z</time>
      </trkpt>
      <trkpt lat="42.81136" lon="1.38691">
        <ele>1255</ele>
        <time>2020-06-19T21:57:29Z</time>
      </trkpt>
      <trkpt lat="42.81119" lon="1.38724">
        <ele>1257</ele>
        <time>2020-06-19T21:57:34Z</time>
      </trkpt>
      <trkpt lat="42.81119" lon="1.38735">
        <ele>1257</ele>
        <time>2020-06-19T21:57:36Z</time>
      </trkpt>
      <trkpt lat="42.81126" lon="1.38744">
        <ele>1256</ele>
        <time>2020-06-19T21:57:37Z</time>
      </trkpt>
      <trkpt lat="42.81161" lon="1.38749">
        <ele>1253</ele>
        <time>2020-06-19T21:57:44Z</time>
      </trkpt>
      <trkpt lat="42.81247" lon="1.38786">
        <ele>1246</ele>
        <time>2020-06-19T21:58:00Z</time>
      </trkpt>
      <trkpt lat="42.81303" lon="1.3882">
        <ele>1238</ele>
        <time>2020-06-19T21:58:11Z</time>
      </trkpt>
      <trkpt lat="42.8132" lon="1.38836">
        <ele>1236</ele>
        <time>2020-06-19T21:58:14Z</time>
      </trkpt>
      <trkpt lat="42.81387" lon="1.38888">
        <ele>1231</ele>
        <time>2020-06-19T21:58:28Z</time>
      </trkpt>
      <trkpt lat="42.81442" lon="1.38919">
        <ele>1225</ele>
        <time>2020-06-19T21:58:39Z</time>
      </trkpt>
      <trkpt lat="42.81486" lon="1.38918">
        <ele>1215</ele>
        <time>2020-06-19T21:58:46Z</time>
      </trkpt>
      <trkpt lat="42.81499" lon="1.38922">
        <ele>1213</ele>
        <time>2020-06-19T21:58:49Z</time>
      </trkpt>
      <trkpt lat="42.81513" lon="1.38931">
        <ele>1212</ele>
        <time>2020-06-19T21:58:51Z</time>
      </trkpt>
      <trkpt lat="42.81547" lon="1.38965">
        <ele>1213</ele>
        <time>2020-06-19T21:58:59Z</time>
      </trkpt>
      <trkpt lat="42.81638" lon="1.38998">
        <ele>1208</ele>
        <time>2020-06-19T21:59:16Z</time>
      </trkpt>
      <trkpt lat="42.81653" lon="1.39">
        <ele>1207</ele>
        <time>2020-06-19T21:59:18Z</time>
      </trkpt>
      <trkpt lat="42.81666" lon="1.38999">
        <ele>1206</ele>
        <time>2020-06-19T21:59:21Z</time>
      </trkpt>
      <trkpt lat="42.81673" lon="1.38996">
        <ele>1207</ele>
        <time>2020-06-19T21:59:22Z</time>
      </trkpt>
      <trkpt lat="42.81679" lon="1.38986">
        <ele>1207</ele>
        <time>2020-06-19T21:59:24Z</time>
      </trkpt>
      <trkpt lat="42.81679" lon="1.3898">
        <ele>1206</ele>
        <time>2020-06-19T21:59:24Z</time>
      </trkpt>
      <trkpt lat="42.81674" lon="1.38941">
        <ele>1199</ele>
        <time>2020-06-19T21:59:30Z</time>
      </trkpt>
      <trkpt lat="42.81674" lon="1.38921">
        <ele>1196</ele>
        <time>2020-06-19T21:59:32Z</time>
      </trkpt>
      <trkpt lat="42.81677" lon="1.38904">
        <ele>1194</ele>
        <time>2020-06-19T21:59:35Z</time>
      </trkpt>
      <trkpt lat="42.81683" lon="1.38883">
        <ele>1192</ele>
        <time>2020-06-19T21:59:37Z</time>
      </trkpt>
      <trkpt lat="42.81692" lon="1.38861">
        <ele>1191</ele>
        <time>2020-06-19T21:59:41Z</time>
      </trkpt>
      <trkpt lat="42.81709" lon="1.38829">
        <ele>1190</ele>
        <time>2020-06-19T21:59:46Z</time>
      </trkpt>
      <trkpt lat="42.8173" lon="1.38781">
        <ele>1187</ele>
        <time>2020-06-19T21:59:53Z</time>
      </trkpt>
      <trkpt lat="42.81772" lon="1.38706">
        <ele>1181</ele>
        <time>2020-06-19T22:00:06Z</time>
      </trkpt>
      <trkpt lat="42.81806" lon="1.38656">
        <ele>1176</ele>
        <time>2020-06-19T22:00:14Z</time>
      </trkpt>
      <trkpt lat="42.81833" lon="1.38625">
        <ele>1173</ele>
        <time>2020-06-19T22:00:21Z</time>
      </trkpt>
      <trkpt lat="42.81864" lon="1.38592">
        <ele>1171</ele>
        <time>2020-06-19T22:00:28Z</time>
      </trkpt>
      <trkpt lat="42.81878" lon="1.38582">
        <ele>1171</ele>
        <time>2020-06-19T22:00:31Z</time>
      </trkpt>
      <trkpt lat="42.81891" lon="1.38576">
        <ele>1171</ele>
        <time>2020-06-19T22:00:33Z</time>
      </trkpt>
      <trkpt lat="42.81895" lon="1.38573">
        <ele>1171</ele>
        <time>2020-06-19T22:00:34Z</time>
      </trkpt>
      <trkpt lat="42.81897" lon="1.38568">
        <ele>1170</ele>
        <time>2020-06-19T22:00:35Z</time>
      </trkpt>
      <trkpt lat="42.81897" lon="1.38563">
        <ele>1169</ele>
        <time>2020-06-19T22:00:35Z</time>
      </trkpt>
      <trkpt lat="42.81895" lon="1.38559">
        <ele>1168</ele>
        <time>2020-06-19T22:00:36Z</time>
      </trkpt>
      <trkpt lat="42.81891" lon="1.38557">
        <ele>1166</ele>
        <time>2020-06-19T22:00:37Z</time>
      </trkpt>
      <trkpt lat="42.81887" lon="1.38557">
        <ele>1166</ele>
        <time>2020-06-19T22:00:37Z</time>
      </trkpt>
      <trkpt lat="42.81818" lon="1.38594">
        <ele>1163</ele>
        <time>2020-06-19T22:00:50Z</time>
      </trkpt>
      <trkpt lat="42.81781" lon="1.38604">
        <ele>1159</ele>
        <time>2020-06-19T22:00:57Z</time>
      </trkpt>
      <trkpt lat="42.81772" lon="1.38609">
        <ele>1158</ele>
        <time>2020-06-19T22:00:59Z</time>
      </trkpt>
      <trkpt lat="42.81763" lon="1.38617">
        <ele>1159</ele>
        <time>2020-06-19T22:01:01Z</time>
      </trkpt>
      <trkpt lat="42.81753" lon="1.38633">
        <ele>1160</ele>
        <time>2020-06-19T22:01:04Z</time>
      </trkpt>
      <trkpt lat="42.81748" lon="1.38637">
        <ele>1160</ele>
        <time>2020-06-19T22:01:05Z</time>
      </trkpt>
      <trkpt lat="42.81743" lon="1.38639">
        <ele>1161</ele>
        <time>2020-06-19T22:01:06Z</time>
      </trkpt>
      <trkpt lat="42.81739" lon="1.38637">
        <ele>1160</ele>
        <time>2020-06-19T22:01:06Z</time>
      </trkpt>
      <trkpt lat="42.81736" lon="1.38632">
        <ele>1159</ele>
        <time>2020-06-19T22:01:07Z</time>
      </trkpt>
      <trkpt lat="42.81736" lon="1.38622">
        <ele>1157</ele>
        <time>2020-06-19T22:01:08Z</time>
      </trkpt>
      <trkpt lat="42.8181" lon="1.38506">
        <ele>1144</ele>
        <time>2020-06-19T22:01:29Z</time>
      </trkpt>
      <trkpt lat="42.81866" lon="1.38393">
        <ele>1127</ele>
        <time>2020-06-19T22:01:46Z</time>
      </trkpt>
      <trkpt lat="42.81875" lon="1.38378">
        <ele>1124</ele>
        <time>2020-06-19T22:01:49Z</time>
      </trkpt>
      <trkpt lat="42.81891" lon="1.3836">
        <ele>1122</ele>
        <time>2020-06-19T22:01:53Z</time>
      </trkpt>
      <trkpt lat="42.81901" lon="1.38355">
        <ele>1121</ele>
        <time>2020-06-19T22:01:54Z</time>
      </trkpt>
      <trkpt lat="42.81908" lon="1.38355">
        <ele>1122</ele>
        <time>2020-06-19T22:01:56Z</time>
      </trkpt>
      <trkpt lat="42.81915" lon="1.38357">
        <ele>1123</ele>
        <time>2020-06-19T22:01:57Z</time>
      </trkpt>
      <trkpt lat="42.81921" lon="1.38364">
        <ele>1124</ele>
        <time>2020-06-19T22:01:58Z</time>
      </trkpt>
      <trkpt lat="42.81933" lon="1.38386">
        <ele>1128</ele>
        <time>2020-06-19T22:02:02Z</time>
      </trkpt>
      <trkpt lat="42.81939" lon="1.38392">
        <ele>1129</ele>
        <time>2020-06-19T22:02:03Z</time>
      </trkpt>
      <trkpt lat="42.81945" lon="1.38394">
        <ele>1129</ele>
        <time>2020-06-19T22:02:04Z</time>
      </trkpt>
      <trkpt lat="42.81987" lon="1.38388">
        <ele>1126</ele>
        <time>2020-06-19T22:02:12Z</time>
      </trkpt>
      <trkpt lat="42.82007" lon="1.38389">
        <ele>1126</ele>
        <time>2020-06-19T22:02:15Z</time>
      </trkpt>
      <trkpt lat="42.82013" lon="1.38387">
        <ele>1125</ele>
        <time>2020-06-19T22:02:17Z</time>
      </trkpt>
      <trkpt lat="42.82016" lon="1.38382">
        <ele>1124</ele>
        <time>2020-06-19T22:02:17Z</time>
      </trkpt>
      <trkpt lat="42.82016" lon="1.38375">
        <ele>1122</ele>
        <time>2020-06-19T22:02:18Z</time>
      </trkpt>
      <trkpt lat="42.82014" lon="1.38369">
        <ele>1120</ele>
        <time>2020-06-19T22:02:19Z</time>
      </trkpt>
      <trkpt lat="42.82009" lon="1.38366">
        <ele>1119</ele>
        <time>2020-06-19T22:02:20Z</time>
      </trkpt>
      <trkpt lat="42.81993" lon="1.38363">
        <ele>1119</ele>
        <time>2020-06-19T22:02:23Z</time>
      </trkpt>
      <trkpt lat="42.81984" lon="1.38358">
        <ele>1119</ele>
        <time>2020-06-19T22:02:25Z</time>
      </trkpt>
      <trkpt lat="42.81974" lon="1.38348">
        <ele>1117</ele>
        <time>2020-06-19T22:02:27Z</time>
      </trkpt>
      <trkpt lat="42.81952" lon="1.38311">
        <ele>1110</ele>
        <time>2020-06-19T22:02:33Z</time>
      </trkpt>
      <trkpt lat="42.81941" lon="1.38295">
        <ele>1108</ele>
        <time>2020-06-19T22:02:36Z</time>
      </trkpt>
      <trkpt lat="42.81927" lon="1.38284">
        <ele>1107</ele>
        <time>2020-06-19T22:02:39Z</time>
      </trkpt>
      <trkpt lat="42.81904" lon="1.38272">
        <ele>1104</ele>
        <time>2020-06-19T22:02:43Z</time>
      </trkpt>
      <trkpt lat="42.81891" lon="1.38268">
        <ele>1102</ele>
        <time>2020-06-19T22:02:46Z</time>
      </trkpt>
      <trkpt lat="42.81878" lon="1.38268">
        <ele>1101</ele>
        <time>2020-06-19T22:02:48Z</time>
      </trkpt>
      <trkpt lat="42.81866" lon="1.38272">
        <ele>1102</ele>
        <time>2020-06-19T22:02:50Z</time>
      </trkpt>
      <trkpt lat="42.81851" lon="1.38282">
        <ele>1103</ele>
        <time>2020-06-19T22:02:53Z</time>
      </trkpt>
      <trkpt lat="42.8184" lon="1.38285">
        <ele>1103</ele>
        <time>2020-06-19T22:02:55Z</time>
      </trkpt>
      <trkpt lat="42.81836" lon="1.38281">
        <ele>1101</ele>
        <time>2020-06-19T22:02:56Z</time>
      </trkpt>
      <trkpt lat="42.81834" lon="1.38274">
        <ele>1100</ele>
        <time>2020-06-19T22:02:57Z</time>
      </trkpt>
      <trkpt lat="42.81836" lon="1.38263">
        <ele>1098</ele>
        <time>2020-06-19T22:02:58Z</time>
      </trkpt>
      <trkpt lat="42.8184" lon="1.38259">
        <ele>1097</ele>
        <time>2020-06-19T22:02:59Z</time>
      </trkpt>
      <trkpt lat="42.81883" lon="1.3824">
        <ele>1096</ele>
        <time>2020-06-19T22:03:07Z</time>
      </trkpt>
      <trkpt lat="42.81914" lon="1.38219">
        <ele>1092</ele>
        <time>2020-06-19T22:03:14Z</time>
      </trkpt>
      <trkpt lat="42.8193" lon="1.3821">
        <ele>1089</ele>
        <time>2020-06-19T22:03:17Z</time>
      </trkpt>
      <trkpt lat="42.81979" lon="1.382">
        <ele>1084</ele>
        <time>2020-06-19T22:03:25Z</time>
      </trkpt>
      <trkpt lat="42.82045" lon="1.38197">
        <ele>1077</ele>
        <time>2020-06-19T22:03:37Z</time>
      </trkpt>
      <trkpt lat="42.82059" lon="1.38201">
        <ele>1076</ele>
        <time>2020-06-19T22:03:40Z</time>
      </trkpt>
      <trkpt lat="42.82074" lon="1.3821">
        <ele>1077</ele>
        <time>2020-06-19T22:03:43Z</time>
      </trkpt>
      <trkpt lat="42.82088" lon="1.38223">
        <ele>1078</ele>
        <time>2020-06-19T22:03:46Z</time>
      </trkpt>
      <trkpt lat="42.82099" lon="1.38238">
        <ele>1079</ele>
        <time>2020-06-19T22:03:48Z</time>
      </trkpt>
      <trkpt lat="42.82109" lon="1.38245">
        <ele>1079</ele>
        <time>2020-06-19T22:03:50Z</time>
      </trkpt>
      <trkpt lat="42.82123" lon="1.38249">
        <ele>1078</ele>
        <time>2020-06-19T22:03:53Z</time>
      </trkpt>
      <trkpt lat="42.82146" lon="1.38251">
        <ele>1075</ele>
        <time>2020-06-19T22:03:57Z</time>
      </trkpt>
      <trkpt lat="42.82159" lon="1.38249">
        <ele>1072</ele>
        <time>2020-06-19T22:03:59Z</time>
      </trkpt>
      <trkpt lat="42.82211" lon="1.38228">
        <ele>1065</ele>
        <time>2020-06-19T22:04:09Z</time>
      </trkpt>
      <trkpt lat="42.8223" lon="1.38226">
        <ele>1064</ele>
        <time>2020-06-19T22:04:12Z</time>
      </trkpt>
      <trkpt lat="42.82281" lon="1.38203">
        <ele>1058</ele>
        <time>2020-06-19T22:04:22Z</time>
      </trkpt>
      <trkpt lat="42.82312" lon="1.38176">
        <ele>1051</ele>
        <time>2020-06-19T22:04:29Z</time>
      </trkpt>
      <trkpt lat="42.8233" lon="1.38152">
        <ele>1047</ele>
        <time>2020-06-19T22:04:33Z</time>
      </trkpt>
      <trkpt lat="42.82352" lon="1.38136">
        <ele>1044</ele>
        <time>2020-06-19T22:04:37Z</time>
      </trkpt>
      <trkpt lat="42.82391" lon="1.38123">
        <ele>1042</ele>
        <time>2020-06-19T22:04:45Z</time>
      </trkpt>
      <trkpt lat="42.82423" lon="1.38098">
        <ele>1037</ele>
        <time>2020-06-19T22:04:51Z</time>
      </trkpt>
      <trkpt lat="42.82437" lon="1.38081">
        <ele>1035</ele>
        <time>2020-06-19T22:04:54Z</time>
      </trkpt>
      <trkpt lat="42.82455" lon="1.38052">
        <ele>1033</ele>
        <time>2020-06-19T22:04:59Z</time>
      </trkpt>
      <trkpt lat="42.82522" lon="1.37989">
        <ele>1028</ele>
        <time>2020-06-19T22:05:14Z</time>
      </trkpt>
      <trkpt lat="42.8258" lon="1.37939">
        <ele>1024</ele>
        <time>2020-06-19T22:05:26Z</time>
      </trkpt>
      <trkpt lat="42.826" lon="1.37927">
        <ele>1021</ele>
        <time>2020-06-19T22:05:30Z</time>
      </trkpt>
      <trkpt lat="42.82612" lon="1.37928">
        <ele>1021</ele>
        <time>2020-06-19T22:05:32Z</time>
      </trkpt>
      <trkpt lat="42.82657" lon="1.37948">
        <ele>1022</ele>
        <time>2020-06-19T22:05:41Z</time>
      </trkpt>
      <trkpt lat="42.82708" lon="1.37959">
        <ele>1018</ele>
        <time>2020-06-19T22:05:50Z</time>
      </trkpt>
      <trkpt lat="42.82719" lon="1.37965">
        <ele>1017</ele>
        <time>2020-06-19T22:05:52Z</time>
      </trkpt>
      <trkpt lat="42.82726" lon="1.37971">
        <ele>1016</ele>
        <time>2020-06-19T22:05:53Z</time>
      </trkpt>
      <trkpt lat="42.82739" lon="1.37995">
        <ele>1014</ele>
        <time>2020-06-19T22:05:57Z</time>
      </trkpt>
      <trkpt lat="42.82745" lon="1.37999">
        <ele>1013</ele>
        <time>2020-06-19T22:05:58Z</time>
      </trkpt>
      <trkpt lat="42.82752" lon="1.38002">
        <ele>1012</ele>
        <time>2020-06-19T22:06:00Z</time>
      </trkpt>
      <trkpt lat="42.8279" lon="1.37999">
        <ele>1009</ele>
        <time>2020-06-19T22:06:07Z</time>
      </trkpt>
      <trkpt lat="42.82805" lon="1.38009">
        <ele>1010</ele>
        <time>2020-06-19T22:06:09Z</time>
      </trkpt>
      <trkpt lat="42.82824" lon="1.38028">
        <ele>1011</ele>
        <time>2020-06-19T22:06:14Z</time>
      </trkpt>
      <trkpt lat="42.82833" lon="1.3803">
        <ele>1011</ele>
        <time>2020-06-19T22:06:15Z</time>
      </trkpt>
      <trkpt lat="42.82851" lon="1.38027">
        <ele>1009</ele>
        <time>2020-06-19T22:06:19Z</time>
      </trkpt>
      <trkpt lat="42.82877" lon="1.38019">
        <ele>1004</ele>
        <time>2020-06-19T22:06:23Z</time>
      </trkpt>
      <trkpt lat="42.82898" lon="1.3802">
        <ele>1002</ele>
        <time>2020-06-19T22:06:27Z</time>
      </trkpt>
      <trkpt lat="42.82911" lon="1.38018">
        <ele>1001</ele>
        <time>2020-06-19T22:06:29Z</time>
      </trkpt>
      <trkpt lat="42.82924" lon="1.38016">
        <ele>999</ele>
        <time>2020-06-19T22:06:32Z</time>
      </trkpt>
      <trkpt lat="42.82934" lon="1.3801">
        <ele>998</ele>
        <time>2020-06-19T22:06:34Z</time>
      </trkpt>
      <trkpt lat="42.82951" lon="1.38006">
        <ele>996</ele>
        <time>2020-06-19T22:06:37Z</time>
      </trkpt>
      <trkpt lat="42.82964" lon="1.38013">
        <ele>996</ele>
        <time>2020-06-19T22:06:39Z</time>
      </trkpt>
      <trkpt lat="42.82989" lon="1.38048">
        <ele>1000</ele>
        <time>2020-06-19T22:06:46Z</time>
      </trkpt>
      <trkpt lat="42.82998" lon="1.38051">
        <ele>999</ele>
        <time>2020-06-19T22:06:47Z</time>
      </trkpt>
      <trkpt lat="42.83025" lon="1.38051">
        <ele>998</ele>
        <time>2020-06-19T22:06:52Z</time>
      </trkpt>
      <trkpt lat="42.83068" lon="1.3803">
        <ele>989</ele>
        <time>2020-06-19T22:07:00Z</time>
      </trkpt>
      <trkpt lat="42.83087" lon="1.38024">
        <ele>986</ele>
        <time>2020-06-19T22:07:04Z</time>
      </trkpt>
      <trkpt lat="42.83129" lon="1.38015">
        <ele>982</ele>
        <time>2020-06-19T22:07:11Z</time>
      </trkpt>
      <trkpt lat="42.83152" lon="1.38">
        <ele>977</ele>
        <time>2020-06-19T22:07:16Z</time>
      </trkpt>
      <trkpt lat="42.83174" lon="1.37982">
        <ele>973</ele>
        <time>2020-06-19T22:07:20Z</time>
      </trkpt>
      <trkpt lat="42.8327" lon="1.37933">
        <ele>965</ele>
        <time>2020-06-19T22:07:38Z</time>
      </trkpt>
      <trkpt lat="42.8329" lon="1.37911">
        <ele>961</ele>
        <time>2020-06-19T22:07:43Z</time>
      </trkpt>
      <trkpt lat="42.83307" lon="1.37884">
        <ele>959</ele>
        <time>2020-06-19T22:07:48Z</time>
      </trkpt>
      <trkpt lat="42.83322" lon="1.37867">
        <ele>958</ele>
        <time>2020-06-19T22:07:51Z</time>
      </trkpt>
      <trkpt lat="42.83428" lon="1.37777">
        <ele>950</ele>
        <time>2020-06-19T22:08:13Z</time>
      </trkpt>
      <trkpt lat="42.83491" lon="1.37707">
        <ele>952</ele>
        <time>2020-06-19T22:08:28Z</time>
      </trkpt>
      <trkpt lat="42.83501" lon="1.37705">
        <ele>952</ele>
        <time>2020-06-19T22:08:30Z</time>
      </trkpt>
      <trkpt lat="42.83536" lon="1.37706">
        <ele>949</ele>
        <time>2020-06-19T22:08:36Z</time>
      </trkpt>
      <trkpt lat="42.83552" lon="1.37713">
        <ele>946</ele>
        <time>2020-06-19T22:08:39Z</time>
      </trkpt>
      <trkpt lat="42.83579" lon="1.37744">
        <ele>934</ele>
        <time>2020-06-19T22:08:45Z</time>
      </trkpt>
      <trkpt lat="42.83586" lon="1.37747">
        <ele>933</ele>
        <time>2020-06-19T22:08:46Z</time>
      </trkpt>
      <trkpt lat="42.83597" lon="1.37746">
        <ele>932</ele>
        <time>2020-06-19T22:08:48Z</time>
      </trkpt>
      <trkpt lat="42.83635" lon="1.37733">
        <ele>932</ele>
        <time>2020-06-19T22:08:55Z</time>
      </trkpt>
      <trkpt lat="42.83654" lon="1.37728">
        <ele>931</ele>
        <time>2020-06-19T22:08:59Z</time>
      </trkpt>
      <trkpt lat="42.83677" lon="1.37707">
        <ele>932</ele>
        <time>2020-06-19T22:09:04Z</time>
      </trkpt>
      <trkpt lat="42.83697" lon="1.37684">
        <ele>931</ele>
        <time>2020-06-19T22:09:08Z</time>
      </trkpt>
      <trkpt lat="42.8372" lon="1.37663">
        <ele>928</ele>
        <time>2020-06-19T22:09:13Z</time>
      </trkpt>
      <trkpt lat="42.83739" lon="1.37649">
        <ele>927</ele>
        <time>2020-06-19T22:09:17Z</time>
      </trkpt>
      <trkpt lat="42.83761" lon="1.37644">
        <ele>922</ele>
        <time>2020-06-19T22:09:21Z</time>
      </trkpt>
      <trkpt lat="42.83782" lon="1.37644">
        <ele>917</ele>
        <time>2020-06-19T22:09:25Z</time>
      </trkpt>
      <trkpt lat="42.838" lon="1.37641">
        <ele>914</ele>
        <time>2020-06-19T22:09:28Z</time>
      </trkpt>
      <trkpt lat="42.83814" lon="1.37635">
        <ele>911</ele>
        <time>2020-06-19T22:09:31Z</time>
      </trkpt>
      <trkpt lat="42.83824" lon="1.37621">
        <ele>910</ele>
        <time>2020-06-19T22:09:33Z</time>
      </trkpt>
      <trkpt lat="42.83836" lon="1.37597">
        <ele>909</ele>
        <time>2020-06-19T22:09:37Z</time>
      </trkpt>
      <trkpt lat="42.83851" lon="1.37581">
        <ele>909</ele>
        <time>2020-06-19T22:09:40Z</time>
      </trkpt>
      <trkpt lat="42.83878" lon="1.37568">
        <ele>908</ele>
        <time>2020-06-19T22:09:46Z</time>
      </trkpt>
      <trkpt lat="42.83914" lon="1.3756">
        <ele>903</ele>
        <time>2020-06-19T22:09:52Z</time>
      </trkpt>
      <trkpt lat="42.83934" lon="1.37551">
        <ele>903</ele>
        <time>2020-06-19T22:09:56Z</time>
      </trkpt>
      <trkpt lat="42.84062" lon="1.37518">
        <ele>891</ele>
        <time>2020-06-19T22:10:19Z</time>
      </trkpt>
      <trkpt lat="42.84134" lon="1.3751">
        <ele>884</ele>
        <time>2020-06-19T22:10:32Z</time>
      </trkpt>
      <trkpt lat="42.84156" lon="1.37513">
        <ele>882</ele>
        <time>2020-06-19T22:10:36Z</time>
      </trkpt>
      <trkpt lat="42.84188" lon="1.37529">
        <ele>875</ele>
        <time>2020-06-19T22:10:42Z</time>
      </trkpt>
      <trkpt lat="42.8421" lon="1.37535">
        <ele>872</ele>
        <time>2020-06-19T22:10:46Z</time>
      </trkpt>
      <trkpt lat="42.84222" lon="1.3753">
        <ele>872</ele>
        <time>2020-06-19T22:10:48Z</time>
      </trkpt>
      <trkpt lat="42.84238" lon="1.3752">
        <ele>870</ele>
        <time>2020-06-19T22:10:51Z</time>
      </trkpt>
      <trkpt lat="42.84249" lon="1.37503">
        <ele>869</ele>
        <time>2020-06-19T22:10:54Z</time>
      </trkpt>
      <trkpt lat="42.8426" lon="1.37483">
        <ele>875</ele>
        <time>2020-06-19T22:10:57Z</time>
      </trkpt>
      <trkpt lat="42.84279" lon="1.3747">
        <ele>876</ele>
        <time>2020-06-19T22:11:01Z</time>
      </trkpt>
      <trkpt lat="42.84305" lon="1.3746">
        <ele>874</ele>
        <time>2020-06-19T22:11:06Z</time>
      </trkpt>
      <trkpt lat="42.84336" lon="1.37453">
        <ele>868</ele>
        <time>2020-06-19T22:11:12Z</time>
      </trkpt>
      <trkpt lat="42.84387" lon="1.37457">
        <ele>863</ele>
        <time>2020-06-19T22:11:21Z</time>
      </trkpt>
      <trkpt lat="42.84404" lon="1.37469">
        <ele>860</ele>
        <time>2020-06-19T22:11:24Z</time>
      </trkpt>
      <trkpt lat="42.84419" lon="1.37471">
        <ele>859</ele>
        <time>2020-06-19T22:11:27Z</time>
      </trkpt>
      <trkpt lat="42.84434" lon="1.37469">
        <ele>859</ele>
        <time>2020-06-19T22:11:29Z</time>
      </trkpt>
      <trkpt lat="42.84449" lon="1.3746">
        <ele>859</ele>
        <time>2020-06-19T22:11:32Z</time>
      </trkpt>
      <trkpt lat="42.84459" lon="1.37451">
        <ele>859</ele>
        <time>2020-06-19T22:11:34Z</time>
      </trkpt>
      <trkpt lat="42.84479" lon="1.37441">
        <ele>858</ele>
        <time>2020-06-19T22:11:38Z</time>
      </trkpt>
      <trkpt lat="42.84506" lon="1.37436">
        <ele>857</ele>
        <time>2020-06-19T22:11:43Z</time>
      </trkpt>
      <trkpt lat="42.84527" lon="1.37427">
        <ele>854</ele>
        <time>2020-06-19T22:11:47Z</time>
      </trkpt>
      <trkpt lat="42.84552" lon="1.374">
        <ele>852</ele>
        <time>2020-06-19T22:11:53Z</time>
      </trkpt>
      <trkpt lat="42.84566" lon="1.37371">
        <ele>852</ele>
        <time>2020-06-19T22:11:57Z</time>
      </trkpt>
      <trkpt lat="42.84596" lon="1.3733">
        <ele>848</ele>
        <time>2020-06-19T22:12:05Z</time>
      </trkpt>
      <trkpt lat="42.8462" lon="1.37283">
        <ele>849</ele>
        <time>2020-06-19T22:12:12Z</time>
      </trkpt>
      <trkpt lat="42.84632" lon="1.37267">
        <ele>847</ele>
        <time>2020-06-19T22:12:15Z</time>
      </trkpt>
      <trkpt lat="42.84671" lon="1.37242">
        <ele>839</ele>
        <time>2020-06-19T22:12:23Z</time>
      </trkpt>
      <trkpt lat="42.8471" lon="1.37211">
        <ele>839</ele>
        <time>2020-06-19T22:12:31Z</time>
      </trkpt>
      <trkpt lat="42.848" lon="1.37191">
        <ele>832</ele>
        <time>2020-06-19T22:12:47Z</time>
      </trkpt>
      <trkpt lat="42.84848" lon="1.37175">
        <ele>828</ele>
        <time>2020-06-19T22:12:56Z</time>
      </trkpt>
      <trkpt lat="42.84874" lon="1.37168">
        <ele>825</ele>
        <time>2020-06-19T22:13:01Z</time>
      </trkpt>
      <trkpt lat="42.84926" lon="1.37161">
        <ele>823</ele>
        <time>2020-06-19T22:13:10Z</time>
      </trkpt>
      <trkpt lat="42.84959" lon="1.37162">
        <ele>822</ele>
        <time>2020-06-19T22:13:16Z</time>
      </trkpt>
      <trkpt lat="42.85062" lon="1.37155">
        <ele>821</ele>
        <time>2020-06-19T22:13:34Z</time>
      </trkpt>
      <trkpt lat="42.85083" lon="1.37163">
        <ele>817</ele>
        <time>2020-06-19T22:13:38Z</time>
      </trkpt>
      <trkpt lat="42.85139" lon="1.37197">
        <ele>813</ele>
        <time>2020-06-19T22:13:49Z</time>
      </trkpt>
      <trkpt lat="42.85158" lon="1.37215">
        <ele>813</ele>
        <time>2020-06-19T22:13:53Z</time>
      </trkpt>
      <trkpt lat="42.85168" lon="1.37228">
        <ele>813</ele>
        <time>2020-06-19T22:13:56Z</time>
      </trkpt>
      <trkpt lat="42.85177" lon="1.37233">
        <ele>815</ele>
        <time>2020-06-19T22:13:57Z</time>
      </trkpt>
      <trkpt lat="42.85199" lon="1.37233">
        <ele>817</ele>
        <time>2020-06-19T22:14:01Z</time>
      </trkpt>
      <trkpt lat="42.85242" lon="1.37217">
        <ele>817</ele>
        <time>2020-06-19T22:14:09Z</time>
      </trkpt>
      <trkpt lat="42.85297" lon="1.37178">
        <ele>816</ele>
        <time>2020-06-19T22:14:20Z</time>
      </trkpt>
      <trkpt lat="42.85314" lon="1.37162">
        <ele>813</ele>
        <time>2020-06-19T22:14:24Z</time>
      </trkpt>
      <trkpt lat="42.85329" lon="1.37141">
        <ele>809</ele>
        <time>2020-06-19T22:14:28Z</time>
      </trkpt>
      <trkpt lat="42.85344" lon="1.37124">
        <ele>807</ele>
        <time>2020-06-19T22:14:31Z</time>
      </trkpt>
      <trkpt lat="42.854" lon="1.37076">
        <ele>800</ele>
        <time>2020-06-19T22:14:43Z</time>
      </trkpt>
      <trkpt lat="42.85478" lon="1.37026">
        <ele>798</ele>
        <time>2020-06-19T22:14:58Z</time>
      </trkpt>
      <trkpt lat="42.85497" lon="1.37007">
        <ele>791</ele>
        <time>2020-06-19T22:15:02Z</time>
      </trkpt>
      <trkpt lat="42.85521" lon="1.36986">
        <ele>785</ele>
        <time>2020-06-19T22:15:08Z</time>
      </trkpt>
      <trkpt lat="42.85538" lon="1.36977">
        <ele>782</ele>
        <time>2020-06-19T22:15:11Z</time>
      </trkpt>
      <trkpt lat="42.85552" lon="1.36978">
        <ele>781</ele>
        <time>2020-06-19T22:15:13Z</time>
      </trkpt>
      <trkpt lat="42.85574" lon="1.36983">
        <ele>781</ele>
        <time>2020-06-19T22:15:17Z</time>
      </trkpt>
      <trkpt lat="42.85598" lon="1.37002">
        <ele>782</ele>
        <time>2020-06-19T22:15:22Z</time>
      </trkpt>
      <trkpt lat="42.85627" lon="1.37031">
        <ele>784</ele>
        <time>2020-06-19T22:15:29Z</time>
      </trkpt>
      <trkpt lat="42.85654" lon="1.3708">
        <ele>783</ele>
        <time>2020-06-19T22:15:37Z</time>
      </trkpt>
      <trkpt lat="42.85671" lon="1.37097">
        <ele>781</ele>
        <time>2020-06-19T22:15:40Z</time>
      </trkpt>
      <trkpt lat="42.85683" lon="1.37105">
        <ele>782</ele>
        <time>2020-06-19T22:15:43Z</time>
      </trkpt>
      <trkpt lat="42.85758" lon="1.37115">
        <ele>773</ele>
        <time>2020-06-19T22:15:56Z</time>
      </trkpt>
      <trkpt lat="42.85782" lon="1.37125">
        <ele>773</ele>
        <time>2020-06-19T22:16:01Z</time>
      </trkpt>
      <trkpt lat="42.85823" lon="1.37135">
        <ele>772</ele>
        <time>2020-06-19T22:16:08Z</time>
      </trkpt>
      <trkpt lat="42.85878" lon="1.37137">
        <ele>772</ele>
        <time>2020-06-19T22:16:18Z</time>
      </trkpt>
      <trkpt lat="42.85903" lon="1.37133">
        <ele>771</ele>
        <time>2020-06-19T22:16:22Z</time>
      </trkpt>
      <trkpt lat="42.85938" lon="1.37116">
        <ele>765</ele>
        <time>2020-06-19T22:16:29Z</time>
      </trkpt>
      <trkpt lat="42.85973" lon="1.37104">
        <ele>761</ele>
        <time>2020-06-19T22:16:35Z</time>
      </trkpt>
      <trkpt lat="42.86014" lon="1.37111">
        <ele>764</ele>
        <time>2020-06-19T22:16:43Z</time>
      </trkpt>
      <trkpt lat="42.86047" lon="1.3711">
        <ele>767</ele>
        <time>2020-06-19T22:16:48Z</time>
      </trkpt>
      <trkpt lat="42.8607" lon="1.37099">
        <ele>764</ele>
        <time>2020-06-19T22:16:53Z</time>
      </trkpt>
      <trkpt lat="42.86106" lon="1.37055">
        <ele>758</ele>
        <time>2020-06-19T22:17:01Z</time>
      </trkpt>
      <trkpt lat="42.86132" lon="1.37017">
        <ele>755</ele>
        <time>2020-06-19T22:17:08Z</time>
      </trkpt>
      <trkpt lat="42.86139" lon="1.37011">
        <ele>754</ele>
        <time>2020-06-19T22:17:10Z</time>
      </trkpt>
      <trkpt lat="42.86159" lon="1.37003">
        <ele>752</ele>
        <time>2020-06-19T22:17:13Z</time>
      </trkpt>
      <trkpt lat="42.86171" lon="1.37002">
        <ele>752</ele>
        <time>2020-06-19T22:17:16Z</time>
      </trkpt>
      <trkpt lat="42.86182" lon="1.37003">
        <ele>754</ele>
        <time>2020-06-19T22:17:17Z</time>
      </trkpt>
      <trkpt lat="42.86192" lon="1.37012">
        <ele>755</ele>
        <time>2020-06-19T22:17:20Z</time>
      </trkpt>
      <trkpt lat="42.86219" lon="1.37046">
        <ele>757</ele>
        <time>2020-06-19T22:17:26Z</time>
      </trkpt>
      <trkpt lat="42.86235" lon="1.37077">
        <ele>753</ele>
        <time>2020-06-19T22:17:31Z</time>
      </trkpt>
      <trkpt lat="42.86256" lon="1.37133">
        <ele>755</ele>
        <time>2020-06-19T22:17:39Z</time>
      </trkpt>
      <trkpt lat="42.86263" lon="1.37145">
        <ele>755</ele>
        <time>2020-06-19T22:17:41Z</time>
      </trkpt>
      <trkpt lat="42.86271" lon="1.37156">
        <ele>755</ele>
        <time>2020-06-19T22:17:43Z</time>
      </trkpt>
      <trkpt lat="42.8628" lon="1.37163">
        <ele>754</ele>
        <time>2020-06-19T22:17:45Z</time>
      </trkpt>
      <trkpt lat="42.86302" lon="1.37172">
        <ele>752</ele>
        <time>2020-06-19T22:17:49Z</time>
      </trkpt>
      <trkpt lat="42.86312" lon="1.37173">
        <ele>751</ele>
        <time>2020-06-19T22:17:51Z</time>
      </trkpt>
      <trkpt lat="42.86324" lon="1.37171">
        <ele>748</ele>
        <time>2020-06-19T22:17:53Z</time>
      </trkpt>
      <trkpt lat="42.86368" lon="1.37154">
        <ele>747</ele>
        <time>2020-06-19T22:18:01Z</time>
      </trkpt>
      <trkpt lat="42.86386" lon="1.37151">
        <ele>747</ele>
        <time>2020-06-19T22:18:05Z</time>
      </trkpt>
      <trkpt lat="42.86408" lon="1.37155">
        <ele>747</ele>
        <time>2020-06-19T22:18:08Z</time>
      </trkpt>
      <trkpt lat="42.86445" lon="1.37179">
        <ele>744</ele>
        <time>2020-06-19T22:18:16Z</time>
      </trkpt>
      <trkpt lat="42.86461" lon="1.37197">
        <ele>744</ele>
        <time>2020-06-19T22:18:19Z</time>
      </trkpt>
      <trkpt lat="42.86488" lon="1.37234">
        <ele>738</ele>
        <time>2020-06-19T22:18:26Z</time>
      </trkpt>
      <trkpt lat="42.86493" lon="1.37246">
        <ele>736</ele>
        <time>2020-06-19T22:18:28Z</time>
      </trkpt>
      <trkpt lat="42.86496" lon="1.37267">
        <ele>735</ele>
        <time>2020-06-19T22:18:31Z</time>
      </trkpt>
      <trkpt lat="42.86493" lon="1.3728">
        <ele>736</ele>
        <time>2020-06-19T22:18:33Z</time>
      </trkpt>
      <trkpt lat="42.86474" lon="1.37342">
        <ele>743</ele>
        <time>2020-06-19T22:18:41Z</time>
      </trkpt>
      <trkpt lat="42.86472" lon="1.37365">
        <ele>745</ele>
        <time>2020-06-19T22:18:44Z</time>
      </trkpt>
      <trkpt lat="42.86475" lon="1.3738">
        <ele>745</ele>
        <time>2020-06-19T22:18:46Z</time>
      </trkpt>
      <trkpt lat="42.86492" lon="1.37426">
        <ele>742</ele>
        <time>2020-06-19T22:18:53Z</time>
      </trkpt>
      <trkpt lat="42.86497" lon="1.37435">
        <ele>741</ele>
        <time>2020-06-19T22:18:55Z</time>
      </trkpt>
      <trkpt lat="42.86503" lon="1.37439">
        <ele>740</ele>
        <time>2020-06-19T22:18:56Z</time>
      </trkpt>
      <trkpt lat="42.86519" lon="1.37446">
        <ele>741</ele>
        <time>2020-06-19T22:18:59Z</time>
      </trkpt>
      <trkpt lat="42.86538" lon="1.3745">
        <ele>742</ele>
        <time>2020-06-19T22:19:02Z</time>
      </trkpt>
      <trkpt lat="42.86565" lon="1.37442">
        <ele>742</ele>
        <time>2020-06-19T22:19:07Z</time>
      </trkpt>
      <trkpt lat="42.86575" lon="1.37432">
        <ele>740</ele>
        <time>2020-06-19T22:19:09Z</time>
      </trkpt>
      <trkpt lat="42.86597" lon="1.37394">
        <ele>738</ele>
        <time>2020-06-19T22:19:16Z</time>
      </trkpt>
      <trkpt lat="42.86609" lon="1.37377">
        <ele>737</ele>
        <time>2020-06-19T22:19:19Z</time>
      </trkpt>
      <trkpt lat="42.86674" lon="1.37335">
        <ele>729</ele>
        <time>2020-06-19T22:19:32Z</time>
      </trkpt>
      <trkpt lat="42.86747" lon="1.37298">
        <ele>728</ele>
        <time>2020-06-19T22:19:45Z</time>
      </trkpt>
      <trkpt lat="42.86795" lon="1.37256">
        <ele>720</ele>
        <time>2020-06-19T22:19:56Z</time>
      </trkpt>
      <trkpt lat="42.86812" lon="1.37246">
        <ele>720</ele>
        <time>2020-06-19T22:19:59Z</time>
      </trkpt>
      <trkpt lat="42.86834" lon="1.37238">
        <ele>721</ele>
        <time>2020-06-19T22:20:03Z</time>
      </trkpt>
      <trkpt lat="42.86863" lon="1.37235">
        <ele>719</ele>
        <time>2020-06-19T22:20:08Z</time>
      </trkpt>
      <trkpt lat="42.86893" lon="1.37237">
        <ele>717</ele>
        <time>2020-06-19T22:20:13Z</time>
      </trkpt>
      <trkpt lat="42.86958" lon="1.37256">
        <ele>713</ele>
        <time>2020-06-19T22:20:25Z</time>
      </trkpt>
      <trkpt lat="42.87001" lon="1.37265">
        <ele>713</ele>
        <time>2020-06-19T22:20:33Z</time>
      </trkpt>
      <trkpt lat="42.87064" lon="1.37269">
        <ele>714</ele>
        <time>2020-06-19T22:20:44Z</time>
      </trkpt>
      <trkpt lat="42.87082" lon="1.37267">
        <ele>713</ele>
        <time>2020-06-19T22:20:47Z</time>
      </trkpt>
      <trkpt lat="42.87096" lon="1.37262">
        <ele>714</ele>
        <time>2020-06-19T22:20:50Z</time>
      </trkpt>
      <trkpt lat="42.87106" lon="1.37256">
        <ele>714</ele>
        <time>2020-06-19T22:20:52Z</time>
      </trkpt>
      <trkpt lat="42.87124" lon="1.37235">
        <ele>713</ele>
        <time>2020-06-19T22:20:56Z</time>
      </trkpt>
      <trkpt lat="42.87157" lon="1.37211">
        <ele>712</ele>
        <time>2020-06-19T22:21:03Z</time>
      </trkpt>
      <trkpt lat="42.87169" lon="1.372">
        <ele>711</ele>
        <time>2020-06-19T22:21:05Z</time>
      </trkpt>
      <trkpt lat="42.87183" lon="1.37183">
        <ele>710</ele>
        <time>2020-06-19T22:21:09Z</time>
      </trkpt>
      <trkpt lat="42.87216" lon="1.37129">
        <ele>709</ele>
        <time>2020-06-19T22:21:18Z</time>
      </trkpt>
      <trkpt lat="42.87369" lon="1.36809">
        <ele>706</ele>
        <time>2020-06-19T22:22:08Z</time>
      </trkpt>
      <trkpt lat="42.87427" lon="1.36714">
        <ele>702</ele>
        <time>2020-06-19T22:22:24Z</time>
      </trkpt>
      <trkpt lat="42.87447" lon="1.36678">
        <ele>703</ele>
        <time>2020-06-19T22:22:30Z</time>
      </trkpt>
      <trkpt lat="42.87466" lon="1.36656">
        <ele>705</ele>
        <time>2020-06-19T22:22:34Z</time>
      </trkpt>
      <trkpt lat="42.87492" lon="1.36631">
        <ele>706</ele>
        <time>2020-06-19T22:22:40Z</time>
      </trkpt>
      <trkpt lat="42.87501" lon="1.36613">
        <ele>705</ele>
        <time>2020-06-19T22:22:43Z</time>
      </trkpt>
      <trkpt lat="42.87519" lon="1.36565">
        <ele>705</ele>
        <time>2020-06-19T22:22:50Z</time>
      </trkpt>
      <trkpt lat="42.87542" lon="1.36524">
        <ele>706</ele>
        <time>2020-06-19T22:22:56Z</time>
      </trkpt>
      <trkpt lat="42.87587" lon="1.36462">
        <ele>702</ele>
        <time>2020-06-19T22:23:08Z</time>
      </trkpt>
      <trkpt lat="42.87606" lon="1.36446">
        <ele>700</ele>
        <time>2020-06-19T22:23:12Z</time>
      </trkpt>
      <trkpt lat="42.87723" lon="1.36418">
        <ele>711</ele>
        <time>2020-06-19T22:23:33Z</time>
      </trkpt>
      <trkpt lat="42.87743" lon="1.36406">
        <ele>712</ele>
        <time>2020-06-19T22:23:37Z</time>
      </trkpt>
      <trkpt lat="42.87764" lon="1.36384">
        <ele>713</ele>
        <time>2020-06-19T22:23:42Z</time>
      </trkpt>
      <trkpt lat="42.87779" lon="1.36357">
        <ele>711</ele>
        <time>2020-06-19T22:23:46Z</time>
      </trkpt>
      <trkpt lat="42.87787" lon="1.36328">
        <ele>707</ele>
        <time>2020-06-19T22:23:50Z</time>
      </trkpt>
      <trkpt lat="42.87787" lon="1.36272">
        <ele>702</ele>
        <time>2020-06-19T22:23:57Z</time>
      </trkpt>
      <trkpt lat="42.8779" lon="1.36222">
        <ele>700</ele>
        <time>2020-06-19T22:24:04Z</time>
      </trkpt>
      <trkpt lat="42.878" lon="1.36172">
        <ele>701</ele>
        <time>2020-06-19T22:24:11Z</time>
      </trkpt>
      <trkpt lat="42.87816" lon="1.36108">
        <ele>698</ele>
        <time>2020-06-19T22:24:19Z</time>
      </trkpt>
      <trkpt lat="42.87838" lon="1.36061">
        <ele>694</ele>
        <time>2020-06-19T22:24:27Z</time>
      </trkpt>
      <trkpt lat="42.87858" lon="1.36029">
        <ele>692</ele>
        <time>2020-06-19T22:24:32Z</time>
      </trkpt>
      <trkpt lat="42.87889" lon="1.35996">
        <ele>692</ele>
        <time>2020-06-19T22:24:39Z</time>
      </trkpt>
      <trkpt lat="42.87926" lon="1.35968">
        <ele>692</ele>
        <time>2020-06-19T22:24:47Z</time>
      </trkpt>
      <trkpt lat="42.87956" lon="1.35924">
        <ele>685</ele>
        <time>2020-06-19T22:24:55Z</time>
      </trkpt>
      <trkpt lat="42.87973" lon="1.3589">
        <ele>683</ele>
        <time>2020-06-19T22:25:00Z</time>
      </trkpt>
      <trkpt lat="42.87985" lon="1.35849">
        <ele>678</ele>
        <time>2020-06-19T22:25:06Z</time>
      </trkpt>
      <trkpt lat="42.87991" lon="1.35844">
        <ele>678</ele>
        <time>2020-06-19T22:25:07Z</time>
      </trkpt>
      <trkpt lat="42.87999" lon="1.35842">
        <ele>678</ele>
        <time>2020-06-19T22:25:08Z</time>
      </trkpt>
      <trkpt lat="42.88032" lon="1.35843">
        <ele>678</ele>
        <time>2020-06-19T22:25:14Z</time>
      </trkpt>
      <trkpt lat="42.88062" lon="1.35865">
        <ele>682</ele>
        <time>2020-06-19T22:25:20Z</time>
      </trkpt>
      <trkpt lat="42.88076" lon="1.35863">
        <ele>682</ele>
        <time>2020-06-19T22:25:23Z</time>
      </trkpt>
      <trkpt lat="42.88091" lon="1.35848">
        <ele>679</ele>
        <time>2020-06-19T22:25:26Z</time>
      </trkpt>
      <trkpt lat="42.88153" lon="1.35804">
        <ele>675</ele>
        <time>2020-06-19T22:25:39Z</time>
      </trkpt>
      <trkpt lat="42.88188" lon="1.35806">
        <ele>676</ele>
        <time>2020-06-19T22:25:45Z</time>
      </trkpt>
      <trkpt lat="42.88235" lon="1.35826">
        <ele>679</ele>
        <time>2020-06-19T22:25:53Z</time>
      </trkpt>
      <trkpt lat="42.88296" lon="1.35838">
        <ele>671</ele>
        <time>2020-06-19T22:26:04Z</time>
      </trkpt>
      <trkpt lat="42.88317" lon="1.35841">
        <ele>666</ele>
        <time>2020-06-19T22:26:08Z</time>
      </trkpt>
      <trkpt lat="42.88335" lon="1.35841">
        <ele>662</ele>
        <time>2020-06-19T22:26:11Z</time>
      </trkpt>
      <trkpt lat="42.88367" lon="1.35834">
        <ele>658</ele>
        <time>2020-06-19T22:26:17Z</time>
      </trkpt>
      <trkpt lat="42.88456" lon="1.35823">
        <ele>652</ele>
        <time>2020-06-19T22:26:33Z</time>
      </trkpt>
      <trkpt lat="42.88465" lon="1.35818">
        <ele>652</ele>
        <time>2020-06-19T22:26:35Z</time>
      </trkpt>
      <trkpt lat="42.88474" lon="1.35808">
        <ele>651</ele>
        <time>2020-06-19T22:26:37Z</time>
      </trkpt>
      <trkpt lat="42.8848" lon="1.35788">
        <ele>651</ele>
        <time>2020-06-19T22:26:40Z</time>
      </trkpt>
      <trkpt lat="42.88484" lon="1.35761">
        <ele>651</ele>
        <time>2020-06-19T22:26:43Z</time>
      </trkpt>
      <trkpt lat="42.88484" lon="1.35744">
        <ele>652</ele>
        <time>2020-06-19T22:26:46Z</time>
      </trkpt>
      <trkpt lat="42.88476" lon="1.3567">
        <ele>659</ele>
        <time>2020-06-19T22:26:55Z</time>
      </trkpt>
      <trkpt lat="42.88481" lon="1.35646">
        <ele>660</ele>
        <time>2020-06-19T22:26:59Z</time>
      </trkpt>
      <trkpt lat="42.88516" lon="1.35551">
        <ele>661</ele>
        <time>2020-06-19T22:27:12Z</time>
      </trkpt>
      <trkpt lat="42.88576" lon="1.35312">
        <ele>658</ele>
        <time>2020-06-19T22:27:45Z</time>
      </trkpt>
      <trkpt lat="42.8858" lon="1.35291">
        <ele>657</ele>
        <time>2020-06-19T22:27:48Z</time>
      </trkpt>
      <trkpt lat="42.88579" lon="1.35269">
        <ele>657</ele>
        <time>2020-06-19T22:27:51Z</time>
      </trkpt>
      <trkpt lat="42.88555" lon="1.35177">
        <ele>662</ele>
        <time>2020-06-19T22:28:04Z</time>
      </trkpt>
      <trkpt lat="42.88557" lon="1.35162">
        <ele>663</ele>
        <time>2020-06-19T22:28:06Z</time>
      </trkpt>
      <trkpt lat="42.88578" lon="1.35135">
        <ele>660</ele>
        <time>2020-06-19T22:28:11Z</time>
      </trkpt>
      <trkpt lat="42.88604" lon="1.35123">
        <ele>660</ele>
        <time>2020-06-19T22:28:16Z</time>
      </trkpt>
      <trkpt lat="42.88615" lon="1.35114">
        <ele>660</ele>
        <time>2020-06-19T22:28:18Z</time>
      </trkpt>
      <trkpt lat="42.88648" lon="1.35072">
        <ele>660</ele>
        <time>2020-06-19T22:28:26Z</time>
      </trkpt>
      <trkpt lat="42.88704" lon="1.34991">
        <ele>660</ele>
        <time>2020-06-19T22:28:41Z</time>
      </trkpt>
      <trkpt lat="42.88736" lon="1.34929">
        <ele>661</ele>
        <time>2020-06-19T22:28:50Z</time>
      </trkpt>
      <trkpt lat="42.88761" lon="1.34857">
        <ele>662</ele>
        <time>2020-06-19T22:29:01Z</time>
      </trkpt>
      <trkpt lat="42.88776" lon="1.348">
        <ele>663</ele>
        <time>2020-06-19T22:29:09Z</time>
      </trkpt>
      <trkpt lat="42.88776" lon="1.34795">
        <ele>663</ele>
        <time>2020-06-19T22:29:09Z</time>
      </trkpt>
      <trkpt lat="42.88769" lon="1.34788">
        <ele>664</ele>
        <time>2020-06-19T22:29:11Z</time>
      </trkpt>
      <trkpt lat="42.88767" lon="1.3478">
        <ele>664</ele>
        <time>2020-06-19T22:29:12Z</time>
      </trkpt>
      <trkpt lat="42.88774" lon="1.34761">
        <ele>664</ele>
        <time>2020-06-19T22:29:15Z</time>
      </trkpt>
      <trkpt lat="42.88788" lon="1.34749">
        <ele>663</ele>
        <time>2020-06-19T22:29:18Z</time>
      </trkpt>
      <trkpt lat="42.88793" lon="1.34747">
        <ele>663</ele>
        <time>2020-06-19T22:29:19Z</time>
      </trkpt>
      <trkpt lat="42.88805" lon="1.34746">
        <ele>662</ele>
        <time>2020-06-19T22:29:21Z</time>
      </trkpt>
      <trkpt lat="42.88843" lon="1.34749">
        <ele>660</ele>
        <time>2020-06-19T22:29:28Z</time>
      </trkpt>
      <trkpt lat="42.8887" lon="1.34725">
        <ele>659</ele>
        <time>2020-06-19T22:29:33Z</time>
      </trkpt>
      <trkpt lat="42.88898" lon="1.34719">
        <ele>657</ele>
        <time>2020-06-19T22:29:38Z</time>
      </trkpt>
      <trkpt lat="42.88902" lon="1.34719">
        <ele>657</ele>
        <time>2020-06-19T22:29:39Z</time>
      </trkpt>
      <trkpt lat="42.88934" lon="1.3474">
        <ele>654</ele>
        <time>2020-06-19T22:29:45Z</time>
      </trkpt>
      <trkpt lat="42.88938" lon="1.3474">
        <ele>654</ele>
        <time>2020-06-19T22:29:46Z</time>
      </trkpt>
      <trkpt lat="42.88938" lon="1.34693">
        <ele>654</ele>
        <time>2020-06-19T22:29:52Z</time>
      </trkpt>
      <trkpt lat="42.88953" lon="1.34601">
        <ele>652</ele>
        <time>2020-06-19T22:30:05Z</time>
      </trkpt>
      <trkpt lat="42.88959" lon="1.34567">
        <ele>651</ele>
        <time>2020-06-19T22:30:09Z</time>
      </trkpt>
      <trkpt lat="42.88987" lon="1.3449">
        <ele>648</ele>
        <time>2020-06-19T22:30:20Z</time>
      </trkpt>
      <trkpt lat="42.89038" lon="1.34392">
        <ele>647</ele>
        <time>2020-06-19T22:30:36Z</time>
      </trkpt>
      <trkpt lat="42.89042" lon="1.34384">
        <ele>647</ele>
        <time>2020-06-19T22:30:37Z</time>
      </trkpt>
      <trkpt lat="42.89088" lon="1.34291">
        <ele>647</ele>
        <time>2020-06-19T22:30:52Z</time>
      </trkpt>
      <trkpt lat="42.89118" lon="1.34238">
        <ele>646</ele>
        <time>2020-06-19T22:31:01Z</time>
      </trkpt>
      <trkpt lat="42.89192" lon="1.34091">
        <ele>644</ele>
        <time>2020-06-19T22:31:24Z</time>
      </trkpt>
      <trkpt lat="42.89216" lon="1.34051">
        <ele>643</ele>
        <time>2020-06-19T22:31:31Z</time>
      </trkpt>
      <trkpt lat="42.89234" lon="1.34017">
        <ele>641</ele>
        <time>2020-06-19T22:31:36Z</time>
      </trkpt>
      <trkpt lat="42.89248" lon="1.3398">
        <ele>639</ele>
        <time>2020-06-19T22:31:41Z</time>
      </trkpt>
      <trkpt lat="42.89258" lon="1.33943">
        <ele>637</ele>
        <time>2020-06-19T22:31:47Z</time>
      </trkpt>
      <trkpt lat="42.89267" lon="1.33914">
        <ele>636</ele>
        <time>2020-06-19T22:31:51Z</time>
      </trkpt>
      <trkpt lat="42.89285" lon="1.33895">
        <ele>635</ele>
        <time>2020-06-19T22:31:55Z</time>
      </trkpt>
      <trkpt lat="42.89316" lon="1.33883">
        <ele>633</ele>
        <time>2020-06-19T22:32:01Z</time>
      </trkpt>
      <trkpt lat="42.89338" lon="1.33857">
        <ele>631</ele>
        <time>2020-06-19T22:32:06Z</time>
      </trkpt>
      <trkpt lat="42.89373" lon="1.33758">
        <ele>627</ele>
        <time>2020-06-19T22:32:20Z</time>
      </trkpt>
      <trkpt lat="42.89379" lon="1.3372">
        <ele>626</ele>
        <time>2020-06-19T22:32:25Z</time>
      </trkpt>
      <trkpt lat="42.89354" lon="1.3361">
        <ele>626</ele>
        <time>2020-06-19T22:32:40Z</time>
      </trkpt>
      <trkpt lat="42.89354" lon="1.33591">
        <ele>626</ele>
        <time>2020-06-19T22:32:43Z</time>
      </trkpt>
      <trkpt lat="42.89375" lon="1.33474">
        <ele>622</ele>
        <time>2020-06-19T22:32:58Z</time>
      </trkpt>
      <trkpt lat="42.8943" lon="1.33255">
        <ele>616</ele>
        <time>2020-06-19T22:33:28Z</time>
      </trkpt>
      <trkpt lat="42.89442" lon="1.3323">
        <ele>616</ele>
        <time>2020-06-19T22:33:32Z</time>
      </trkpt>
      <trkpt lat="42.89453" lon="1.33213">
        <ele>615</ele>
        <time>2020-06-19T22:33:35Z</time>
      </trkpt>
      <trkpt lat="42.89617" lon="1.3304">
        <ele>609</ele>
        <time>2020-06-19T22:34:12Z</time>
      </trkpt>
      <trkpt lat="42.89643" lon="1.33015">
        <ele>611</ele>
        <time>2020-06-19T22:34:18Z</time>
      </trkpt>
      <trkpt lat="42.89648" lon="1.33002">
        <ele>611</ele>
        <time>2020-06-19T22:34:20Z</time>
      </trkpt>
      <trkpt lat="42.89652" lon="1.32987">
        <ele>611</ele>
        <time>2020-06-19T22:34:22Z</time>
      </trkpt>
      <trkpt lat="42.89685" lon="1.32815">
        <ele>608</ele>
        <time>2020-06-19T22:34:45Z</time>
      </trkpt>
      <trkpt lat="42.89709" lon="1.32709">
        <ele>608</ele>
        <time>2020-06-19T22:34:59Z</time>
      </trkpt>
      <trkpt lat="42.89743" lon="1.32585">
        <ele>601</ele>
        <time>2020-06-19T22:35:17Z</time>
      </trkpt>
      <trkpt lat="42.89778" lon="1.32466">
        <ele>603</ele>
        <time>2020-06-19T22:35:33Z</time>
      </trkpt>
      <trkpt lat="42.89788" lon="1.32428">
        <ele>603</ele>
        <time>2020-06-19T22:35:39Z</time>
      </trkpt>
      <trkpt lat="42.89796" lon="1.32369">
        <ele>603</ele>
        <time>2020-06-19T22:35:47Z</time>
      </trkpt>
      <trkpt lat="42.89794" lon="1.32327">
        <ele>603</ele>
        <time>2020-06-19T22:35:52Z</time>
      </trkpt>
      <trkpt lat="42.89783" lon="1.32275">
        <ele>601</ele>
        <time>2020-06-19T22:35:59Z</time>
      </trkpt>
      <trkpt lat="42.89777" lon="1.32255">
        <ele>600</ele>
        <time>2020-06-19T22:36:02Z</time>
      </trkpt>
      <trkpt lat="42.89765" lon="1.32228">
        <ele>598</ele>
        <time>2020-06-19T22:36:06Z</time>
      </trkpt>
      <trkpt lat="42.89712" lon="1.32116">
        <ele>606</ele>
        <time>2020-06-19T22:36:23Z</time>
      </trkpt>
      <trkpt lat="42.89699" lon="1.32077">
        <ele>605</ele>
        <time>2020-06-19T22:36:29Z</time>
      </trkpt>
      <trkpt lat="42.89691" lon="1.32029">
        <ele>604</ele>
        <time>2020-06-19T22:36:35Z</time>
      </trkpt>
      <trkpt lat="42.8969" lon="1.31968">
        <ele>603</ele>
        <time>2020-06-19T22:36:43Z</time>
      </trkpt>
      <trkpt lat="42.89693" lon="1.31942">
        <ele>602</ele>
        <time>2020-06-19T22:36:47Z</time>
      </trkpt>
      <trkpt lat="42.89699" lon="1.31918">
        <ele>601</ele>
        <time>2020-06-19T22:36:50Z</time>
      </trkpt>
      <trkpt lat="42.89709" lon="1.31889">
        <ele>600</ele>
        <time>2020-06-19T22:36:54Z</time>
      </trkpt>
      <trkpt lat="42.89769" lon="1.31767">
        <ele>593</ele>
        <time>2020-06-19T22:37:13Z</time>
      </trkpt>
      <trkpt lat="42.89782" lon="1.31726">
        <ele>592</ele>
        <time>2020-06-19T22:37:19Z</time>
      </trkpt>
      <trkpt lat="42.89785" lon="1.31705">
        <ele>593</ele>
        <time>2020-06-19T22:37:22Z</time>
      </trkpt>
      <trkpt lat="42.89795" lon="1.31593">
        <ele>593</ele>
        <time>2020-06-19T22:37:37Z</time>
      </trkpt>
      <trkpt lat="42.89807" lon="1.31487">
        <ele>590</ele>
        <time>2020-06-19T22:37:51Z</time>
      </trkpt>
      <trkpt lat="42.89808" lon="1.31448">
        <ele>590</ele>
        <time>2020-06-19T22:37:56Z</time>
      </trkpt>
      <trkpt lat="42.89752" lon="1.31382">
        <ele>589.8</ele>
      </trkpt>
      <trkpt lat="42.8972" lon="1.31354">
        <ele>609.2</ele>
      </trkpt>
      <trkpt lat="42.8973" lon="1.31313">
        <ele>600.8</ele>
      </trkpt>
      <trkpt lat="42.89724" lon="1.31277">
        <ele>601</ele>
      </trkpt>
      <trkpt lat="42.89625" lon="1.31223">
        <ele>606.9</ele>
      </trkpt>
      <trkpt lat="42.89579" lon="1.31227">
        <ele>611</ele>
      </trkpt>
      <trkpt lat="42.89562" lon="1.31243">
        <ele>610.9</ele>
      </trkpt>
      <trkpt lat="42.89529" lon="1.31324">
        <ele>618.4</ele>
      </trkpt>
      <trkpt lat="42.89453" lon="1.31327">
        <ele>612.5</ele>
      </trkpt>
      <trkpt lat="42.89403" lon="1.31355">
        <ele>616.9</ele>
      </trkpt>
      <trkpt lat="42.89376" lon="1.31355">
        <ele>618.6</ele>
      </trkpt>
      <trkpt lat="42.89301" lon="1.31322">
        <ele>616.5</ele>
      </trkpt>
      <trkpt lat="42.89268" lon="1.31339">
        <ele>622.2</ele>
      </trkpt>
      <trkpt lat="42.89238" lon="1.31279">
        <ele>619.7</ele>
      </trkpt>
      <trkpt lat="42.89208" lon="1.31251">
        <ele>620.6</ele>
      </trkpt>
      <trkpt lat="42.89106" lon="1.31262">
        <ele>626.2</ele>
      </trkpt>
      <trkpt lat="42.89063" lon="1.31242">
        <ele>626.7</ele>
      </trkpt>
      <trkpt lat="42.89032" lon="1.3125">
        <ele>630</ele>
      </trkpt>
      <trkpt lat="42.89021" lon="1.31293">
        <ele>630.1</ele>
      </trkpt>
      <trkpt lat="42.88959" lon="1.31302">
        <ele>637.8</ele>
      </trkpt>
      <trkpt lat="42.88884" lon="1.31252">
        <ele>654.8</ele>
      </trkpt>
      <trkpt lat="42.88813" lon="1.31265">
        <ele>665.4</ele>
      </trkpt>
      <trkpt lat="42.88762" lon="1.31302">
        <ele>662.1</ele>
      </trkpt>
      <trkpt lat="42.88728" lon="1.31341">
        <ele>654.3</ele>
      </trkpt>
      <trkpt lat="42.88605" lon="1.31304">
        <ele>670.9</ele>
      </trkpt>
      <trkpt lat="42.88544" lon="1.31304">
        <ele>668.2</ele>
      </trkpt>
      <trkpt lat="42.88504" lon="1.31276">
        <ele>672.4</ele>
      </trkpt>
      <trkpt lat="42.88409" lon="1.31247">
        <ele>673.8</ele>
      </trkpt>
      <trkpt lat="42.88357" lon="1.31166">
        <ele>687.6</ele>
      </trkpt>
      <trkpt lat="42.88336" lon="1.31081">
        <ele>695.5</ele>
      </trkpt>
      <trkpt lat="42.88299" lon="1.30971">
        <ele>718.6</ele>
      </trkpt>
      <trkpt lat="42.88257" lon="1.30956">
        <ele>715</ele>
      </trkpt>
      <trkpt lat="42.88216" lon="1.30906">
        <ele>727.8</ele>
      </trkpt>
      <trkpt lat="42.88164" lon="1.30943">
        <ele>715.2</ele>
      </trkpt>
      <trkpt lat="42.88124" lon="1.30925">
        <ele>716.4</ele>
      </trkpt>
      <trkpt lat="42.88082" lon="1.30858">
        <ele>734.2</ele>
      </trkpt>
      <trkpt lat="42.88015" lon="1.30832">
        <ele>736.5</ele>
      </trkpt>
      <trkpt lat="42.88007" lon="1.30754">
        <ele>744.2</ele>
      </trkpt>
      <trkpt lat="42.88015" lon="1.30678">
        <ele>752</ele>
      </trkpt>
      <trkpt lat="42.88019" lon="1.30616">
        <ele>753.8</ele>
      </trkpt>
      <trkpt lat="42.88062" lon="1.30515">
        <ele>758.5</ele>
      </trkpt>
      <trkpt lat="42.88087" lon="1.30465">
        <ele>771.5</ele>
      </trkpt>
      <trkpt lat="42.88099" lon="1.30367">
        <ele>776.7</ele>
      </trkpt>
      <trkpt lat="42.88088" lon="1.30265">
        <ele>779.7</ele>
      </trkpt>
      <trkpt lat="42.88075" lon="1.30136">
        <ele>792</ele>
      </trkpt>
      <trkpt lat="42.8804" lon="1.30049">
        <ele>795.3</ele>
      </trkpt>
      <trkpt lat="42.88028" lon="1.30075">
        <ele>796.1</ele>
      </trkpt>
      <trkpt lat="42.87986" lon="1.30252">
        <ele>789.1</ele>
      </trkpt>
      <trkpt lat="42.87947" lon="1.30286">
        <ele>786.9</ele>
      </trkpt>
      <trkpt lat="42.87926" lon="1.30237">
        <ele>798.3</ele>
      </trkpt>
      <trkpt lat="42.87901" lon="1.30214">
        <ele>804.7</ele>
      </trkpt>
      <trkpt lat="42.8785" lon="1.30249">
        <ele>803.3</ele>
      </trkpt>
      <trkpt lat="42.87835" lon="1.3024">
        <ele>802.9</ele>
      </trkpt>
      <trkpt lat="42.87853" lon="1.30216">
        <ele>806.2</ele>
      </trkpt>
      <trkpt lat="42.87864" lon="1.30183">
        <ele>809.1</ele>
      </trkpt>
      <trkpt lat="42.87856" lon="1.30122">
        <ele>819.3</ele>
      </trkpt>
      <trkpt lat="42.87856" lon="1.30063">
        <ele>825.4</ele>
      </trkpt>
      <trkpt lat="42.87808" lon="1.3013">
        <ele>826.3</ele>
      </trkpt>
      <trkpt lat="42.8776" lon="1.30118">
        <ele>828.8</ele>
      </trkpt>
      <trkpt lat="42.87726" lon="1.30075">
        <ele>836.2</ele>
      </trkpt>
      <trkpt lat="42.87719" lon="1.30005">
        <ele>841.2</ele>
      </trkpt>
      <trkpt lat="42.87679" lon="1.29974">
        <ele>853.2</ele>
      </trkpt>
      <trkpt lat="42.87632" lon="1.29961">
        <ele>852.5</ele>
      </trkpt>
      <trkpt lat="42.87604" lon="1.29964">
        <ele>850.7</ele>
      </trkpt>
      <trkpt lat="42.87579" lon="1.29938">
        <ele>852.3</ele>
      </trkpt>
      <trkpt lat="42.87586" lon="1.29909">
        <ele>862.4</ele>
      </trkpt>
      <trkpt lat="42.87611" lon="1.29935">
        <ele>854.6</ele>
      </trkpt>
      <trkpt lat="42.8771" lon="1.29918">
        <ele>859.3</ele>
      </trkpt>
      <trkpt lat="42.87746" lon="1.29818">
        <ele>890</ele>
      </trkpt>
      <trkpt lat="42.87806" lon="1.29766">
        <ele>885.6</ele>
      </trkpt>
      <trkpt lat="42.8781" lon="1.29714">
        <ele>900.8</ele>
      </trkpt>
      <trkpt lat="42.87857" lon="1.29714">
        <ele>884.8</ele>
      </trkpt>
      <trkpt lat="42.87869" lon="1.29692">
        <ele>885.2</ele>
      </trkpt>
      <trkpt lat="42.87871" lon="1.2964">
        <ele>892.6</ele>
      </trkpt>
      <trkpt lat="42.87862" lon="1.296">
        <ele>896.1</ele>
      </trkpt>
      <trkpt lat="42.87816" lon="1.29556">
        <ele>919.5</ele>
      </trkpt>
      <trkpt lat="42.87826" lon="1.29487">
        <ele>922</ele>
      </trkpt>
      <trkpt lat="42.87863" lon="1.29465">
        <ele>913</ele>
      </trkpt>
      <trkpt lat="42.87909" lon="1.29395">
        <ele>927.1</ele>
      </trkpt>
      <trkpt lat="42.87927" lon="1.29387">
        <ele>927.6</ele>
      </trkpt>
      <trkpt lat="42.8797" lon="1.2946">
        <ele>910.4</ele>
      </trkpt>
      <trkpt lat="42.87988" lon="1.29473">
        <ele>910</ele>
      </trkpt>
      <trkpt lat="42.88003" lon="1.29453">
        <ele>910.8</ele>
      </trkpt>
      <trkpt lat="42.88001" lon="1.29406">
        <ele>919.9</ele>
      </trkpt>
      <trkpt lat="42.88013" lon="1.29309">
        <ele>938.4</ele>
      </trkpt>
      <trkpt lat="42.88044" lon="1.29244">
        <ele>949.7</ele>
      </trkpt>
      <trkpt lat="42.88081" lon="1.29187">
        <ele>949.9</ele>
      </trkpt>
      <trkpt lat="42.88093" lon="1.29126">
        <ele>946.4</ele>
      </trkpt>
      <trkpt lat="42.88117" lon="1.29084">
        <ele>946.7</ele>
      </trkpt>
      <trkpt lat="42.88115" lon="1.2905">
        <ele>948.3</ele>
      </trkpt>
      <trkpt lat="42.88061" lon="1.29016">
        <ele>950.7</ele>
      </trkpt>
      <trkpt lat="42.87999" lon="1.28995">
        <ele>954.2</ele>
      </trkpt>
      <trkpt lat="42.87971" lon="1.28967">
        <ele>954.9</ele>
      </trkpt>
      <trkpt lat="42.87922" lon="1.28863">
        <ele>948.8</ele>
      </trkpt>
      <trkpt lat="42.87903" lon="1.28855">
        <ele>948.6</ele>
      </trkpt>
      <trkpt lat="42.87863" lon="1.2891">
        <ele>949.1</ele>
      </trkpt>
      <trkpt lat="42.87843" lon="1.28993">
        <ele>953.1</ele>
      </trkpt>
      <trkpt lat="42.87821" lon="1.28998">
        <ele>954.8</ele>
      </trkpt>
      <trkpt lat="42.87801" lon="1.28983">
        <ele>958.2</ele>
      </trkpt>
      <trkpt lat="42.87784" lon="1.28923">
        <ele>958.8</ele>
      </trkpt>
      <trkpt lat="42.87781" lon="1.28821">
        <ele>943.9</ele>
      </trkpt>
      <trkpt lat="42.87754" lon="1.28816">
        <ele>946.6</ele>
      </trkpt>
      <trkpt lat="42.87688" lon="1.2886">
        <ele>959.2</ele>
      </trkpt>
      <trkpt lat="42.87646" lon="1.28842">
        <ele>966.6</ele>
      </trkpt>
      <trkpt lat="42.87632" lon="1.28819">
        <ele>968.8</ele>
      </trkpt>
      <trkpt lat="42.87665" lon="1.2872">
        <ele>960.9</ele>
      </trkpt>
      <trkpt lat="42.8767" lon="1.28678">
        <ele>945.8</ele>
      </trkpt>
      <trkpt lat="42.8763" lon="1.28603">
        <ele>960</ele>
      </trkpt>
      <trkpt lat="42.87633" lon="1.28528">
        <ele>954.5</ele>
      </trkpt>
      <trkpt lat="42.87627" lon="1.2845">
        <ele>949.6</ele>
      </trkpt>
      <trkpt lat="42.87603" lon="1.2838">
        <ele>946.3</ele>
      </trkpt>
      <trkpt lat="42.87598" lon="1.28321">
        <ele>942.3</ele>
      </trkpt>
      <trkpt lat="42.87589" lon="1.28291">
        <ele>937.2</ele>
      </trkpt>
      <trkpt lat="42.87567" lon="1.28265">
        <ele>947.8</ele>
      </trkpt>
      <trkpt lat="42.87491" lon="1.28253">
        <ele>960.6</ele>
      </trkpt>
      <trkpt lat="42.87443" lon="1.28196">
        <ele>964.2</ele>
      </trkpt>
      <trkpt lat="42.87448" lon="1.28136">
        <ele>959.6</ele>
      </trkpt>
      <trkpt lat="42.8747" lon="1.28117">
        <ele>956</ele>
      </trkpt>
      <trkpt lat="42.87481" lon="1.28078">
        <ele>955.7</ele>
      </trkpt>
      <trkpt lat="42.87523" lon="1.28048">
        <ele>943.1</ele>
      </trkpt>
      <trkpt lat="42.87536" lon="1.2803">
        <ele>942.6</ele>
      </trkpt>
      <trkpt lat="42.87529" lon="1.28008">
        <ele>944.9</ele>
      </trkpt>
      <trkpt lat="42.87508" lon="1.27949">
        <ele>945.3</ele>
      </trkpt>
      <trkpt lat="42.87495" lon="1.27895">
        <ele>951.2</ele>
      </trkpt>
      <trkpt lat="42.87479" lon="1.27873">
        <ele>952.5</ele>
      </trkpt>
      <trkpt lat="42.87441" lon="1.27821">
        <ele>950.1</ele>
      </trkpt>
      <trkpt lat="42.87433" lon="1.27786">
        <ele>947.8</ele>
      </trkpt>
      <trkpt lat="42.87441" lon="1.27747">
        <ele>944.6</ele>
      </trkpt>
      <trkpt lat="42.8749" lon="1.27682">
        <ele>937.3</ele>
      </trkpt>
      <trkpt lat="42.87502" lon="1.27625">
        <ele>919.3</ele>
      </trkpt>
      <trkpt lat="42.87485" lon="1.27606">
        <ele>931.2</ele>
      </trkpt>
      <trkpt lat="42.87422" lon="1.27569">
        <ele>930.2</ele>
      </trkpt>
      <trkpt lat="42.87414" lon="1.27534">
        <ele>939.9</ele>
      </trkpt>
      <trkpt lat="42.87418" lon="1.2746">
        <ele>913.1</ele>
      </trkpt>
      <trkpt lat="42.87405" lon="1.27411">
        <ele>917.8</ele>
      </trkpt>
      <trkpt lat="42.8735" lon="1.27356">
        <ele>916</ele>
      </trkpt>
      <trkpt lat="42.87318" lon="1.27336">
        <ele>918.7</ele>
      </trkpt>
      <trkpt lat="42.87284" lon="1.27282">
        <ele>906.9</ele>
      </trkpt>
      <trkpt lat="42.87298" lon="1.2723">
        <ele>897.5</ele>
      </trkpt>
      <trkpt lat="42.87292" lon="1.27196">
        <ele>896.2</ele>
      </trkpt>
      <trkpt lat="42.87274" lon="1.27177">
        <ele>895.6</ele>
      </trkpt>
      <trkpt lat="42.87241" lon="1.2717">
        <ele>893.8</ele>
      </trkpt>
      <trkpt lat="42.87223" lon="1.27131">
        <ele>889.4</ele>
      </trkpt>
      <trkpt lat="42.87222" lon="1.27081">
        <ele>887.1</ele>
      </trkpt>
      <trkpt lat="42.87262" lon="1.27038">
        <ele>887.6</ele>
      </trkpt>
      <trkpt lat="42.87278" lon="1.26999">
        <ele>886.9</ele>
      </trkpt>
      <trkpt lat="42.87278" lon="1.2696">
        <ele>886.5</ele>
      </trkpt>
      <trkpt lat="42.8726" lon="1.26913">
        <ele>882.8</ele>
      </trkpt>
      <trkpt lat="42.87255" lon="1.26882">
        <ele>881.7</ele>
      </trkpt>
      <trkpt lat="42.87265" lon="1.26858">
        <ele>880.3</ele>
      </trkpt>
      <trkpt lat="42.87294" lon="1.2684">
        <ele>881.1</ele>
      </trkpt>
      <trkpt lat="42.87305" lon="1.26822">
        <ele>877.9</ele>
      </trkpt>
      <trkpt lat="42.87293" lon="1.26808">
        <ele>877.1</ele>
      </trkpt>
      <trkpt lat="42.87253" lon="1.26834">
        <ele>876.6</ele>
      </trkpt>
      <trkpt lat="42.87211" lon="1.26907">
        <ele>873.3</ele>
      </trkpt>
      <trkpt lat="42.87176" lon="1.26915">
        <ele>869.3</ele>
      </trkpt>
      <trkpt lat="42.8706" lon="1.27027">
        <ele>867</ele>
      </trkpt>
      <trkpt lat="42.87005" lon="1.27029">
        <ele>862.5</ele>
      </trkpt>
      <trkpt lat="42.86943" lon="1.27076">
        <ele>854</ele>
      </trkpt>
      <trkpt lat="42.86902" lon="1.2706">
        <ele>846.4</ele>
      </trkpt>
      <trkpt lat="42.86881" lon="1.27073">
        <ele>845.5</ele>
      </trkpt>
      <trkpt lat="42.86834" lon="1.27066">
        <ele>843.8</ele>
      </trkpt>
      <trkpt lat="42.86791" lon="1.27089">
        <ele>846</ele>
      </trkpt>
      <trkpt lat="42.86725" lon="1.27097">
        <ele>840.4</ele>
      </trkpt>
      <trkpt lat="42.86695" lon="1.27118">
        <ele>841.5</ele>
      </trkpt>
      <trkpt lat="42.86684" lon="1.27099">
        <ele>838.1</ele>
      </trkpt>
      <trkpt lat="42.86732" lon="1.27051">
        <ele>830.1</ele>
      </trkpt>
      <trkpt lat="42.86796" lon="1.26942">
        <ele>824.8</ele>
      </trkpt>
      <trkpt lat="42.86797" lon="1.26916">
        <ele>820.3</ele>
      </trkpt>
      <trkpt lat="42.86785" lon="1.26858">
        <ele>818.5</ele>
      </trkpt>
      <trkpt lat="42.86813" lon="1.26733">
        <ele>814.4</ele>
      </trkpt>
      <trkpt lat="42.86811" lon="1.26697">
        <ele>812</ele>
      </trkpt>
      <trkpt lat="42.86832" lon="1.2664">
        <ele>810.4</ele>
      </trkpt>
      <trkpt lat="42.86818" lon="1.26606">
        <ele>810.1</ele>
      </trkpt>
      <trkpt lat="42.86732" lon="1.26591">
        <ele>800.1</ele>
      </trkpt>
      <trkpt lat="42.86701" lon="1.26533">
        <ele>800.7</ele>
      </trkpt>
      <trkpt lat="42.86654" lon="1.2649">
        <ele>793.8</ele>
      </trkpt>
      <trkpt lat="42.86645" lon="1.26451">
        <ele>791.7</ele>
      </trkpt>
      <trkpt lat="42.86648" lon="1.26411">
        <ele>790.4</ele>
      </trkpt>
      <trkpt lat="42.8669" lon="1.26297">
        <ele>792.9</ele>
      </trkpt>
      <trkpt lat="42.86682" lon="1.26261">
        <ele>790.6</ele>
      </trkpt>
      <trkpt lat="42.8669" lon="1.26217">
        <ele>793.9</ele>
      </trkpt>
      <trkpt lat="42.86669" lon="1.26138">
        <ele>794.3</ele>
      </trkpt>
      <trkpt lat="42.86657" lon="1.26121">
        <ele>777.3</ele>
      </trkpt>
      <trkpt lat="42.86752" lon="1.25731">
        <ele>802.4</ele>
      </trkpt>
      <trkpt lat="42.86747" lon="1.25679">
        <ele>784.6</ele>
      </trkpt>
      <trkpt lat="42.86759" lon="1.25624">
        <ele>802.5</ele>
      </trkpt>
      <trkpt lat="42.86756" lon="1.25557">
        <ele>800.8</ele>
      </trkpt>
      <trkpt lat="42.86724" lon="1.25498">
        <ele>789.6</ele>
      </trkpt>
      <trkpt lat="42.86708" lon="1.25446">
        <ele>788.9</ele>
      </trkpt>
      <trkpt lat="42.86683" lon="1.25404">
        <ele>791.8</ele>
      </trkpt>
      <trkpt lat="42.86678" lon="1.25359">
        <ele>795</ele>
      </trkpt>
      <trkpt lat="42.86706" lon="1.25315">
        <ele>797.5</ele>
      </trkpt>
      <trkpt lat="42.86764" lon="1.25255">
        <ele>793.8</ele>
      </trkpt>
      <trkpt lat="42.86799" lon="1.25238">
        <ele>786.6</ele>
      </trkpt>
      <trkpt lat="42.86858" lon="1.25233">
        <ele>783.6</ele>
      </trkpt>
      <trkpt lat="42.86875" lon="1.25242">
        <ele>783.9</ele>
      </trkpt>
      <trkpt lat="42.86893" lon="1.25217">
        <ele>782.6</ele>
      </trkpt>
      <trkpt lat="42.86908" lon="1.25167">
        <ele>775.1</ele>
      </trkpt>
      <trkpt lat="42.86912" lon="1.25092">
        <ele>770</ele>
      </trkpt>
      <trkpt lat="42.86882" lon="1.25004">
        <ele>764.4</ele>
      </trkpt>
      <trkpt lat="42.86815" lon="1.24898">
        <ele>755</ele>
      </trkpt>
      <trkpt lat="42.86813" lon="1.24854">
        <ele>753.4</ele>
      </trkpt>
      <trkpt lat="42.86836" lon="1.2483">
        <ele>755.6</ele>
      </trkpt>
      <trkpt lat="42.86982" lon="1.2477">
        <ele>748</ele>
      </trkpt>
      <trkpt lat="42.87017" lon="1.24767">
        <ele>745.9</ele>
      </trkpt>
      <trkpt lat="42.87038" lon="1.24786">
        <ele>747.7</ele>
      </trkpt>
      <trkpt lat="42.87067" lon="1.2485">
        <ele>754.5</ele>
      </trkpt>
      <trkpt lat="42.87077" lon="1.24884">
        <ele>756.6</ele>
      </trkpt>
      <trkpt lat="42.87103" lon="1.24893">
        <ele>758.1</ele>
      </trkpt>
      <trkpt lat="42.87104" lon="1.24869">
        <ele>756.9</ele>
      </trkpt>
      <trkpt lat="42.87093" lon="1.24819">
        <ele>750</ele>
      </trkpt>
      <trkpt lat="42.87093" lon="1.24765">
        <ele>746.2</ele>
      </trkpt>
      <trkpt lat="42.87105" lon="1.24737">
        <ele>745.6</ele>
      </trkpt>
      <trkpt lat="42.87139" lon="1.24737">
        <ele>748.5</ele>
      </trkpt>
      <trkpt lat="42.87137" lon="1.24716">
        <ele>748.5</ele>
      </trkpt>
      <trkpt lat="42.87068" lon="1.24661">
        <ele>737.6</ele>
      </trkpt>
      <trkpt lat="42.87043" lon="1.24598">
        <ele>734.2</ele>
      </trkpt>
      <trkpt lat="42.86973" lon="1.24502">
        <ele>722.3</ele>
      </trkpt>
      <trkpt lat="42.86963" lon="1.24437">
        <ele>716</ele>
      </trkpt>
      <trkpt lat="42.86942" lon="1.24365">
        <ele>710.5</ele>
      </trkpt>
      <trkpt lat="42.86917" lon="1.24315">
        <ele>701.7</ele>
      </trkpt>
      <trkpt lat="42.86909" lon="1.24279">
        <ele>697.6</ele>
      </trkpt>
      <trkpt lat="42.86927" lon="1.24246">
        <ele>695.5</ele>
      </trkpt>
      <trkpt lat="42.86962" lon="1.2422">
        <ele>690.3</ele>
      </trkpt>
      <trkpt lat="42.86995" lon="1.24219">
        <ele>690.7</ele>
      </trkpt>
      <trkpt lat="42.87037" lon="1.24274">
        <ele>696.5</ele>
      </trkpt>
      <trkpt lat="42.8707" lon="1.24284">
        <ele>694</ele>
      </trkpt>
      <trkpt lat="42.87106" lon="1.24319">
        <ele>692.2</ele>
      </trkpt>
      <trkpt lat="42.87144" lon="1.24287">
        <ele>688.6</ele>
      </trkpt>
      <trkpt lat="42.87197" lon="1.2429">
        <ele>691.7</ele>
      </trkpt>
      <trkpt lat="42.87224" lon="1.24267">
        <ele>692.3</ele>
      </trkpt>
      <trkpt lat="42.87212" lon="1.24248">
        <ele>689.5</ele>
      </trkpt>
      <trkpt lat="42.87179" lon="1.24225">
        <ele>685.8</ele>
      </trkpt>
      <trkpt lat="42.87147" lon="1.24121">
        <ele>673.2</ele>
      </trkpt>
      <trkpt lat="42.87097" lon="1.24033">
        <ele>672</ele>
      </trkpt>
      <trkpt lat="42.87038" lon="1.23978">
        <ele>660.5</ele>
      </trkpt>
      <trkpt lat="42.86985" lon="1.2395">
        <ele>647.7</ele>
      </trkpt>
      <trkpt lat="42.86958" lon="1.23879">
        <ele>649.3</ele>
      </trkpt>
      <trkpt lat="42.86847" lon="1.23744">
        <ele>631.1</ele>
      </trkpt>
      <trkpt lat="42.8676" lon="1.23671">
        <ele>625.7</ele>
      </trkpt>
      <trkpt lat="42.86713" lon="1.23653">
        <ele>621.5</ele>
      </trkpt>
      <trkpt lat="42.86685" lon="1.23654">
        <ele>618.5</ele>
      </trkpt>
      <trkpt lat="42.86647" lon="1.23623">
        <ele>606</ele>
      </trkpt>
      <trkpt lat="42.86634" lon="1.23558">
        <ele>597.1</ele>
      </trkpt>
      <trkpt lat="42.86647" lon="1.23497">
        <ele>596.2</ele>
      </trkpt>
      <trkpt lat="42.86631" lon="1.23391">
        <ele>580.9</ele>
      </trkpt>
      <trkpt lat="42.8665" lon="1.23352">
        <ele>581</ele>
      </trkpt>
      <trkpt lat="42.86671" lon="1.23295">
        <ele>578</ele>
      </trkpt>
      <trkpt lat="42.86714" lon="1.23279">
        <ele>577.6</ele>
      </trkpt>
      <trkpt lat="42.86749" lon="1.23248">
        <ele>570.7</ele>
      </trkpt>
      <trkpt lat="42.868" lon="1.23275">
        <ele>578.5</ele>
      </trkpt>
      <trkpt lat="42.86845" lon="1.23285">
        <ele>579.2</ele>
      </trkpt>
      <trkpt lat="42.86887" lon="1.23311">
        <ele>581.1</ele>
      </trkpt>
      <trkpt lat="42.86895" lon="1.2329">
        <ele>581.8</ele>
      </trkpt>
      <trkpt lat="42.86826" lon="1.23201">
        <ele>569.7</ele>
      </trkpt>
      <trkpt lat="42.86681" lon="1.22971">
        <ele>532.4</ele>
      </trkpt>
      <trkpt lat="42.87139" lon="1.22189">
        <ele>515.4</ele>
      </trkpt>
      <trkpt lat="42.87201" lon="1.22127">
        <ele>515.8</ele>
      </trkpt>
      <trkpt lat="42.87468" lon="1.21779">
        <ele>503.5</ele>
      </trkpt>
      <trkpt lat="42.87776" lon="1.21669">
        <ele>502.3</ele>
      </trkpt>
      <trkpt lat="42.87843" lon="1.21662">
        <ele>499.4</ele>
      </trkpt>
      <trkpt lat="42.8793" lon="1.21589">
        <ele>497.2</ele>
      </trkpt>
      <trkpt lat="42.87955" lon="1.2157">
        <ele>495.4</ele>
      </trkpt>
      <trkpt lat="42.87994" lon="1.21557">
        <ele>495.9</ele>
      </trkpt>
      <trkpt lat="42.88009" lon="1.21573">
        <ele>497.3</ele>
      </trkpt>
      <trkpt lat="42.88028" lon="1.21563">
        <ele>496.8</ele>
      </trkpt>
      <trkpt lat="42.88078" lon="1.21583">
        <ele>499.3</ele>
      </trkpt>
      <trkpt lat="42.88111" lon="1.21589">
        <ele>506.2</ele>
      </trkpt>
      <trkpt lat="42.88153" lon="1.21591">
        <ele>504.3</ele>
      </trkpt>
      <trkpt lat="42.8848" lon="1.21512">
        <ele>494.4</ele>
      </trkpt>
      <trkpt lat="42.88784" lon="1.21492">
        <ele>488.3</ele>
      </trkpt>
      <trkpt lat="42.8906" lon="1.21479">
        <ele>482.7</ele>
      </trkpt>
      <trkpt lat="42.89151" lon="1.21479">
        <ele>485.8</ele>
      </trkpt>
      <trkpt lat="42.89181" lon="1.2149">
        <ele>487</ele>
      </trkpt>
      <trkpt lat="42.89302" lon="1.21545">
        <ele>490.2</ele>
      </trkpt>
      <trkpt lat="42.89339" lon="1.21549">
        <ele>487.4</ele>
      </trkpt>
      <trkpt lat="42.89377" lon="1.21548">
        <ele>487.8</ele>
      </trkpt>
      <trkpt lat="42.89649" lon="1.21498">
        <ele>482.7</ele>
      </trkpt>
      <trkpt lat="42.89955" lon="1.21438">
        <ele>480</ele>
      </trkpt>
      <trkpt lat="42.90028" lon="1.2141">
        <ele>473.8</ele>
      </trkpt>
      <trkpt lat="42.90089" lon="1.21366">
        <ele>473.3</ele>
      </trkpt>
      <trkpt lat="42.90192" lon="1.2127">
        <ele>476.3</ele>
      </trkpt>
      <trkpt lat="42.90265" lon="1.21182">
        <ele>481.2</ele>
      </trkpt>
      <trkpt lat="42.90294" lon="1.21155">
        <ele>479.2</ele>
      </trkpt>
      <trkpt lat="42.90333" lon="1.21132">
        <ele>481</ele>
      </trkpt>
      <trkpt lat="42.90374" lon="1.21116">
        <ele>489</ele>
      </trkpt>
      <trkpt lat="42.90427" lon="1.21115">
        <ele>491.7</ele>
      </trkpt>
      <trkpt lat="42.90487" lon="1.21125">
        <ele>491.9</ele>
      </trkpt>
      <trkpt lat="42.90539" lon="1.21162">
        <ele>487.1</ele>
      </trkpt>
      <trkpt lat="42.90574" lon="1.21203">
        <ele>494.2</ele>
      </trkpt>
      <trkpt lat="42.90646" lon="1.21319">
        <ele>487.3</ele>
      </trkpt>
      <trkpt lat="42.90684" lon="1.21362">
        <ele>483</ele>
      </trkpt>
      <trkpt lat="42.90724" lon="1.21389">
        <ele>484.7</ele>
      </trkpt>
      <trkpt lat="42.90754" lon="1.21389">
        <ele>481.2</ele>
      </trkpt>
      <trkpt lat="42.90777" lon="1.21377">
        <ele>479</ele>
      </trkpt>
      <trkpt lat="42.90805" lon="1.21369">
        <ele>477</ele>
      </trkpt>
      <trkpt lat="42.90844" lon="1.21379">
        <ele>476</ele>
      </trkpt>
      <trkpt lat="42.90868" lon="1.21402">
        <ele>476</ele>
      </trkpt>
      <trkpt lat="42.90888" lon="1.2144">
        <ele>478</ele>
      </trkpt>
      <trkpt lat="42.90887" lon="1.21477">
        <ele>479</ele>
      </trkpt>
      <trkpt lat="42.90891" lon="1.21496">
        <ele>478</ele>
      </trkpt>
      <trkpt lat="42.90903" lon="1.215">
        <ele>476.1</ele>
      </trkpt>
      <trkpt lat="42.90923" lon="1.21493">
        <ele>472</ele>
        <time>2020-06-19T23:09:48Z</time>
      </trkpt>
      <trkpt lat="42.90954" lon="1.21487">
        <ele>479</ele>
        <time>2020-06-19T23:09:54Z</time>
      </trkpt>
      <trkpt lat="42.91011" lon="1.21457">
        <ele>488</ele>
        <time>2020-06-19T23:10:05Z</time>
      </trkpt>
      <trkpt lat="42.91025" lon="1.2144">
        <ele>490</ele>
        <time>2020-06-19T23:10:08Z</time>
      </trkpt>
      <trkpt lat="42.91062" lon="1.21384">
        <ele>493</ele>
        <time>2020-06-19T23:10:18Z</time>
      </trkpt>
      <trkpt lat="42.91077" lon="1.21351">
        <ele>489</ele>
        <time>2020-06-19T23:10:23Z</time>
      </trkpt>
      <trkpt lat="42.91086" lon="1.21311">
        <ele>484</ele>
        <time>2020-06-19T23:10:28Z</time>
      </trkpt>
      <trkpt lat="42.91094" lon="1.21247">
        <ele>479</ele>
        <time>2020-06-19T23:10:37Z</time>
      </trkpt>
      <trkpt lat="42.91102" lon="1.21144">
        <ele>476</ele>
        <time>2020-06-19T23:10:50Z</time>
      </trkpt>
      <trkpt lat="42.91109" lon="1.21092">
        <ele>475</ele>
        <time>2020-06-19T23:10:57Z</time>
      </trkpt>
      <trkpt lat="42.91121" lon="1.21042">
        <ele>474</ele>
        <time>2020-06-19T23:11:04Z</time>
      </trkpt>
      <trkpt lat="42.91143" lon="1.20975">
        <ele>473</ele>
        <time>2020-06-19T23:11:13Z</time>
      </trkpt>
      <trkpt lat="42.91223" lon="1.20804">
        <ele>482</ele>
        <time>2020-06-19T23:11:40Z</time>
      </trkpt>
      <trkpt lat="42.91269" lon="1.20688">
        <ele>478</ele>
        <time>2020-06-19T23:11:57Z</time>
      </trkpt>
      <trkpt lat="42.91314" lon="1.20606">
        <ele>478</ele>
        <time>2020-06-19T23:12:10Z</time>
      </trkpt>
      <trkpt lat="42.9137" lon="1.20543">
        <ele>480</ele>
        <time>2020-06-19T23:12:23Z</time>
      </trkpt>
      <trkpt lat="42.91427" lon="1.20501">
        <ele>471</ele>
        <time>2020-06-19T23:12:35Z</time>
      </trkpt>
      <trkpt lat="42.91489" lon="1.20467">
        <ele>481</ele>
        <time>2020-06-19T23:12:47Z</time>
      </trkpt>
      <trkpt lat="42.91516" lon="1.20443">
        <ele>480</ele>
        <time>2020-06-19T23:12:53Z</time>
      </trkpt>
      <trkpt lat="42.91539" lon="1.20414">
        <ele>478</ele>
        <time>2020-06-19T23:12:58Z</time>
      </trkpt>
      <trkpt lat="42.91575" lon="1.20345">
        <ele>472</ele>
        <time>2020-06-19T23:13:09Z</time>
      </trkpt>
      <trkpt lat="42.91586" lon="1.20312">
        <ele>469</ele>
        <time>2020-06-19T23:13:14Z</time>
      </trkpt>
      <trkpt lat="42.91594" lon="1.20261">
        <ele>474</ele>
        <time>2020-06-19T23:13:21Z</time>
      </trkpt>
      <trkpt lat="42.91591" lon="1.20195">
        <ele>475</ele>
        <time>2020-06-19T23:13:29Z</time>
      </trkpt>
      <trkpt lat="42.91588" lon="1.20176">
        <ele>475</ele>
        <time>2020-06-19T23:13:32Z</time>
      </trkpt>
      <trkpt lat="42.91579" lon="1.20138">
        <ele>478</ele>
        <time>2020-06-19T23:13:37Z</time>
      </trkpt>
      <trkpt lat="42.9155" lon="1.2008">
        <ele>483</ele>
        <time>2020-06-19T23:13:46Z</time>
      </trkpt>
      <trkpt lat="42.91477" lon="1.19981">
        <ele>481</ele>
        <time>2020-06-19T23:14:04Z</time>
      </trkpt>
      <trkpt lat="42.91455" lon="1.19946">
        <ele>480</ele>
        <time>2020-06-19T23:14:10Z</time>
      </trkpt>
      <trkpt lat="42.91439" lon="1.19909">
        <ele>474</ele>
        <time>2020-06-19T23:14:16Z</time>
      </trkpt>
      <trkpt lat="42.91415" lon="1.19837">
        <ele>462</ele>
        <time>2020-06-19T23:14:26Z</time>
      </trkpt>
      <trkpt lat="42.91377" lon="1.19514">
        <ele>467</ele>
        <time>2020-06-19T23:15:09Z</time>
      </trkpt>
      <trkpt lat="42.91381" lon="1.19457">
        <ele>466</ele>
        <time>2020-06-19T23:15:16Z</time>
      </trkpt>
      <trkpt lat="42.91391" lon="1.194">
        <ele>465</ele>
        <time>2020-06-19T23:15:24Z</time>
      </trkpt>
      <trkpt lat="42.91404" lon="1.19368">
        <ele>463</ele>
        <time>2020-06-19T23:15:29Z</time>
      </trkpt>
      <trkpt lat="42.91423" lon="1.1934">
        <ele>462</ele>
        <time>2020-06-19T23:15:34Z</time>
      </trkpt>
      <trkpt lat="42.91472" lon="1.19283">
        <ele>469</ele>
        <time>2020-06-19T23:15:45Z</time>
      </trkpt>
      <trkpt lat="42.91495" lon="1.19272">
        <ele>471</ele>
        <time>2020-06-19T23:15:50Z</time>
      </trkpt>
      <trkpt lat="42.91544" lon="1.19262">
        <ele>469</ele>
        <time>2020-06-19T23:15:58Z</time>
      </trkpt>
      <trkpt lat="42.9157" lon="1.19261">
        <ele>469</ele>
        <time>2020-06-19T23:16:03Z</time>
      </trkpt>
      <trkpt lat="42.9162" lon="1.19267">
        <ele>469</ele>
        <time>2020-06-19T23:16:12Z</time>
      </trkpt>
      <trkpt lat="42.91634" lon="1.19269">
        <ele>468</ele>
        <time>2020-06-19T23:16:15Z</time>
      </trkpt>
      <trkpt lat="42.91708" lon="1.19286">
        <ele>473</ele>
        <time>2020-06-19T23:16:28Z</time>
      </trkpt>
      <trkpt lat="42.91731" lon="1.19286">
        <ele>474</ele>
        <time>2020-06-19T23:16:32Z</time>
      </trkpt>
      <trkpt lat="42.91755" lon="1.19278">
        <ele>472</ele>
        <time>2020-06-19T23:16:36Z</time>
      </trkpt>
      <trkpt lat="42.91781" lon="1.19262">
        <ele>470</ele>
        <time>2020-06-19T23:16:41Z</time>
      </trkpt>
      <trkpt lat="42.91806" lon="1.19241">
        <ele>468</ele>
        <time>2020-06-19T23:16:47Z</time>
      </trkpt>
      <trkpt lat="42.91837" lon="1.19197">
        <ele>465</ele>
        <time>2020-06-19T23:16:55Z</time>
      </trkpt>
      <trkpt lat="42.91871" lon="1.19118">
        <ele>467</ele>
        <time>2020-06-19T23:17:07Z</time>
      </trkpt>
      <trkpt lat="42.91897" lon="1.19033">
        <ele>464</ele>
        <time>2020-06-19T23:17:19Z</time>
      </trkpt>
      <trkpt lat="42.91911" lon="1.19006">
        <ele>460</ele>
        <time>2020-06-19T23:17:23Z</time>
      </trkpt>
      <trkpt lat="42.91927" lon="1.18984">
        <ele>462</ele>
        <time>2020-06-19T23:17:27Z</time>
      </trkpt>
      <trkpt lat="42.91966" lon="1.18952">
        <ele>465</ele>
        <time>2020-06-19T23:17:35Z</time>
      </trkpt>
      <trkpt lat="42.91988" lon="1.1894">
        <ele>464</ele>
        <time>2020-06-19T23:17:39Z</time>
      </trkpt>
      <trkpt lat="42.92012" lon="1.18929">
        <ele>462</ele>
        <time>2020-06-19T23:17:44Z</time>
      </trkpt>
      <trkpt lat="42.92061" lon="1.18918">
        <ele>461</ele>
        <time>2020-06-19T23:17:53Z</time>
      </trkpt>
      <trkpt lat="42.92104" lon="1.18904">
        <ele>467</ele>
        <time>2020-06-19T23:18:00Z</time>
      </trkpt>
      <trkpt lat="42.92143" lon="1.18882">
        <ele>472</ele>
        <time>2020-06-19T23:18:08Z</time>
      </trkpt>
      <trkpt lat="42.92201" lon="1.18831">
        <ele>462</ele>
        <time>2020-06-19T23:18:20Z</time>
      </trkpt>
      <trkpt lat="42.92256" lon="1.18776">
        <ele>457</ele>
        <time>2020-06-19T23:18:32Z</time>
      </trkpt>
      <trkpt lat="42.92302" lon="1.18733">
        <ele>464</ele>
        <time>2020-06-19T23:18:42Z</time>
      </trkpt>
      <trkpt lat="42.92343" lon="1.18685">
        <ele>463</ele>
        <time>2020-06-19T23:18:52Z</time>
      </trkpt>
      <trkpt lat="42.92401" lon="1.18574">
        <ele>465</ele>
        <time>2020-06-19T23:19:10Z</time>
      </trkpt>
      <trkpt lat="42.92436" lon="1.18526">
        <ele>470</ele>
        <time>2020-06-19T23:19:18Z</time>
      </trkpt>
      <trkpt lat="42.92477" lon="1.18487">
        <ele>477</ele>
        <time>2020-06-19T23:19:27Z</time>
      </trkpt>
      <trkpt lat="42.92519" lon="1.18461">
        <ele>477</ele>
        <time>2020-06-19T23:19:36Z</time>
      </trkpt>
      <trkpt lat="42.92565" lon="1.18447">
        <ele>471</ele>
        <time>2020-06-19T23:19:44Z</time>
      </trkpt>
      <trkpt lat="42.92587" lon="1.18443">
        <ele>469</ele>
        <time>2020-06-19T23:19:48Z</time>
      </trkpt>
      <trkpt lat="42.9266" lon="1.1845">
        <ele>471</ele>
        <time>2020-06-19T23:20:01Z</time>
      </trkpt>
      <trkpt lat="42.92748" lon="1.18452">
        <ele>461</ele>
        <time>2020-06-19T23:20:17Z</time>
      </trkpt>
      <trkpt lat="42.92758" lon="1.18451">
        <ele>460</ele>
        <time>2020-06-19T23:20:18Z</time>
      </trkpt>
      <trkpt lat="42.92853" lon="1.1844">
        <ele>452</ele>
        <time>2020-06-19T23:20:35Z</time>
      </trkpt>
      <trkpt lat="42.92881" lon="1.18434">
        <ele>450</ele>
        <time>2020-06-19T23:20:40Z</time>
      </trkpt>
      <trkpt lat="42.92939" lon="1.18402">
        <ele>450</ele>
        <time>2020-06-19T23:20:51Z</time>
      </trkpt>
      <trkpt lat="42.92972" lon="1.18373">
        <ele>453</ele>
        <time>2020-06-19T23:20:58Z</time>
      </trkpt>
      <trkpt lat="42.93001" lon="1.18335">
        <ele>449</ele>
        <time>2020-06-19T23:21:06Z</time>
      </trkpt>
      <trkpt lat="42.93031" lon="1.18273">
        <ele>455</ele>
        <time>2020-06-19T23:21:15Z</time>
      </trkpt>
      <trkpt lat="42.93076" lon="1.18138">
        <ele>446</ele>
        <time>2020-06-19T23:21:35Z</time>
      </trkpt>
      <trkpt lat="42.93089" lon="1.18108">
        <ele>444</ele>
        <time>2020-06-19T23:21:39Z</time>
      </trkpt>
      <trkpt lat="42.93095" lon="1.18099">
        <ele>445</ele>
        <time>2020-06-19T23:21:41Z</time>
      </trkpt>
      <trkpt lat="42.93105" lon="1.18081">
        <ele>445</ele>
        <time>2020-06-19T23:21:44Z</time>
      </trkpt>
      <trkpt lat="42.9313" lon="1.18043">
        <ele>447</ele>
        <time>2020-06-19T23:21:50Z</time>
      </trkpt>
      <trkpt lat="42.93158" lon="1.18007">
        <ele>445</ele>
        <time>2020-06-19T23:21:57Z</time>
      </trkpt>
      <trkpt lat="42.93175" lon="1.17987">
        <ele>445</ele>
        <time>2020-06-19T23:22:01Z</time>
      </trkpt>
      <trkpt lat="42.93168" lon="1.18015">
        <ele>448</ele>
        <time>2020-06-19T23:22:05Z</time>
      </trkpt>
      <trkpt lat="42.93169" lon="1.18023">
        <ele>450</ele>
        <time>2020-06-19T23:22:06Z</time>
      </trkpt>
      <trkpt lat="42.93171" lon="1.18025">
        <ele>450</ele>
        <time>2020-06-19T23:22:07Z</time>
      </trkpt>
      <trkpt lat="42.93175" lon="1.18024">
        <ele>451</ele>
        <time>2020-06-19T23:22:07Z</time>
      </trkpt>
      <trkpt lat="42.93188" lon="1.18013">
        <ele>452</ele>
        <time>2020-06-19T23:22:10Z</time>
      </trkpt>
      <trkpt lat="42.93196" lon="1.18004">
        <ele>451</ele>
        <time>2020-06-19T23:22:12Z</time>
      </trkpt>
      <trkpt lat="42.932" lon="1.18005">
        <ele>452</ele>
        <time>2020-06-19T23:22:13Z</time>
      </trkpt>
      <trkpt lat="42.93203" lon="1.18012">
        <ele>455</ele>
        <time>2020-06-19T23:22:14Z</time>
      </trkpt>
      <trkpt lat="42.93193" lon="1.18036">
        <ele>459</ele>
        <time>2020-06-19T23:22:17Z</time>
      </trkpt>
      <trkpt lat="42.93192" lon="1.18041">
        <ele>460</ele>
        <time>2020-06-19T23:22:18Z</time>
      </trkpt>
      <trkpt lat="42.93194" lon="1.18045">
        <ele>461</ele>
        <time>2020-06-19T23:22:19Z</time>
      </trkpt>
      <trkpt lat="42.93208" lon="1.18041">
        <ele>464</ele>
        <time>2020-06-19T23:22:21Z</time>
      </trkpt>
      <trkpt lat="42.9322" lon="1.18041">
        <ele>468</ele>
        <time>2020-06-19T23:22:23Z</time>
      </trkpt>
      <trkpt lat="42.93224" lon="1.18037">
        <ele>467</ele>
        <time>2020-06-19T23:22:24Z</time>
      </trkpt>
      <trkpt lat="42.93228" lon="1.18009">
        <ele>459</ele>
        <time>2020-06-19T23:22:28Z</time>
      </trkpt>
      <trkpt lat="42.93236" lon="1.17993">
        <ele>457</ele>
        <time>2020-06-19T23:22:30Z</time>
      </trkpt>
      <trkpt lat="42.93264" lon="1.17978">
        <ele>462</ele>
        <time>2020-06-19T23:22:36Z</time>
      </trkpt>
      <trkpt lat="42.93311" lon="1.17941">
        <ele>470</ele>
        <time>2020-06-19T23:22:45Z</time>
      </trkpt>
      <trkpt lat="42.93359" lon="1.17909">
        <ele>472</ele>
        <time>2020-06-19T23:22:55Z</time>
      </trkpt>
      <trkpt lat="42.9341" lon="1.17896">
        <ele>480</ele>
        <time>2020-06-19T23:23:04Z</time>
      </trkpt>
      <trkpt lat="42.93433" lon="1.17893">
        <ele>482</ele>
        <time>2020-06-19T23:23:08Z</time>
      </trkpt>
      <trkpt lat="42.93466" lon="1.179">
        <ele>487</ele>
        <time>2020-06-19T23:23:14Z</time>
      </trkpt>
      <trkpt lat="42.93488" lon="1.17898">
        <ele>488</ele>
        <time>2020-06-19T23:23:18Z</time>
      </trkpt>
      <trkpt lat="42.93506" lon="1.179">
        <ele>489</ele>
        <time>2020-06-19T23:23:21Z</time>
      </trkpt>
      <trkpt lat="42.93525" lon="1.17907">
        <ele>491</ele>
        <time>2020-06-19T23:23:25Z</time>
      </trkpt>
      <trkpt lat="42.93542" lon="1.1792">
        <ele>496</ele>
        <time>2020-06-19T23:23:28Z</time>
      </trkpt>
      <trkpt lat="42.93558" lon="1.17928">
        <ele>499</ele>
        <time>2020-06-19T23:23:31Z</time>
      </trkpt>
      <trkpt lat="42.9357" lon="1.17929">
        <ele>500</ele>
        <time>2020-06-19T23:23:33Z</time>
      </trkpt>
      <trkpt lat="42.93623" lon="1.1792">
        <ele>500</ele>
        <time>2020-06-19T23:23:43Z</time>
      </trkpt>
      <trkpt lat="42.93642" lon="1.17913">
        <ele>498</ele>
        <time>2020-06-19T23:23:46Z</time>
      </trkpt>
      <trkpt lat="42.93661" lon="1.179">
        <ele>494</ele>
        <time>2020-06-19T23:23:50Z</time>
      </trkpt>
      <trkpt lat="42.9367" lon="1.179">
        <ele>495</ele>
        <time>2020-06-19T23:23:52Z</time>
      </trkpt>
      <trkpt lat="42.93711" lon="1.17882">
        <ele>492</ele>
        <time>2020-06-19T23:23:59Z</time>
      </trkpt>
      <trkpt lat="42.93729" lon="1.17878">
        <ele>493</ele>
        <time>2020-06-19T23:24:03Z</time>
      </trkpt>
      <trkpt lat="42.9375" lon="1.1787">
        <ele>491</ele>
        <time>2020-06-19T23:24:07Z</time>
      </trkpt>
      <trkpt lat="42.93766" lon="1.1786">
        <ele>490</ele>
        <time>2020-06-19T23:24:10Z</time>
      </trkpt>
      <trkpt lat="42.93784" lon="1.17851">
        <ele>489</ele>
        <time>2020-06-19T23:24:13Z</time>
      </trkpt>
      <trkpt lat="42.93794" lon="1.17845">
        <ele>488</ele>
        <time>2020-06-19T23:24:15Z</time>
      </trkpt>
      <trkpt lat="42.93803" lon="1.17833">
        <ele>485</ele>
        <time>2020-06-19T23:24:17Z</time>
      </trkpt>
      <trkpt lat="42.93831" lon="1.17803">
        <ele>479</ele>
        <time>2020-06-19T23:24:24Z</time>
      </trkpt>
      <trkpt lat="42.93848" lon="1.17777">
        <ele>469</ele>
        <time>2020-06-19T23:24:28Z</time>
      </trkpt>
      <trkpt lat="42.9386" lon="1.17769">
        <ele>465</ele>
        <time>2020-06-19T23:24:31Z</time>
      </trkpt>
      <trkpt lat="42.93869" lon="1.17769">
        <ele>464</ele>
        <time>2020-06-19T23:24:32Z</time>
      </trkpt>
      <trkpt lat="42.93886" lon="1.17772">
        <ele>464</ele>
        <time>2020-06-19T23:24:35Z</time>
      </trkpt>
      <trkpt lat="42.9396" lon="1.178">
        <ele>464</ele>
        <time>2020-06-19T23:24:49Z</time>
      </trkpt>
      <trkpt lat="42.94032" lon="1.17821">
        <ele>466</ele>
        <time>2020-06-19T23:25:02Z</time>
      </trkpt>
      <trkpt lat="42.94055" lon="1.17823">
        <ele>468</ele>
        <time>2020-06-19T23:25:06Z</time>
      </trkpt>
      <trkpt lat="42.94091" lon="1.17822">
        <ele>469</ele>
        <time>2020-06-19T23:25:12Z</time>
      </trkpt>
      <trkpt lat="42.94121" lon="1.1781">
        <ele>467</ele>
        <time>2020-06-19T23:25:18Z</time>
      </trkpt>
      <trkpt lat="42.94135" lon="1.17802">
        <ele>466</ele>
        <time>2020-06-19T23:25:21Z</time>
      </trkpt>
      <trkpt lat="42.9415" lon="1.17788">
        <ele>461</ele>
        <time>2020-06-19T23:25:24Z</time>
      </trkpt>
      <trkpt lat="42.94162" lon="1.17774">
        <ele>456</ele>
        <time>2020-06-19T23:25:27Z</time>
      </trkpt>
      <trkpt lat="42.94188" lon="1.17728">
        <ele>450</ele>
        <time>2020-06-19T23:25:34Z</time>
      </trkpt>
      <trkpt lat="42.94224" lon="1.17657">
        <ele>445</ele>
        <time>2020-06-19T23:25:46Z</time>
      </trkpt>
      <trkpt lat="42.94238" lon="1.17634">
        <ele>444</ele>
        <time>2020-06-19T23:25:49Z</time>
      </trkpt>
      <trkpt lat="42.94284" lon="1.17565">
        <ele>437</ele>
        <time>2020-06-19T23:26:02Z</time>
      </trkpt>
      <trkpt lat="42.94296" lon="1.17555">
        <ele>438</ele>
        <time>2020-06-19T23:26:04Z</time>
      </trkpt>
      <trkpt lat="42.94316" lon="1.17518">
        <ele>433</ele>
        <time>2020-06-19T23:26:10Z</time>
      </trkpt>
      <trkpt lat="42.94323" lon="1.17513">
        <ele>432</ele>
        <time>2020-06-19T23:26:12Z</time>
      </trkpt>
      <trkpt lat="42.94399" lon="1.17407">
        <ele>428</ele>
        <time>2020-06-19T23:26:31Z</time>
      </trkpt>
      <trkpt lat="42.9442" lon="1.17423">
        <ele>429</ele>
        <time>2020-06-19T23:26:35Z</time>
      </trkpt>
      <trkpt lat="42.94454" lon="1.17429">
        <ele>431</ele>
        <time>2020-06-19T23:26:41Z</time>
      </trkpt>
      <trkpt lat="42.94467" lon="1.17421">
        <ele>430</ele>
        <time>2020-06-19T23:26:44Z</time>
      </trkpt>
      <trkpt lat="42.9448" lon="1.17447">
        <ele>435</ele>
        <time>2020-06-19T23:26:48Z</time>
      </trkpt>
      <trkpt lat="42.94485" lon="1.17452">
        <ele>436</ele>
        <time>2020-06-19T23:26:49Z</time>
      </trkpt>
      <trkpt lat="42.94502" lon="1.17451">
        <ele>437</ele>
        <time>2020-06-19T23:26:52Z</time>
      </trkpt>
      <trkpt lat="42.94528" lon="1.17466">
        <ele>437</ele>
        <time>2020-06-19T23:26:57Z</time>
      </trkpt>
      <trkpt lat="42.94551" lon="1.17474">
        <ele>437</ele>
        <time>2020-06-19T23:27:01Z</time>
      </trkpt>
      <trkpt lat="42.94551" lon="1.17488">
        <ele>438</ele>
        <time>2020-06-19T23:27:03Z</time>
      </trkpt>
      <trkpt lat="42.94564" lon="1.1749">
        <ele>437</ele>
        <time>2020-06-19T23:27:05Z</time>
      </trkpt>
      <trkpt lat="42.94625" lon="1.17492">
        <ele>434</ele>
        <time>2020-06-19T23:27:16Z</time>
      </trkpt>
      <trkpt lat="42.94708" lon="1.17503">
        <ele>435</ele>
        <time>2020-06-19T23:27:31Z</time>
      </trkpt>
      <trkpt lat="42.94718" lon="1.17502">
        <ele>435</ele>
        <time>2020-06-19T23:27:33Z</time>
      </trkpt>
      <trkpt lat="42.94726" lon="1.17497">
        <ele>434</ele>
        <time>2020-06-19T23:27:34Z</time>
      </trkpt>
      <trkpt lat="42.94737" lon="1.175">
        <ele>435</ele>
        <time>2020-06-19T23:27:36Z</time>
      </trkpt>
      <trkpt lat="42.94762" lon="1.17498">
        <ele>435</ele>
        <time>2020-06-19T23:27:41Z</time>
      </trkpt>
      <trkpt lat="42.94832" lon="1.17478">
        <ele>432</ele>
        <time>2020-06-19T23:27:54Z</time>
      </trkpt>
      <trkpt lat="42.94854" lon="1.17482">
        <ele>431</ele>
        <time>2020-06-19T23:27:58Z</time>
      </trkpt>
      <trkpt lat="42.94915" lon="1.17504">
        <ele>427</ele>
        <time>2020-06-19T23:28:09Z</time>
      </trkpt>
      <trkpt lat="42.94936" lon="1.1749">
        <ele>424</ele>
        <time>2020-06-19T23:28:13Z</time>
      </trkpt>
      <trkpt lat="42.94951" lon="1.17496">
        <ele>423</ele>
        <time>2020-06-19T23:28:16Z</time>
      </trkpt>
      <trkpt lat="42.95007" lon="1.17503">
        <ele>419</ele>
        <time>2020-06-19T23:28:26Z</time>
      </trkpt>
      <trkpt lat="42.95029" lon="1.17511">
        <ele>420</ele>
        <time>2020-06-19T23:28:30Z</time>
      </trkpt>
      <trkpt lat="42.95048" lon="1.17529">
        <ele>420</ele>
        <time>2020-06-19T23:28:34Z</time>
      </trkpt>
      <trkpt lat="42.95066" lon="1.17551">
        <ele>421</ele>
        <time>2020-06-19T23:28:38Z</time>
      </trkpt>
      <trkpt lat="42.9515" lon="1.17669">
        <ele>423</ele>
        <time>2020-06-19T23:29:00Z</time>
      </trkpt>
      <trkpt lat="42.95179" lon="1.17694">
        <ele>429</ele>
        <time>2020-06-19T23:29:06Z</time>
      </trkpt>
      <trkpt lat="42.95223" lon="1.17695">
        <ele>428</ele>
        <time>2020-06-19T23:29:14Z</time>
      </trkpt>
      <trkpt lat="42.95347" lon="1.17694">
        <ele>430</ele>
        <time>2020-06-19T23:29:36Z</time>
      </trkpt>
      <trkpt lat="42.95392" lon="1.17704">
        <ele>434</ele>
        <time>2020-06-19T23:29:44Z</time>
      </trkpt>
      <trkpt lat="42.95432" lon="1.17718">
        <ele>435</ele>
        <time>2020-06-19T23:29:51Z</time>
      </trkpt>
      <trkpt lat="42.95474" lon="1.17715">
        <ele>428</ele>
        <time>2020-06-19T23:29:59Z</time>
      </trkpt>
      <trkpt lat="42.95505" lon="1.17711">
        <ele>423</ele>
        <time>2020-06-19T23:30:04Z</time>
      </trkpt>
      <trkpt lat="42.95608" lon="1.17697">
        <ele>415</ele>
        <time>2020-06-19T23:30:23Z</time>
      </trkpt>
      <trkpt lat="42.95616" lon="1.17694">
        <ele>415</ele>
        <time>2020-06-19T23:30:24Z</time>
      </trkpt>
      <trkpt lat="42.95652" lon="1.17684">
        <ele>415</ele>
        <time>2020-06-19T23:30:31Z</time>
      </trkpt>
      <trkpt lat="42.95676" lon="1.17672">
        <ele>415</ele>
        <time>2020-06-19T23:30:35Z</time>
      </trkpt>
      <trkpt lat="42.95727" lon="1.17642">
        <ele>416</ele>
        <time>2020-06-19T23:30:45Z</time>
      </trkpt>
      <trkpt lat="42.95751" lon="1.1763">
        <ele>417</ele>
        <time>2020-06-19T23:30:50Z</time>
      </trkpt>
      <trkpt lat="42.95814" lon="1.17605">
        <ele>417</ele>
        <time>2020-06-19T23:31:01Z</time>
      </trkpt>
      <trkpt lat="42.96012" lon="1.17535">
        <ele>417</ele>
        <time>2020-06-19T23:31:38Z</time>
      </trkpt>
      <trkpt lat="42.96106" lon="1.17519">
        <ele>416</ele>
        <time>2020-06-19T23:31:54Z</time>
      </trkpt>
      <trkpt lat="42.96134" lon="1.17509">
        <ele>416</ele>
        <time>2020-06-19T23:32:00Z</time>
      </trkpt>
      <trkpt lat="42.96162" lon="1.17494">
        <ele>415</ele>
        <time>2020-06-19T23:32:05Z</time>
      </trkpt>
      <trkpt lat="42.96207" lon="1.17462">
        <ele>422</ele>
        <time>2020-06-19T23:32:14Z</time>
      </trkpt>
      <trkpt lat="42.9623" lon="1.17443">
        <ele>424</ele>
        <time>2020-06-19T23:32:19Z</time>
      </trkpt>
      <trkpt lat="42.96258" lon="1.17416">
        <ele>422</ele>
        <time>2020-06-19T23:32:25Z</time>
      </trkpt>
      <trkpt lat="42.96285" lon="1.17382">
        <ele>420</ele>
        <time>2020-06-19T23:32:31Z</time>
      </trkpt>
      <trkpt lat="42.96415" lon="1.17198">
        <ele>409</ele>
        <time>2020-06-19T23:33:05Z</time>
      </trkpt>
      <trkpt lat="42.96464" lon="1.17142">
        <ele>410</ele>
        <time>2020-06-19T23:33:16Z</time>
      </trkpt>
      <trkpt lat="42.96502" lon="1.17109">
        <ele>410</ele>
        <time>2020-06-19T23:33:24Z</time>
      </trkpt>
      <trkpt lat="42.9662" lon="1.17026">
        <ele>409</ele>
        <time>2020-06-19T23:33:48Z</time>
      </trkpt>
      <trkpt lat="42.96793" lon="1.16899">
        <ele>408</ele>
        <time>2020-06-19T23:34:23Z</time>
      </trkpt>
      <trkpt lat="42.97119" lon="1.16523">
        <ele>406</ele>
        <time>2020-06-19T23:35:38Z</time>
      </trkpt>
      <trkpt lat="42.97145" lon="1.16497">
        <ele>405</ele>
        <time>2020-06-19T23:35:44Z</time>
      </trkpt>
      <trkpt lat="42.97185" lon="1.1646">
        <ele>405</ele>
        <time>2020-06-19T23:35:53Z</time>
      </trkpt>
      <trkpt lat="42.97292" lon="1.1637">
        <ele>405</ele>
        <time>2020-06-19T23:36:15Z</time>
      </trkpt>
      <trkpt lat="42.97329" lon="1.16336">
        <ele>403</ele>
        <time>2020-06-19T23:36:23Z</time>
      </trkpt>
      <trkpt lat="42.97403" lon="1.1626">
        <ele>401</ele>
        <time>2020-06-19T23:36:40Z</time>
      </trkpt>
      <trkpt lat="42.97456" lon="1.16199">
        <ele>401</ele>
        <time>2020-06-19T23:36:52Z</time>
      </trkpt>
      <trkpt lat="42.97539" lon="1.16099">
        <ele>405</ele>
        <time>2020-06-19T23:37:12Z</time>
      </trkpt>
      <trkpt lat="42.97556" lon="1.16071">
        <ele>407</ele>
        <time>2020-06-19T23:37:16Z</time>
      </trkpt>
      <trkpt lat="42.97564" lon="1.16051">
        <ele>407</ele>
        <time>2020-06-19T23:37:19Z</time>
      </trkpt>
      <trkpt lat="42.97594" lon="1.15952">
        <ele>409</ele>
        <time>2020-06-19T23:37:33Z</time>
      </trkpt>
      <trkpt lat="42.97606" lon="1.15901">
        <ele>409</ele>
        <time>2020-06-19T23:37:40Z</time>
      </trkpt>
      <trkpt lat="42.97634" lon="1.15747">
        <ele>407</ele>
        <time>2020-06-19T23:38:01Z</time>
      </trkpt>
      <trkpt lat="42.97651" lon="1.1564">
        <ele>404</ele>
        <time>2020-06-19T23:38:15Z</time>
      </trkpt>
      <trkpt lat="42.97661" lon="1.15591">
        <ele>402</ele>
        <time>2020-06-19T23:38:22Z</time>
      </trkpt>
      <trkpt lat="42.97677" lon="1.15545">
        <ele>402</ele>
        <time>2020-06-19T23:38:28Z</time>
      </trkpt>
      <trkpt lat="42.97682" lon="1.15534">
        <ele>401</ele>
        <time>2020-06-19T23:38:30Z</time>
      </trkpt>
      <trkpt lat="42.97703" lon="1.15497">
        <ele>401</ele>
        <time>2020-06-19T23:38:36Z</time>
      </trkpt>
      <trkpt lat="42.97725" lon="1.15465">
        <ele>401</ele>
        <time>2020-06-19T23:38:42Z</time>
      </trkpt>
      <trkpt lat="42.97776" lon="1.15408">
        <ele>399</ele>
        <time>2020-06-19T23:38:54Z</time>
      </trkpt>
      <trkpt lat="42.97963" lon="1.15221">
        <ele>398</ele>
        <time>2020-06-19T23:39:35Z</time>
      </trkpt>
      <trkpt lat="42.98043" lon="1.15134">
        <ele>397</ele>
        <time>2020-06-19T23:39:53Z</time>
      </trkpt>
      <trkpt lat="42.98078" lon="1.15098">
        <ele>396</ele>
        <time>2020-06-19T23:40:01Z</time>
      </trkpt>
      <trkpt lat="42.98108" lon="1.15072">
        <ele>396</ele>
        <time>2020-06-19T23:40:07Z</time>
      </trkpt>
      <trkpt lat="42.98112" lon="1.15076">
        <ele>396</ele>
        <time>2020-06-19T23:40:08Z</time>
      </trkpt>
      <trkpt lat="42.98121" lon="1.15078">
        <ele>396</ele>
        <time>2020-06-19T23:40:10Z</time>
      </trkpt>
      <trkpt lat="42.98129" lon="1.15072">
        <ele>396</ele>
        <time>2020-06-19T23:40:11Z</time>
      </trkpt>
      <trkpt lat="42.98131" lon="1.15068">
        <ele>396</ele>
        <time>2020-06-19T23:40:12Z</time>
      </trkpt>
      <trkpt lat="42.98132" lon="1.15058">
        <ele>396</ele>
        <time>2020-06-19T23:40:13Z</time>
      </trkpt>
      <trkpt lat="42.9813" lon="1.15052">
        <ele>396</ele>
        <time>2020-06-19T23:40:14Z</time>
      </trkpt>
      <trkpt lat="42.98127" lon="1.15046">
        <ele>396</ele>
        <time>2020-06-19T23:40:15Z</time>
      </trkpt>
      <trkpt lat="42.98217" lon="1.14933">
        <ele>396</ele>
        <time>2020-06-19T23:40:37Z</time>
      </trkpt>
      <trkpt lat="42.98297" lon="1.1484">
        <ele>396</ele>
        <time>2020-06-19T23:40:55Z</time>
      </trkpt>
      <trkpt lat="42.9832" lon="1.14835">
        <ele>397</ele>
        <time>2020-06-19T23:41:00Z</time>
      </trkpt>
      <trkpt lat="42.98479" lon="1.1475">
        <ele>394</ele>
        <time>2020-06-19T23:41:30Z</time>
      </trkpt>
      <trkpt lat="42.9852" lon="1.14734">
        <ele>394</ele>
        <time>2020-06-19T23:41:38Z</time>
      </trkpt>
      <trkpt lat="42.98561" lon="1.14693">
        <ele>393</ele>
        <time>2020-06-19T23:41:47Z</time>
      </trkpt>
      <trkpt lat="42.98567" lon="1.14686">
        <ele>393</ele>
        <time>2020-06-19T23:41:48Z</time>
      </trkpt>
      <trkpt lat="42.98569" lon="1.14677">
        <ele>393</ele>
        <time>2020-06-19T23:41:49Z</time>
      </trkpt>
      <trkpt lat="42.98563" lon="1.14676">
        <ele>393</ele>
        <time>2020-06-19T23:41:50Z</time>
      </trkpt>
      <trkpt lat="42.98569" lon="1.14677">
        <ele>393</ele>
        <time>2020-06-19T23:41:51Z</time>
      </trkpt>
      <trkpt lat="42.98575" lon="1.14658">
        <ele>393</ele>
        <time>2020-06-19T23:41:54Z</time>
      </trkpt>
      <trkpt lat="42.98583" lon="1.14601">
        <ele>393</ele>
        <time>2020-06-19T23:42:02Z</time>
      </trkpt>
      <trkpt lat="42.98609" lon="1.14485">
        <ele>396</ele>
        <time>2020-06-19T23:42:17Z</time>
      </trkpt>
      <trkpt lat="42.98625" lon="1.14436">
        <ele>396</ele>
        <time>2020-06-19T23:42:24Z</time>
      </trkpt>
      <trkpt lat="42.98636" lon="1.1442">
        <ele>396</ele>
        <time>2020-06-19T23:42:27Z</time>
      </trkpt>
      <trkpt lat="42.98643" lon="1.14414">
        <ele>396</ele>
        <time>2020-06-19T23:42:29Z</time>
      </trkpt>
      <trkpt lat="42.98618" lon="1.14341">
        <ele>396</ele>
        <time>2020-06-19T23:42:39Z</time>
      </trkpt>
      <trkpt lat="42.98593" lon="1.14264">
        <ele>393</ele>
        <time>2020-06-19T23:42:50Z</time>
      </trkpt>
      <trkpt lat="42.98576" lon="1.14215">
        <ele>392</ele>
        <time>2020-06-19T23:42:57Z</time>
      </trkpt>
      <trkpt lat="42.98541" lon="1.14129">
        <ele>393</ele>
        <time>2020-06-19T23:43:10Z</time>
      </trkpt>
      <trkpt lat="42.98546" lon="1.14115">
        <ele>392</ele>
        <time>2020-06-19T23:43:12Z</time>
      </trkpt>
      <trkpt lat="42.98569" lon="1.1409">
        <ele>391</ele>
        <time>2020-06-19T23:43:17Z</time>
      </trkpt>
      <trkpt lat="42.98598" lon="1.14063">
        <ele>390</ele>
        <time>2020-06-19T23:43:24Z</time>
      </trkpt>
      <trkpt lat="42.98601" lon="1.1406">
        <ele>390</ele>
        <time>2020-06-19T23:43:24Z</time>
      </trkpt>
      <trkpt lat="42.98609" lon="1.14052">
        <ele>390</ele>
        <time>2020-06-19T23:43:26Z</time>
      </trkpt>
      <trkpt lat="42.98617" lon="1.14041">
        <ele>390</ele>
        <time>2020-06-19T23:43:28Z</time>
      </trkpt>
      <trkpt lat="42.98659" lon="1.14029">
        <ele>391</ele>
        <time>2020-06-19T23:43:36Z</time>
      </trkpt>
      <trkpt lat="42.98687" lon="1.14017">
        <ele>392</ele>
        <time>2020-06-19T23:43:41Z</time>
      </trkpt>
      <trkpt lat="42.98713" lon="1.14003">
        <ele>392</ele>
        <time>2020-06-19T23:43:46Z</time>
      </trkpt>
      <trkpt lat="42.98674" lon="1.14015">
        <ele>392</ele>
        <time>2020-06-19T23:43:53Z</time>
      </trkpt>
      <trkpt lat="42.98676" lon="1.14007">
        <ele>392</ele>
        <time>2020-06-19T23:43:54Z</time>
      </trkpt>
      <trkpt lat="42.9868" lon="1.14002">
        <ele>392</ele>
        <time>2020-06-19T23:43:55Z</time>
      </trkpt>
      <trkpt lat="42.98745" lon="1.13979">
        <ele>392</ele>
        <time>2020-06-19T23:44:07Z</time>
      </trkpt>
    </trkseg>
  </trk>
</gpx>